| time (UTC) | temp F | wind direction | speed MPH | gust MPH | rain 1hr in | rain 24hr in | rain mn in | humidity % | barometer mb |
| 20260508145515 | 55 | 157 | 1.0 | 8.0 | 0.00 | 0.00 | 0.00 | 76 | 1011.5 |
| 20260508145426 | 55 | 149 | 2.0 | 8.0 | 0.00 | 0.00 | 0.00 | 77 | 1011.5 |
| 20260508145316 | 55 | 176 | 2.0 | 8.0 | 0.00 | 0.00 | 0.00 | 78 | 1011.5 |
| 20260508145206 | 55 | 125 | 0.0 | 8.0 | 0.00 | 0.00 | 0.00 | 79 | 1011.5 |
| 20260508145057 | 55 | 196 | 1.0 | 8.0 | 0.00 | 0.00 | 0.00 | 78 | 1011.5 |
| 20260508145009 | 55 | 196 | 2.0 | 8.0 | 0.00 | 0.00 | 0.00 | 79 | 1011.5 |
| 20260508144900 | 55 | 146 | 4.0 | 8.0 | 0.00 | 0.00 | 0.00 | 80 | 1011.4 |
| 20260508144810 | 55 | 146 | 4.0 | 8.0 | 0.00 | 0.00 | 0.00 | 81 | 1011.5 |
| 20260508144720 | 55 | 146 | 4.0 | 8.0 | 0.00 | 0.00 | 0.00 | 81 | 1011.5 |
| 20260508144636 | 55 | 180 | 4.0 | 8.0 | 0.00 | 0.00 | 0.00 | 81 | 1011.4 |
| 20260508144536 | 55 | 155 | 4.0 | 8.0 | 0.00 | 0.00 | 0.00 | 82 | 1011.5 |
| 20260508144406 | 55 | 153 | 3.0 | 8.0 | 0.00 | 0.00 | 0.00 | 83 | 1011.4 |
| 20260508144256 | 54 | 145 | 1.0 | 7.0 | 0.00 | 0.00 | 0.00 | 83 | 1011.4 |
| 20260508144208 | 54 | 194 | 0.0 | 7.0 | 0.00 | 0.00 | 0.00 | 83 | 1011.5 |
| 20260508144058 | 54 | 198 | 1.0 | 7.0 | 0.00 | 0.00 | 0.00 | 83 | 1011.6 |
| 20260508144010 | 54 | 239 | 2.0 | 7.0 | 0.00 | 0.00 | 0.00 | 83 | 1011.5 |
| 20260508143921 | 54 | 239 | 3.0 | 7.0 | 0.00 | 0.00 | 0.00 | 83 | 1011.5 |
| 20260508143833 | 54 | 246 | 4.0 | 7.0 | 0.00 | 0.00 | 0.00 | 83 | 1011.6 |
| 20260508143706 | 54 | 139 | 4.0 | 7.0 | 0.00 | 0.00 | 0.00 | 83 | 1011.5 |
| 20260508143618 | 54 | 155 | 4.0 | 7.0 | 0.00 | 0.00 | 0.00 | 84 | 1011.6 |
| 20260508143529 | 54 | 146 | 2.0 | 7.0 | 0.00 | 0.00 | 0.00 | 84 | 1011.7 |
| 20260508143439 | 54 | 179 | 0.0 | 4.0 | 0.00 | 0.00 | 0.00 | 85 | 1011.6 |
| 20260508143331 | 54 | 179 | 1.0 | 4.0 | 0.00 | 0.00 | 0.00 | 85 | 1011.7 |
| 20260508143221 | 54 | 179 | 2.0 | 4.0 | 0.00 | 0.00 | 0.00 | 85 | 1011.7 |
| 20260508143130 | 54 | 143 | 2.0 | 4.0 | 0.00 | 0.00 | 0.00 | 86 | 1011.6 |
| 20260508143032 | 54 | 142 | 2.0 | 4.0 | 0.00 | 0.00 | 0.00 | 86 | 1011.6 |
| 20260508142901 | 54 | 142 | 2.0 | 5.0 | 0.00 | 0.00 | 0.00 | 86 | 1011.6 |
| 20260508142812 | 53 | 222 | 1.0 | 5.0 | 0.00 | 0.00 | 0.00 | 87 | 1011.4 |
| 20260508142703 | 53 | 189 | 1.0 | 5.0 | 0.00 | 0.00 | 0.00 | 87 | 1011.4 |
| 20260508142557 | 53 | 147 | 2.0 | 5.0 | 0.00 | 0.00 | 0.00 | 87 | 1011.4 |
| 20260508142508 | 53 | 147 | 1.0 | 5.0 | 0.00 | 0.00 | 0.00 | 87 | 1011.5 |
| 20260508142419 | 53 | 147 | 1.0 | 5.0 | 0.00 | 0.00 | 0.00 | 86 | 1011.5 |
| 20260508142308 | 53 | 147 | 3.0 | 5.0 | 0.00 | 0.00 | 0.00 | 86 | 1011.5 |
| 20260508142158 | 53 | 147 | 4.0 | 5.0 | 0.00 | 0.00 | 0.00 | 86 | 1011.6 |
| 20260508142109 | 53 | 147 | 4.0 | 5.0 | 0.00 | 0.00 | 0.00 | 87 | 1011.7 |
| 20260508142019 | 53 | 146 | 4.0 | 5.0 | 0.00 | 0.00 | 0.00 | 87 | 1011.7 |
| 20260508141931 | 53 | 136 | 4.0 | 5.0 | 0.00 | 0.00 | 0.00 | 87 | 1011.7 |
| 20260508141800 | 53 | 121 | 2.0 | 6.0 | 0.00 | 0.00 | 0.00 | 88 | 1011.8 |
| 20260508141712 | 53 | 134 | 2.0 | 6.0 | 0.00 | 0.00 | 0.00 | 89 | 1011.7 |
| 20260508141606 | 53 | 154 | 1.0 | 6.0 | 0.00 | 0.00 | 0.00 | 88 | 1011.8 |
| 20260508141528 | 53 | 154 | 2.0 | 6.0 | 0.00 | 0.00 | 0.00 | 88 | 1011.8 |
| 20260508141359 | 53 | 155 | 1.0 | 6.0 | 0.00 | 0.00 | 0.00 | 88 | 1011.8 |
| 20260508141310 | 53 | 155 | 2.0 | 6.0 | 0.00 | 0.00 | 0.00 | 88 | 1011.8 |
| 20260508141202 | 53 | 155 | 2.0 | 6.0 | 0.00 | 0.00 | 0.00 | 88 | 1011.8 |
| 20260508141113 | 53 | 154 | 2.0 | 6.0 | 0.00 | 0.00 | 0.00 | 88 | 1011.9 |
| 20260508141004 | 53 | 154 | 2.0 | 6.0 | 0.00 | 0.00 | 0.00 | 88 | 1011.9 |
| 20260508140913 | 53 | 154 | 2.0 | 6.0 | 0.00 | 0.00 | 0.00 | 88 | 1011.8 |
| 20260508140808 | 53 | 184 | 2.0 | 6.0 | 0.00 | 0.00 | 0.00 | 89 | 1011.8 |
| 20260508140657 | 53 | 162 | 1.0 | 3.0 | 0.00 | 0.00 | 0.00 | 90 | 1011.8 |
| 20260508140609 | 53 | 153 | 0.0 | 3.0 | 0.00 | 0.00 | 0.00 | 90 | 1011.8 |
| 20260508140502 | 53 | 142 | 1.0 | 3.0 | 0.00 | 0.00 | 0.00 | 90 | 1011.9 |
| 20260508140412 | 52 | 142 | 1.0 | 3.0 | 0.00 | 0.00 | 0.00 | 90 | 1011.8 |
| 20260508140304 | 52 | 157 | 0.0 | 2.0 | 0.00 | 0.00 | 0.00 | 90 | 1011.8 |
| 20260508140213 | 52 | 184 | 0.0 | 2.0 | 0.00 | 0.00 | 0.00 | 90 | 1011.9 |
| 20260508140116 | 52 | 184 | 1.0 | 2.0 | 0.00 | 0.00 | 0.00 | 91 | 1011.9 |
| 20260508140019 | 52 | 184 | 1.0 | 2.0 | 0.00 | 0.00 | 0.00 | 91 | 1011.8 |
| 20260508135914 | 52 | 178 | 1.0 | 2.0 | 0.00 | 0.00 | 0.00 | 91 | 1011.8 |
| 20260508135804 | 52 | 158 | 0.0 | 2.0 | 0.00 | 0.00 | 0.00 | 91 | 1011.9 |
| 20260508135716 | 52 | 158 | 0.0 | 3.0 | 0.00 | 0.00 | 0.00 | 91 | 1011.9 |
| 20260508135606 | 52 | 158 | 0.0 | 3.0 | 0.00 | 0.00 | 0.00 | 91 | 1011.9 |
| 20260508135457 | 51 | 158 | 0.0 | 3.0 | 0.00 | 0.00 | 0.00 | 91 | 1011.8 |
| 20260508135409 | 51 | 158 | 0.0 | 3.0 | 0.00 | 0.00 | 0.00 | 91 | 1011.8 |
| 20260508135259 | 51 | 158 | 0.0 | 3.0 | 0.00 | 0.00 | 0.00 | 91 | 1011.9 |
| 20260508135212 | 51 | 158 | 0.0 | 3.0 | 0.00 | 0.00 | 0.00 | 91 | 1011.8 |
| 20260508135107 | 51 | 158 | 1.0 | 3.0 | 0.00 | 0.00 | 0.00 | 91 | 1011.8 |
| 20260508134957 | 51 | 158 | 1.0 | 3.0 | 0.00 | 0.00 | 0.00 | 91 | 1011.9 |
| 20260508134908 | 51 | 158 | 1.0 | 3.0 | 0.00 | 0.00 | 0.00 | 91 | 1011.9 |
| 20260508134759 | 51 | 158 | 1.0 | 3.0 | 0.00 | 0.00 | 0.00 | 91 | 1011.9 |
| 20260508134711 | 51 | 158 | 1.0 | 3.0 | 0.00 | 0.00 | 0.00 | 91 | 1011.9 |
| 20260508134601 | 51 | 158 | 1.0 | 3.0 | 0.00 | 0.00 | 0.00 | 91 | 1011.9 |
| 20260508134524 | 51 | 158 | 1.0 | 3.0 | 0.00 | 0.00 | 0.00 | 91 | 1011.9 |
| 20260508134414 | 51 | 158 | 2.0 | 3.0 | 0.00 | 0.00 | 0.00 | 92 | 1011.8 |
| 20260508134306 | 51 | 158 | 2.0 | 3.0 | 0.00 | 0.00 | 0.00 | 92 | 1011.9 |
| 20260508134201 | 51 | 158 | 1.0 | 3.0 | 0.00 | 0.00 | 0.00 | 93 | 1011.9 |
| 20260508134109 | 51 | 158 | 1.0 | 3.0 | 0.00 | 0.00 | 0.00 | 93 | 1011.9 |
| 20260508134000 | 51 | 212 | 0.0 | 0.0 | 0.00 | 0.00 | 0.00 | 93 | 1011.9 |
| 20260508133911 | 51 | 212 | 0.0 | 0.0 | 0.00 | 0.00 | 0.00 | 93 | 1011.9 |
| 20260508133822 | 51 | 212 | 0.0 | 0.0 | 0.00 | 0.00 | 0.00 | 93 | 1011.8 |
| 20260508133711 | 51 | 212 | 0.0 | 0.0 | 0.00 | 0.00 | 0.00 | 93 | 1011.9 |
| 20260508133602 | 51 | 212 | 0.0 | 0.0 | 0.00 | 0.00 | 0.00 | 93 | 1011.9 |
| 20260508133514 | 51 | 212 | 0.0 | 1.0 | 0.00 | 0.00 | 0.00 | 93 | 1012.0 |
| 20260508133425 | 51 | 212 | 0.0 | 1.0 | 0.00 | 0.00 | 0.00 | 94 | 1012.0 |
| 20260508133338 | 51 | 212 | 0.0 | 1.0 | 0.00 | 0.00 | 0.00 | 94 | 1012.0 |
| 20260508133252 | 51 | 212 | 0.0 | 1.0 | 0.00 | 0.00 | 0.00 | 94 | 1012.0 |
| 20260508133142 | 51 | 212 | 0.0 | 1.0 | 0.00 | 0.00 | 0.00 | 95 | 1012.0 |
| 20260508133044 | 51 | 212 | 0.0 | 1.0 | 0.00 | 0.00 | 0.00 | 95 | 1012.0 |
| 20260508132934 | 51 | 212 | 0.0 | 1.0 | 0.00 | 0.00 | 0.00 | 96 | 1012.0 |
| 20260508132825 | 51 | 212 | 0.0 | 1.0 | 0.00 | 0.00 | 0.00 | 96 | 1012.0 |
| 20260508132735 | 50 | 212 | 0.0 | 1.0 | 0.00 | 0.00 | 0.00 | 96 | 1011.9 |
| 20260508132624 | 50 | 212 | 0.0 | 1.0 | 0.00 | 0.00 | 0.00 | 96 | 1011.9 |
| 20260508132515 | 50 | 212 | 0.0 | 1.0 | 0.00 | 0.00 | 0.00 | 96 | 1012.0 |
| 20260508132406 | 50 | 212 | 0.0 | 1.0 | 0.00 | 0.00 | 0.00 | 96 | 1012.0 |
| 20260508132257 | 50 | 212 | 0.0 | 1.0 | 0.00 | 0.00 | 0.00 | 96 | 1011.9 |
| 20260508132208 | 50 | 212 | 0.0 | 1.0 | 0.00 | 0.00 | 0.00 | 96 | 1011.9 |
| 20260508132123 | 49 | 212 | 0.0 | 1.0 | 0.00 | 0.00 | 0.00 | 96 | 1011.9 |
| 20260508132033 | 49 | 212 | 0.0 | 1.0 | 0.00 | 0.00 | 0.00 | 96 | 1012.0 |
| 20260508131903 | 49 | 212 | 0.0 | 1.0 | 0.00 | 0.00 | 0.00 | 96 | 1011.9 |
| 20260508131814 | 49 | 212 | 0.0 | 1.0 | 0.00 | 0.00 | 0.00 | 96 | 1012.0 |
| 20260508131706 | 49 | 212 | 0.0 | 2.0 | 0.00 | 0.00 | 0.00 | 96 | 1011.9 |
| 20260508131557 | 49 | 212 | 0.0 | 2.0 | 0.00 | 0.00 | 0.00 | 96 | 1011.9 |
| 20260508131518 | 49 | 212 | 0.0 | 2.0 | 0.00 | 0.00 | 0.00 | 96 | 1012.0 |
| 20260508131410 | 49 | 212 | 0.0 | 2.0 | 0.00 | 0.00 | 0.00 | 96 | 1012.0 |
| 20260508131301 | 48 | 237 | 0.0 | 2.0 | 0.00 | 0.00 | 0.00 | 96 | 1012.0 |
| 20260508131215 | 48 | 144 | 0.0 | 2.0 | 0.00 | 0.00 | 0.00 | 96 | 1012.0 |
| 20260508131106 | 48 | 144 | 0.0 | 2.0 | 0.00 | 0.00 | 0.00 | 96 | 1012.0 |
| 20260508130957 | 48 | 232 | 0.0 | 2.0 | 0.00 | 0.00 | 0.00 | 96 | 1012.0 |
| 20260508130909 | 48 | 232 | 0.0 | 2.0 | 0.00 | 0.00 | 0.00 | 96 | 1012.0 |
| 20260508130759 | 48 | 232 | 0.0 | 2.0 | 0.00 | 0.00 | 0.00 | 96 | 1012.0 |
| 20260508130710 | 48 | 232 | 0.0 | 2.0 | 0.00 | 0.00 | 0.00 | 96 | 1012.0 |
| 20260508130622 | 48 | 232 | 0.0 | 2.0 | 0.00 | 0.00 | 0.00 | 96 | 1012.0 |
| 20260508130512 | 48 | 232 | 0.0 | 2.0 | 0.00 | 0.00 | 0.00 | 96 | 1012.0 |
| 20260508130402 | 48 | 132 | 0.0 | 2.0 | 0.00 | 0.00 | 0.00 | 96 | 1012.1 |
| 20260508130259 | 48 | 132 | 0.0 | 2.0 | 0.00 | 0.00 | 0.00 | 96 | 1012.1 |
| 20260508130208 | 48 | 132 | 0.0 | 2.0 | 0.00 | 0.00 | 0.00 | 96 | 1012.1 |
| 20260508130117 | 48 | 132 | 0.0 | 2.0 | 0.00 | 0.00 | 0.00 | 96 | 1012.1 |
| 20260508130036 | 48 | 132 | 0.0 | 2.0 | 0.00 | 0.00 | 0.00 | 96 | 1012.1 |
| 20260508125905 | 47 | 132 | 0.0 | 2.0 | 0.00 | 0.00 | 0.00 | 96 | 1012.1 |
| 20260508125756 | 47 | 132 | 0.0 | 2.0 | 0.00 | 0.00 | 0.00 | 96 | 1012.1 |
| 20260508125706 | 47 | 132 | 0.0 | 2.0 | 0.00 | 0.00 | 0.00 | 96 | 1012.1 |
| 20260508125616 | 47 | 132 | 0.0 | 2.0 | 0.00 | 0.00 | 0.00 | 96 | 1012.1 |
| 20260508125528 | 47 | 132 | 0.0 | 1.0 | 0.00 | 0.00 | 0.00 | 96 | 1012.1 |
| 20260508125402 | 47 | 132 | 0.0 | 1.0 | 0.00 | 0.00 | 0.00 | 96 | 1012.0 |
| 20260508125312 | 47 | 132 | 0.0 | 1.0 | 0.00 | 0.00 | 0.00 | 96 | 1012.1 |
| 20260508125224 | 47 | 132 | 0.0 | 1.0 | 0.00 | 0.00 | 0.00 | 96 | 1012.0 |
| 20260508125134 | 47 | 132 | 0.0 | 1.0 | 0.00 | 0.00 | 0.00 | 96 | 1012.0 |
| 20260508125024 | 47 | 132 | 0.0 | 1.0 | 0.00 | 0.00 | 0.00 | 96 | 1011.9 |
| 20260508124914 | 47 | 132 | 0.0 | 1.0 | 0.00 | 0.00 | 0.00 | 96 | 1012.0 |
| 20260508124825 | 47 | 132 | 0.0 | 1.0 | 0.00 | 0.00 | 0.00 | 96 | 1011.9 |
| 20260508124715 | 47 | 132 | 0.0 | 1.0 | 0.00 | 0.00 | 0.00 | 96 | 1012.0 |
| 20260508124605 | 47 | 132 | 0.0 | 1.0 | 0.00 | 0.00 | 0.00 | 96 | 1012.0 |
| 20260508124526 | 47 | 132 | 0.0 | 1.0 | 0.00 | 0.00 | 0.00 | 96 | 1012.0 |
| 20260508124416 | 47 | 132 | 0.0 | 3.0 | 0.00 | 0.00 | 0.00 | 96 | 1012.1 |
| 20260508124313 | 47 | 132 | 0.0 | 3.0 | 0.00 | 0.00 | 0.00 | 96 | 1012.1 |
| 20260508124204 | 47 | 132 | 0.0 | 3.0 | 0.00 | 0.00 | 0.00 | 96 | 1012.1 |
| 20260508124115 | 47 | 132 | 0.0 | 3.0 | 0.00 | 0.00 | 0.00 | 96 | 1012.1 |
| 20260508124007 | 47 | 132 | 0.0 | 3.0 | 0.00 | 0.00 | 0.00 | 96 | 1012.1 |
| 20260508123858 | 47 | 132 | 0.0 | 3.0 | 0.00 | 0.00 | 0.00 | 96 | 1012.0 |
| 20260508123808 | 47 | 132 | 0.0 | 3.0 | 0.00 | 0.00 | 0.00 | 96 | 1012.1 |
| 20260508123658 | 47 | 132 | 1.0 | 3.0 | 0.00 | 0.00 | 0.00 | 96 | 1012.1 |
| 20260508123609 | 47 | 132 | 2.0 | 3.0 | 0.00 | 0.00 | 0.00 | 96 | 1012.1 |
| 20260508123520 | 47 | 132 | 2.0 | 3.0 | 0.00 | 0.00 | 0.00 | 96 | 1011.9 |
| 20260508123435 | 47 | 89 | 2.0 | 3.0 | 0.00 | 0.00 | 0.00 | 96 | 1012.0 |
| 20260508123347 | 47 | 89 | 2.0 | 3.0 | 0.00 | 0.00 | 0.00 | 97 | 1012.0 |
| 20260508123235 | 46 | 89 | 2.0 | 3.0 | 0.00 | 0.00 | 0.00 | 96 | 1012.0 |
| 20260508123106 | 46 | 89 | 2.0 | 3.0 | 0.00 | 0.00 | 0.00 | 97 | 1012.0 |
| 20260508123029 | 46 | 89 | 2.0 | 3.0 | 0.00 | 0.00 | 0.00 | 97 | 1012.0 |
| 20260508122858 | 46 | 155 | 2.0 | 3.0 | 0.00 | 0.00 | 0.00 | 97 | 1012.0 |
| 20260508122808 | 46 | 155 | 2.0 | 3.0 | 0.00 | 0.00 | 0.00 | 97 | 1012.1 |
| 20260508122659 | 46 | 155 | 2.0 | 3.0 | 0.00 | 0.00 | 0.00 | 97 | 1012.1 |
| 20260508122611 | 46 | 196 | 1.0 | 3.0 | 0.00 | 0.00 | 0.00 | 96 | 1011.9 |
| 20260508122506 | 46 | 196 | 1.0 | 2.0 | 0.00 | 0.00 | 0.00 | 96 | 1012.1 |
| 20260508122357 | 46 | 196 | 0.0 | 2.0 | 0.00 | 0.00 | 0.00 | 96 | 1012.1 |
| 20260508122308 | 46 | 196 | 0.0 | 3.0 | 0.00 | 0.00 | 0.00 | 96 | 1012.1 |
| 20260508122218 | 46 | 196 | 0.0 | 3.0 | 0.00 | 0.00 | 0.00 | 96 | 1012.1 |
| 20260508122129 | 46 | 196 | 0.0 | 3.0 | 0.00 | 0.00 | 0.00 | 96 | 1012.1 |
| 20260508121957 | 46 | 196 | 0.0 | 3.0 | 0.00 | 0.00 | 0.00 | 96 | 1012.1 |
| 20260508121909 | 45 | 196 | 0.0 | 3.0 | 0.00 | 0.00 | 0.00 | 97 | 1012.1 |
| 20260508121820 | 45 | 196 | 0.0 | 3.0 | 0.00 | 0.00 | 0.00 | 97 | 1012.0 |
| 20260508121732 | 45 | 196 | 0.0 | 3.0 | 0.00 | 0.00 | 0.00 | 97 | 1012.0 |
| 20260508121613 | 45 | 196 | 1.0 | 3.0 | 0.00 | 0.00 | 0.00 | 97 | 1012.0 |
| 20260508121518 | 45 | 196 | 2.0 | 3.0 | 0.00 | 0.00 | 0.00 | 97 | 1012.0 |
| 20260508121407 | 45 | 147 | 2.0 | 3.0 | 0.00 | 0.00 | 0.00 | 97 | 1012.0 |
| 20260508121258 | 45 | 145 | 1.0 | 3.0 | 0.00 | 0.00 | 0.00 | 97 | 1012.0 |
| 20260508121209 | 45 | 190 | 0.0 | 2.0 | 0.00 | 0.00 | 0.00 | 97 | 1012.1 |
| 20260508121100 | 45 | 190 | 0.0 | 2.0 | 0.00 | 0.00 | 0.00 | 97 | 1012.0 |
| 20260508121012 | 45 | 190 | 0.0 | 2.0 | 0.00 | 0.00 | 0.00 | 97 | 1011.9 |
| 20260508120901 | 45 | 190 | 0.0 | 2.0 | 0.00 | 0.00 | 0.00 | 97 | 1011.9 |
| 20260508120812 | 45 | 190 | 0.0 | 3.0 | 0.00 | 0.00 | 0.00 | 97 | 1012.0 |
| 20260508120703 | 45 | 190 | 0.0 | 3.0 | 0.00 | 0.00 | 0.00 | 97 | 1012.0 |
| 20260508120615 | 44 | 190 | 1.0 | 3.0 | 0.00 | 0.00 | 0.00 | 97 | 1012.0 |
| 20260508120527 | 44 | 190 | 1.0 | 3.0 | 0.00 | 0.00 | 0.00 | 97 | 1011.9 |
| 20260508120436 | 44 | 170 | 0.0 | 3.0 | 0.00 | 0.00 | 0.00 | 97 | 1012.0 |
| 20260508120308 | 44 | 91 | 0.0 | 3.0 | 0.00 | 0.00 | 0.00 | 97 | 1011.9 |
| 20260508120216 | 44 | 91 | 0.0 | 3.0 | 0.00 | 0.00 | 0.00 | 97 | 1011.9 |
| 20260508120108 | 44 | 91 | 1.0 | 3.0 | 0.00 | 0.00 | 0.00 | 97 | 1011.9 |
| 20260508120030 | 44 | 91 | 2.0 | 3.0 | 0.00 | 0.00 | 0.00 | 97 | 1011.8 |
| 20260508115859 | 44 | 91 | 1.0 | 3.0 | 0.00 | 0.00 | 0.00 | 97 | 1011.8 |
| 20260508115810 | 44 | 91 | 1.0 | 3.0 | 0.00 | 0.00 | 0.00 | 97 | 1011.8 |
| 20260508115706 | 44 | 91 | 1.0 | 3.0 | 0.00 | 0.00 | 0.00 | 97 | 1011.8 |
| 20260508115616 | 44 | 91 | 2.0 | 3.0 | 0.00 | 0.00 | 0.00 | 97 | 1011.8 |
| 20260508115527 | 43 | 91 | 2.0 | 3.0 | 0.00 | 0.00 | 0.00 | 97 | 1011.7 |
| 20260508115358 | 43 | 91 | 2.0 | 3.0 | 0.00 | 0.00 | 0.00 | 98 | 1011.8 |
| 20260508115309 | 43 | 91 | 2.0 | 3.0 | 0.00 | 0.00 | 0.00 | 98 | 1011.7 |
| 20260508115220 | 43 | 91 | 1.0 | 3.0 | 0.00 | 0.00 | 0.00 | 98 | 1011.7 |
| 20260508115111 | 43 | 91 | 0.0 | 1.0 | 0.00 | 0.00 | 0.00 | 98 | 1011.7 |
| 20260508115000 | 43 | 91 | 0.0 | 1.0 | 0.00 | 0.00 | 0.00 | 98 | 1011.7 |
| 20260508114912 | 43 | 91 | 0.0 | 1.0 | 0.00 | 0.00 | 0.00 | 98 | 1011.7 |
| 20260508114823 | 43 | 91 | 0.0 | 1.0 | 0.00 | 0.00 | 0.00 | 98 | 1011.7 |
| 20260508114656 | 42 | 91 | 0.0 | 1.0 | 0.00 | 0.00 | 0.00 | 98 | 1011.7 |
| 20260508114606 | 42 | 91 | 0.0 | 1.0 | 0.00 | 0.00 | 0.00 | 98 | 1011.8 |
| 20260508114529 | 42 | 91 | 0.0 | 1.0 | 0.00 | 0.00 | 0.00 | 97 | 1011.8 |
| 20260508114401 | 42 | 91 | 0.0 | 1.0 | 0.00 | 0.00 | 0.00 | 97 | 1011.7 |
| 20260508114312 | 42 | 91 | 0.0 | 1.0 | 0.00 | 0.00 | 0.00 | 97 | 1011.7 |
| 20260508114223 | 42 | 91 | 0.0 | 1.0 | 0.00 | 0.00 | 0.00 | 97 | 1011.7 |
| 20260508114113 | 42 | 91 | 0.0 | 1.0 | 0.00 | 0.00 | 0.00 | 97 | 1011.8 |
| 20260508114006 | 41 | 91 | 0.0 | 2.0 | 0.00 | 0.00 | 0.00 | 97 | 1011.8 |
| 20260508113856 | 41 | 91 | 0.0 | 2.0 | 0.00 | 0.00 | 0.00 | 97 | 1011.7 |
| 20260508113807 | 41 | 91 | 0.0 | 2.0 | 0.00 | 0.00 | 0.00 | 97 | 1011.7 |
| 20260508113702 | 41 | 91 | 0.0 | 2.0 | 0.00 | 0.00 | 0.00 | 97 | 1011.6 |
| 20260508113615 | 41 | 91 | 0.0 | 2.0 | 0.00 | 0.00 | 0.00 | 97 | 1011.8 |
| 20260508113505 | 41 | 91 | 0.0 | 2.0 | 0.00 | 0.00 | 0.00 | 97 | 1011.7 |
| 20260508113357 | 41 | 91 | 0.0 | 2.0 | 0.00 | 0.00 | 0.00 | 97 | 1011.8 |
| 20260508113308 | 41 | 91 | 0.0 | 2.0 | 0.00 | 0.00 | 0.00 | 97 | 1011.7 |
| 20260508113158 | 40 | 91 | 1.0 | 2.0 | 0.00 | 0.00 | 0.00 | 97 | 1011.6 |
| 20260508113109 | 40 | 91 | 0.0 | 2.0 | 0.00 | 0.00 | 0.00 | 97 | 1011.6 |
| 20260508113032 | 40 | 91 | 0.0 | 1.0 | 0.00 | 0.00 | 0.00 | 97 | 1011.7 |
| 20260508112922 | 40 | 91 | 0.0 | 1.0 | 0.00 | 0.00 | 0.00 | 97 | 1011.6 |
| 20260508112817 | 40 | 91 | 0.0 | 1.0 | 0.00 | 0.00 | 0.00 | 97 | 1011.5 |
| 20260508112727 | 40 | 91 | 0.0 | 1.0 | 0.00 | 0.00 | 0.00 | 97 | 1011.6 |
| 20260508112637 | 39 | 91 | 0.0 | 1.0 | 0.00 | 0.00 | 0.00 | 97 | 1011.6 |
| 20260508112507 | 39 | 91 | 0.0 | 1.0 | 0.00 | 0.00 | 0.00 | 96 | 1011.6 |
| 20260508112358 | 39 | 91 | 0.0 | 1.0 | 0.00 | 0.00 | 0.00 | 96 | 1011.6 |
| 20260508112310 | 39 | 91 | 0.0 | 1.0 | 0.00 | 0.00 | 0.00 | 96 | 1011.6 |
| 20260508112200 | 39 | 26 | 0.0 | 0.0 | 0.00 | 0.00 | 0.00 | 96 | 1011.6 |
| 20260508112110 | 39 | 26 | 0.0 | 0.0 | 0.00 | 0.00 | 0.00 | 96 | 1011.6 |
| 20260508112002 | 39 | 26 | 0.0 | 0.0 | 0.00 | 0.00 | 0.00 | 96 | 1011.7 |
| 20260508111858 | 39 | 26 | 0.0 | 0.0 | 0.00 | 0.00 | 0.00 | 96 | 1011.6 |
| 20260508111809 | 39 | 26 | 0.0 | 0.0 | 0.00 | 0.00 | 0.00 | 96 | 1011.6 |
| 20260508111720 | 39 | 26 | 0.0 | 0.0 | 0.00 | 0.00 | 0.00 | 96 | 1011.6 |
| 20260508111632 | 39 | 26 | 0.0 | 0.0 | 0.00 | 0.00 | 0.00 | 96 | 1011.7 |
| 20260508111554 | 39 | 26 | 0.0 | 0.0 | 0.00 | 0.00 | 0.00 | 96 | 1011.5 |
| 20260508111404 | 39 | 26 | 0.0 | 0.0 | 0.00 | 0.00 | 0.00 | 97 | 1011.6 |
| 20260508111314 | 39 | 26 | 0.0 | 0.0 | 0.00 | 0.00 | 0.00 | 97 | 1011.6 |
| 20260508111206 | 39 | 26 | 0.0 | 0.0 | 0.00 | 0.00 | 0.00 | 97 | 1011.6 |
| 20260508111116 | 39 | 26 | 0.0 | 0.0 | 0.00 | 0.00 | 0.00 | 97 | 1011.6 |
| 20260508111010 | 39 | 26 | 0.0 | 0.0 | 0.00 | 0.00 | 0.00 | 97 | 1011.5 |
| 20260508110920 | 39 | 26 | 0.0 | 0.0 | 0.00 | 0.00 | 0.00 | 97 | 1011.5 |
| 20260508110809 | 38 | 26 | 0.0 | 0.0 | 0.00 | 0.00 | 0.00 | 96 | 1011.6 |
| 20260508110700 | 38 | 26 | 0.0 | 0.0 | 0.00 | 0.00 | 0.00 | 96 | 1011.5 |
| 20260508110610 | 38 | 26 | 0.0 | 0.0 | 0.00 | 0.00 | 0.00 | 96 | 1011.5 |
| 20260508110501 | 38 | 26 | 0.0 | 0.0 | 0.00 | 0.00 | 0.00 | 96 | 1011.5 |
| 20260508110411 | 38 | 26 | 0.0 | 0.0 | 0.00 | 0.00 | 0.00 | 96 | 1011.3 |
| 20260508110304 | 38 | 26 | 0.0 | 0.0 | 0.00 | 0.00 | 0.00 | 96 | 1011.3 |
| 20260508110213 | 38 | 26 | 0.0 | 0.0 | 0.00 | 0.00 | 0.00 | 96 | 1011.4 |
| 20260508110109 | 38 | 26 | 0.0 | 0.0 | 0.00 | 0.00 | 0.00 | 96 | 1011.3 |
| 20260508110030 | 38 | 26 | 0.0 | 0.0 | 0.00 | 0.00 | 0.00 | 96 | 1011.3 |
| 20260508105859 | 38 | 26 | 0.0 | 0.0 | 0.00 | 0.00 | 0.00 | 96 | 1011.3 |
| 20260508105809 | 38 | 26 | 0.0 | 0.0 | 0.00 | 0.00 | 0.00 | 96 | 1011.4 |
| 20260508105720 | 38 | 26 | 0.0 | 0.0 | 0.00 | 0.00 | 0.00 | 96 | 1011.3 |
| 20260508105612 | 38 | 26 | 0.0 | 0.0 | 0.00 | 0.00 | 0.00 | 96 | 1011.3 |
| 20260508105503 | 38 | 26 | 0.0 | 0.0 | 0.00 | 0.00 | 0.00 | 96 | 1011.3 |
| 20260508105413 | 38 | 26 | 0.0 | 0.0 | 0.00 | 0.00 | 0.00 | 96 | 1011.3 |
| 20260508105306 | 38 | 26 | 0.0 | 0.0 | 0.00 | 0.00 | 0.00 | 96 | 1011.3 |
| 20260508105159 | 38 | 26 | 0.0 | 0.0 | 0.00 | 0.00 | 0.00 | 96 | 1011.3 |
| 20260508105112 | 38 | 26 | 0.0 | 0.0 | 0.00 | 0.00 | 0.00 | 96 | 1011.3 |
| 20260508105022 | 38 | 26 | 0.0 | 0.0 | 0.00 | 0.00 | 0.00 | 96 | 1011.3 |
| 20260508104933 | 38 | 26 | 0.0 | 0.0 | 0.00 | 0.00 | 0.00 | 96 | 1011.3 |
| 20260508104822 | 38 | 26 | 0.0 | 0.0 | 0.00 | 0.00 | 0.00 | 96 | 1011.3 |
| 20260508104711 | 38 | 26 | 0.0 | 0.0 | 0.00 | 0.00 | 0.00 | 96 | 1011.2 |
| 20260508104603 | 38 | 26 | 0.0 | 0.0 | 0.00 | 0.00 | 0.00 | 96 | 1011.3 |
| 20260508104525 | 38 | 26 | 0.0 | 0.0 | 0.00 | 0.00 | 0.00 | 96 | 1011.3 |
| 20260508104414 | 38 | 26 | 0.0 | 0.0 | 0.00 | 0.00 | 0.00 | 96 | 1011.3 |
| 20260508104324 | 38 | 26 | 0.0 | 0.0 | 0.00 | 0.00 | 0.00 | 96 | 1011.3 |
| 20260508104237 | 38 | 26 | 0.0 | 0.0 | 0.00 | 0.00 | 0.00 | 96 | 1011.3 |
| 20260508104109 | 38 | 26 | 0.0 | 0.0 | 0.00 | 0.00 | 0.00 | 96 | 1011.3 |
| 20260508104018 | 38 | 26 | 0.0 | 0.0 | 0.00 | 0.00 | 0.00 | 96 | 1011.3 |
| 20260508103930 | 38 | 26 | 0.0 | 0.0 | 0.00 | 0.00 | 0.00 | 96 | 1011.3 |
| 20260508103841 | 38 | 26 | 0.0 | 0.0 | 0.00 | 0.00 | 0.00 | 96 | 1011.3 |
| 20260508103753 | 38 | 26 | 0.0 | 0.0 | 0.00 | 0.00 | 0.00 | 96 | 1011.3 |
| 20260508103643 | 38 | 26 | 0.0 | 0.0 | 0.00 | 0.00 | 0.00 | 96 | 1011.3 |
| 20260508103533 | 38 | 26 | 0.0 | 0.0 | 0.00 | 0.00 | 0.00 | 96 | 1011.3 |
| 20260508103443 | 38 | 26 | 0.0 | 0.0 | 0.00 | 0.00 | 0.00 | 96 | 1011.3 |
| 20260508103336 | 38 | 26 | 0.0 | 0.0 | 0.00 | 0.00 | 0.00 | 96 | 1011.2 |
| 20260508103223 | 38 | 26 | 0.0 | 0.0 | 0.00 | 0.00 | 0.00 | 96 | 1011.3 |
| 20260508103114 | 38 | 26 | 0.0 | 0.0 | 0.00 | 0.00 | 0.00 | 96 | 1011.3 |
| 20260508103037 | 38 | 26 | 0.0 | 0.0 | 0.00 | 0.00 | 0.00 | 96 | 1011.3 |
| 20260508102926 | 38 | 26 | 0.0 | 0.0 | 0.00 | 0.00 | 0.00 | 95 | 1011.2 |
| 20260508102801 | 38 | 26 | 0.0 | 0.0 | 0.00 | 0.00 | 0.00 | 95 | 1011.2 |
| 20260508102712 | 38 | 26 | 0.0 | 0.0 | 0.00 | 0.00 | 0.00 | 95 | 1011.3 |
| 20260508102603 | 38 | 26 | 0.0 | 0.0 | 0.00 | 0.00 | 0.00 | 95 | 1011.2 |
| 20260508102515 | 38 | 26 | 0.0 | 0.0 | 0.00 | 0.00 | 0.00 | 95 | 1011.2 |
| 20260508102406 | 38 | 26 | 0.0 | 0.0 | 0.00 | 0.00 | 0.00 | 95 | 1011.2 |
| 20260508102256 | 38 | 26 | 0.0 | 0.0 | 0.00 | 0.00 | 0.00 | 95 | 1011.3 |
| 20260508102208 | 38 | 26 | 0.0 | 0.0 | 0.00 | 0.00 | 0.00 | 95 | 1011.3 |
| 20260508102058 | 38 | 26 | 0.0 | 0.0 | 0.00 | 0.00 | 0.00 | 95 | 1011.3 |
| 20260508102014 | 38 | 26 | 0.0 | 0.0 | 0.00 | 0.00 | 0.00 | 95 | 1011.3 |
| 20260508101905 | 38 | 26 | 0.0 | 0.0 | 0.00 | 0.00 | 0.00 | 95 | 1011.3 |
| 20260508101816 | 38 | 26 | 0.0 | 0.0 | 0.00 | 0.00 | 0.00 | 95 | 1011.3 |
| 20260508101707 | 38 | 26 | 0.0 | 0.0 | 0.00 | 0.00 | 0.00 | 95 | 1011.3 |
| 20260508101619 | 38 | 26 | 0.0 | 0.0 | 0.00 | 0.00 | 0.00 | 95 | 1011.3 |
| 20260508101520 | 38 | 26 | 0.0 | 0.0 | 0.00 | 0.00 | 0.00 | 95 | 1011.3 |
| 20260508101410 | 38 | 26 | 0.0 | 0.0 | 0.00 | 0.00 | 0.00 | 95 | 1011.3 |
| 20260508101259 | 38 | 26 | 0.0 | 0.0 | 0.00 | 0.00 | 0.00 | 95 | 1011.4 |
| 20260508101211 | 38 | 26 | 0.0 | 0.0 | 0.00 | 0.00 | 0.00 | 95 | 1011.4 |
| 20260508101107 | 38 | 26 | 0.0 | 0.0 | 0.00 | 0.00 | 0.00 | 95 | 1011.3 |
| 20260508101016 | 38 | 26 | 0.0 | 0.0 | 0.00 | 0.00 | 0.00 | 95 | 1011.4 |
| 20260508100908 | 38 | 26 | 0.0 | 0.0 | 0.00 | 0.00 | 0.00 | 95 | 1011.3 |
| 20260508100758 | 38 | 26 | 0.0 | 0.0 | 0.00 | 0.00 | 0.00 | 95 | 1011.4 |
| 20260508100709 | 38 | 26 | 0.0 | 0.0 | 0.00 | 0.00 | 0.00 | 96 | 1011.3 |
| 20260508100619 | 38 | 26 | 0.0 | 0.0 | 0.00 | 0.00 | 0.00 | 96 | 1011.4 |
| 20260508100509 | 38 | 26 | 0.0 | 0.0 | 0.00 | 0.00 | 0.00 | 96 | 1011.5 |
| 20260508100400 | 38 | 26 | 0.0 | 0.0 | 0.00 | 0.00 | 0.00 | 96 | 1011.4 |
| 20260508100313 | 38 | 26 | 0.0 | 0.0 | 0.00 | 0.00 | 0.00 | 96 | 1011.5 |
| 20260508100207 | 38 | 26 | 0.0 | 0.0 | 0.00 | 0.00 | 0.00 | 96 | 1011.5 |
| 20260508100117 | 38 | 26 | 0.0 | 0.0 | 0.00 | 0.00 | 0.00 | 96 | 1011.5 |
| 20260508100040 | 38 | 26 | 0.0 | 0.0 | 0.00 | 0.00 | 0.00 | 96 | 1011.5 |
| 20260508095930 | 38 | 26 | 0.0 | 0.0 | 0.00 | 0.00 | 0.00 | 95 | 1011.5 |
| 20260508095801 | 38 | 26 | 0.0 | 0.0 | 0.00 | 0.00 | 0.00 | 95 | 1011.4 |
| 20260508095712 | 39 | 26 | 0.0 | 0.0 | 0.00 | 0.00 | 0.00 | 95 | 1011.5 |
| 20260508095603 | 39 | 26 | 0.0 | 0.0 | 0.00 | 0.00 | 0.00 | 95 | 1011.4 |
| 20260508095513 | 39 | 26 | 0.0 | 0.0 | 0.00 | 0.00 | 0.00 | 96 | 1011.3 |
| 20260508095404 | 39 | 26 | 0.0 | 0.0 | 0.00 | 0.00 | 0.00 | 96 | 1011.3 |
| 20260508095258 | 38 | 26 | 0.0 | 0.0 | 0.00 | 0.00 | 0.00 | 95 | 1011.4 |
| 20260508095209 | 38 | 26 | 0.0 | 0.0 | 0.00 | 0.00 | 0.00 | 95 | 1011.3 |
| 20260508095059 | 39 | 26 | 0.0 | 0.0 | 0.00 | 0.00 | 0.00 | 95 | 1011.3 |
| 20260508095010 | 38 | 26 | 0.0 | 0.0 | 0.00 | 0.00 | 0.00 | 95 | 1011.4 |
| 20260508094859 | 39 | 26 | 0.0 | 0.0 | 0.00 | 0.00 | 0.00 | 95 | 1011.4 |
| 20260508094812 | 39 | 26 | 0.0 | 0.0 | 0.00 | 0.00 | 0.00 | 96 | 1011.2 |
| 20260508094702 | 39 | 26 | 0.0 | 0.0 | 0.00 | 0.00 | 0.00 | 96 | 1011.4 |
| 20260508094613 | 39 | 26 | 0.0 | 0.0 | 0.00 | 0.00 | 0.00 | 96 | 1011.4 |
| 20260508094536 | 39 | 26 | 0.0 | 0.0 | 0.00 | 0.00 | 0.00 | 96 | 1011.4 |
| 20260508094425 | 38 | 26 | 0.0 | 0.0 | 0.00 | 0.00 | 0.00 | 95 | 1011.4 |
| 20260508094259 | 38 | 26 | 0.0 | 0.0 | 0.00 | 0.00 | 0.00 | 95 | 1011.4 |
| 20260508094212 | 38 | 26 | 0.0 | 0.0 | 0.00 | 0.00 | 0.00 | 95 | 1011.3 |
| 20260508094121 | 38 | 26 | 0.0 | 0.0 | 0.00 | 0.00 | 0.00 | 95 | 1011.3 |
| 20260508094032 | 39 | 26 | 0.0 | 0.0 | 0.00 | 0.00 | 0.00 | 95 | 1011.4 |
| 20260508093942 | 39 | 26 | 0.0 | 0.0 | 0.00 | 0.00 | 0.00 | 95 | 1011.4 |
| 20260508093854 | 38 | 26 | 0.0 | 0.0 | 0.00 | 0.00 | 0.00 | 95 | 1011.3 |
| 20260508093743 | 38 | 26 | 0.0 | 0.0 | 0.00 | 0.00 | 0.00 | 95 | 1011.3 |
| 20260508093632 | 38 | 26 | 0.0 | 0.0 | 0.00 | 0.00 | 0.00 | 95 | 1011.5 |
| 20260508093501 | 39 | 26 | 0.0 | 0.0 | 0.00 | 0.00 | 0.00 | 95 | 1011.3 |
| 20260508093411 | 39 | 26 | 0.0 | 0.0 | 0.00 | 0.00 | 0.00 | 95 | 1011.4 |
| 20260508093308 | 39 | 26 | 0.0 | 0.0 | 0.00 | 0.00 | 0.00 | 95 | 1011.3 |
| 20260508093217 | 39 | 26 | 0.0 | 0.0 | 0.00 | 0.00 | 0.00 | 95 | 1011.4 |
| 20260508093130 | 39 | 26 | 0.0 | 0.0 | 0.00 | 0.00 | 0.00 | 95 | 1011.5 |
| 20260508093030 | 39 | 26 | 0.0 | 0.0 | 0.00 | 0.00 | 0.00 | 95 | 1011.4 |
| 20260508092901 | 39 | 26 | 0.0 | 0.0 | 0.00 | 0.00 | 0.00 | 95 | 1011.4 |
| 20260508092812 | 39 | 26 | 0.0 | 0.0 | 0.00 | 0.00 | 0.00 | 95 | 1011.5 |
| 20260508092704 | 39 | 26 | 0.0 | 0.0 | 0.00 | 0.00 | 0.00 | 95 | 1011.4 |
| 20260508092616 | 39 | 26 | 0.0 | 0.0 | 0.00 | 0.00 | 0.00 | 95 | 1011.4 |
| 20260508092507 | 39 | 26 | 0.0 | 0.0 | 0.00 | 0.00 | 0.00 | 95 | 1011.3 |
| 20260508092419 | 39 | 26 | 0.0 | 0.0 | 0.00 | 0.00 | 0.00 | 95 | 1011.2 |
| 20260508092334 | 39 | 26 | 0.0 | 0.0 | 0.00 | 0.00 | 0.00 | 95 | 1011.3 |
| 20260508092203 | 39 | 26 | 0.0 | 0.0 | 0.00 | 0.00 | 0.00 | 95 | 1011.2 |
| 20260508092115 | 39 | 26 | 0.0 | 0.0 | 0.00 | 0.00 | 0.00 | 95 | 1011.2 |
| 20260508092025 | 39 | 26 | 0.0 | 0.0 | 0.00 | 0.00 | 0.00 | 95 | 1011.3 |
| 20260508091914 | 39 | 26 | 0.0 | 0.0 | 0.00 | 0.00 | 0.00 | 95 | 1011.3 |
| 20260508091804 | 39 | 26 | 0.0 | 0.0 | 0.00 | 0.00 | 0.00 | 95 | 1011.3 |
| 20260508091716 | 39 | 26 | 0.0 | 0.0 | 0.00 | 0.00 | 0.00 | 95 | 1011.3 |
| 20260508091608 | 39 | 26 | 0.0 | 0.0 | 0.00 | 0.00 | 0.00 | 95 | 1011.3 |
| 20260508091529 | 39 | 26 | 0.0 | 0.0 | 0.00 | 0.00 | 0.00 | 94 | 1011.2 |
| 20260508091418 | 39 | 26 | 0.0 | 0.0 | 0.00 | 0.00 | 0.00 | 94 | 1011.3 |
| 20260508091313 | 39 | 26 | 0.0 | 0.0 | 0.00 | 0.00 | 0.00 | 94 | 1011.4 |
| 20260508091204 | 39 | 26 | 0.0 | 0.0 | 0.00 | 0.00 | 0.00 | 94 | 1011.3 |
| 20260508091115 | 39 | 26 | 0.0 | 0.0 | 0.00 | 0.00 | 0.00 | 94 | 1011.4 |
| 20260508091007 | 39 | 26 | 0.0 | 0.0 | 0.00 | 0.00 | 0.00 | 94 | 1011.4 |
| 20260508090857 | 40 | 26 | 0.0 | 0.0 | 0.00 | 0.00 | 0.00 | 95 | 1011.5 |
| 20260508090807 | 40 | 26 | 0.0 | 0.0 | 0.00 | 0.00 | 0.00 | 95 | 1011.4 |
| 20260508090719 | 40 | 26 | 0.0 | 0.0 | 0.00 | 0.00 | 0.00 | 95 | 1011.4 |
| 20260508090609 | 40 | 26 | 0.0 | 0.0 | 0.00 | 0.00 | 0.00 | 95 | 1011.3 |
| 20260508090519 | 40 | 26 | 0.0 | 0.0 | 0.00 | 0.00 | 0.00 | 95 | 1011.3 |
| 20260508090431 | 40 | 26 | 0.0 | 0.0 | 0.00 | 0.00 | 0.00 | 95 | 1011.3 |
| 20260508090307 | 40 | 26 | 0.0 | 0.0 | 0.00 | 0.00 | 0.00 | 95 | 1011.3 |
| 20260508090216 | 40 | 26 | 0.0 | 0.0 | 0.00 | 0.00 | 0.00 | 95 | 1011.4 |
| 20260508090128 | 40 | 26 | 0.0 | 0.0 | 0.00 | 0.00 | 0.00 | 95 | 1011.3 |
| 20260508090050 | 40 | 26 | 0.0 | 0.0 | 0.00 | 0.00 | 0.00 | 95 | 1011.3 |
| 20260508085858 | 40 | 26 | 0.0 | 0.0 | 0.00 | 0.00 | 0.00 | 95 | 1011.3 |
| 20260508085808 | 40 | 26 | 0.0 | 0.0 | 0.00 | 0.00 | 0.00 | 95 | 1011.2 |
| 20260508085718 | 40 | 26 | 0.0 | 0.0 | 0.00 | 0.00 | 0.00 | 95 | 1011.3 |
| 20260508085607 | 40 | 26 | 0.0 | 0.0 | 0.00 | 0.00 | 0.00 | 95 | 1011.3 |
| 20260508085458 | 40 | 26 | 0.0 | 0.0 | 0.00 | 0.00 | 0.00 | 95 | 1011.3 |
| 20260508085409 | 40 | 26 | 0.0 | 0.0 | 0.00 | 0.00 | 0.00 | 95 | 1011.2 |
| 20260508085325 | 40 | 26 | 0.0 | 0.0 | 0.00 | 0.00 | 0.00 | 95 | 1011.3 |
| 20260508085236 | 40 | 26 | 0.0 | 0.0 | 0.00 | 0.00 | 0.00 | 95 | 1011.3 |
| 20260508085106 | 40 | 26 | 0.0 | 0.0 | 0.00 | 0.00 | 0.00 | 95 | 1011.3 |
| 20260508084957 | 40 | 26 | 0.0 | 0.0 | 0.00 | 0.00 | 0.00 | 95 | 1011.3 |
| 20260508084909 | 40 | 26 | 0.0 | 0.0 | 0.00 | 0.00 | 0.00 | 95 | 1011.3 |
| 20260508084800 | 40 | 26 | 0.0 | 0.0 | 0.00 | 0.00 | 0.00 | 95 | 1011.4 |
| 20260508084711 | 40 | 26 | 0.0 | 0.0 | 0.00 | 0.00 | 0.00 | 95 | 1011.4 |
| 20260508084622 | 40 | 26 | 0.0 | 0.0 | 0.00 | 0.00 | 0.00 | 95 | 1011.5 |
| 20260508084544 | 40 | 26 | 0.0 | 0.0 | 0.00 | 0.00 | 0.00 | 95 | 1011.5 |
| 20260508084433 | 40 | 26 | 0.0 | 0.0 | 0.00 | 0.00 | 0.00 | 95 | 1011.3 |
| 20260508084306 | 40 | 26 | 0.0 | 0.0 | 0.00 | 0.00 | 0.00 | 95 | 1011.3 |
| 20260508084157 | 40 | 26 | 0.0 | 0.0 | 0.00 | 0.00 | 0.00 | 95 | 1011.3 |
| 20260508084110 | 40 | 26 | 0.0 | 0.0 | 0.00 | 0.00 | 0.00 | 95 | 1011.4 |
| 20260508084020 | 40 | 26 | 0.0 | 0.0 | 0.00 | 0.00 | 0.00 | 95 | 1011.4 |
| 20260508083931 | 40 | 26 | 0.0 | 0.0 | 0.00 | 0.00 | 0.00 | 95 | 1011.3 |
| 20260508083800 | 40 | 26 | 0.0 | 0.0 | 0.00 | 0.00 | 0.00 | 95 | 1011.3 |
| 20260508083711 | 40 | 26 | 0.0 | 0.0 | 0.00 | 0.00 | 0.00 | 95 | 1011.3 |
| 20260508083604 | 40 | 26 | 0.0 | 0.0 | 0.00 | 0.00 | 0.00 | 95 | 1011.4 |
| 20260508083458 | 40 | 26 | 0.0 | 0.0 | 0.00 | 0.00 | 0.00 | 95 | 1011.5 |
| 20260508083409 | 41 | 26 | 0.0 | 0.0 | 0.00 | 0.00 | 0.00 | 95 | 1011.4 |
| 20260508083302 | 41 | 26 | 0.0 | 0.0 | 0.00 | 0.00 | 0.00 | 95 | 1011.2 |
| 20260508083212 | 41 | 26 | 0.0 | 0.0 | 0.00 | 0.00 | 0.00 | 95 | 1011.3 |
| 20260508083122 | 41 | 26 | 0.0 | 0.0 | 0.00 | 0.00 | 0.00 | 95 | 1011.3 |
| 20260508083046 | 41 | 26 | 0.0 | 0.0 | 0.00 | 0.00 | 0.00 | 95 | 1011.3 |
| 20260508082937 | 41 | 26 | 0.0 | 0.0 | 0.00 | 0.00 | 0.00 | 95 | 1011.4 |
| 20260508082847 | 41 | 26 | 0.0 | 0.0 | 0.00 | 0.00 | 0.00 | 95 | 1011.4 |
| 20260508082736 | 41 | 26 | 0.0 | 0.0 | 0.00 | 0.00 | 0.00 | 95 | 1011.4 |
| 20260508082607 | 41 | 26 | 0.0 | 0.0 | 0.00 | 0.00 | 0.00 | 95 | 1011.4 |
| 20260508082502 | 41 | 26 | 0.0 | 0.0 | 0.00 | 0.00 | 0.00 | 95 | 1011.5 |
| 20260508082411 | 41 | 26 | 0.0 | 0.0 | 0.00 | 0.00 | 0.00 | 95 | 1011.4 |
| 20260508082306 | 41 | 26 | 0.0 | 0.0 | 0.00 | 0.00 | 0.00 | 95 | 1011.4 |
| 20260508082215 | 41 | 26 | 0.0 | 0.0 | 0.00 | 0.00 | 0.00 | 95 | 1011.5 |
| 20260508082125 | 41 | 26 | 0.0 | 0.0 | 0.00 | 0.00 | 0.00 | 95 | 1011.6 |
| 20260508081956 | 41 | 26 | 0.0 | 0.0 | 0.00 | 0.00 | 0.00 | 95 | 1011.5 |
| 20260508081908 | 41 | 26 | 0.0 | 0.0 | 0.00 | 0.00 | 0.00 | 95 | 1011.6 |
| 20260508081759 | 41 | 26 | 0.0 | 0.0 | 0.00 | 0.00 | 0.00 | 95 | 1011.5 |
| 20260508081711 | 41 | 26 | 0.0 | 0.0 | 0.00 | 0.00 | 0.00 | 95 | 1011.6 |
| 20260508081617 | 41 | 26 | 0.0 | 0.0 | 0.00 | 0.00 | 0.00 | 95 | 1011.5 |
| 20260508081519 | 41 | 26 | 0.0 | 0.0 | 0.00 | 0.00 | 0.00 | 95 | 1011.5 |
| 20260508081410 | 41 | 26 | 0.0 | 2.0 | 0.00 | 0.00 | 0.00 | 95 | 1011.5 |
| 20260508081321 | 41 | 26 | 0.0 | 2.0 | 0.00 | 0.00 | 0.00 | 94 | 1011.6 |
| 20260508081211 | 41 | 26 | 0.0 | 2.0 | 0.00 | 0.00 | 0.00 | 94 | 1011.5 |
| 20260508081102 | 41 | 26 | 0.0 | 2.0 | 0.00 | 0.00 | 0.00 | 94 | 1011.4 |
| 20260508081013 | 41 | 26 | 0.0 | 2.0 | 0.00 | 0.00 | 0.00 | 95 | 1011.5 |
| 20260508080904 | 41 | 26 | 0.0 | 2.0 | 0.00 | 0.00 | 0.00 | 95 | 1011.4 |
| 20260508080815 | 41 | 26 | 0.0 | 2.0 | 0.00 | 0.00 | 0.00 | 95 | 1011.5 |
| 20260508080706 | 41 | 26 | 1.0 | 2.0 | 0.00 | 0.00 | 0.00 | 95 | 1011.5 |
| 20260508080620 | 41 | 26 | 1.0 | 2.0 | 0.00 | 0.00 | 0.00 | 95 | 1011.5 |
| 20260508080531 | 41 | 26 | 1.0 | 2.0 | 0.00 | 0.00 | 0.00 | 95 | 1011.5 |
| 20260508080401 | 41 | 26 | 0.0 | 2.0 | 0.00 | 0.00 | 0.00 | 95 | 1011.6 |
| 20260508080314 | 41 | 26 | 0.0 | 0.0 | 0.00 | 0.00 | 0.00 | 95 | 1011.6 |
| 20260508080224 | 41 | 26 | 0.0 | 0.0 | 0.00 | 0.00 | 0.00 | 95 | 1011.5 |
| 20260508080134 | 41 | 26 | 0.0 | 0.0 | 0.00 | 0.00 | 0.00 | 95 | 1011.5 |
| 20260508080035 | 41 | 26 | 0.0 | 2.0 | 0.00 | 0.00 | 0.00 | 95 | 1011.5 |
| 20260508075904 | 41 | 26 | 0.0 | 2.0 | 0.00 | 0.00 | 0.00 | 95 | 1011.6 |
| 20260508075815 | 41 | 26 | 0.0 | 2.0 | 0.00 | 0.00 | 0.00 | 95 | 1011.5 |
| 20260508075708 | 41 | 26 | 0.0 | 4.0 | 0.00 | 0.00 | 0.00 | 95 | 1011.5 |
| 20260508075622 | 41 | 26 | 0.0 | 4.0 | 0.00 | 0.00 | 0.00 | 95 | 1011.6 |
| 20260508075513 | 41 | 26 | 0.0 | 4.0 | 0.00 | 0.00 | 0.00 | 94 | 1011.6 |
| 20260508075404 | 41 | 26 | 0.0 | 4.0 | 0.00 | 0.00 | 0.00 | 94 | 1011.5 |
| 20260508075315 | 41 | 26 | 1.0 | 4.0 | 0.00 | 0.00 | 0.00 | 94 | 1011.6 |
| 20260508075225 | 41 | 26 | 1.0 | 4.0 | 0.00 | 0.00 | 0.00 | 94 | 1011.5 |
| 20260508075135 | 41 | 26 | 2.0 | 4.0 | 0.00 | 0.00 | 0.00 | 94 | 1011.6 |
| 20260508075026 | 41 | 26 | 2.0 | 4.0 | 0.00 | 0.00 | 0.00 | 94 | 1011.6 |
| 20260508074937 | 41 | 26 | 3.0 | 4.0 | 0.00 | 0.00 | 0.00 | 94 | 1011.4 |
| 20260508074828 | 41 | 26 | 3.0 | 4.0 | 0.00 | 0.00 | 0.00 | 94 | 1011.5 |
| 20260508074658 | 41 | 26 | 2.0 | 4.0 | 0.00 | 0.00 | 0.00 | 94 | 1011.4 |
| 20260508074609 | 41 | 146 | 1.0 | 3.0 | 0.00 | 0.00 | 0.00 | 94 | 1011.4 |
| 20260508074534 | 41 | 146 | 1.0 | 2.0 | 0.00 | 0.00 | 0.00 | 94 | 1011.4 |
| 20260508074404 | 41 | 146 | 0.0 | 0.0 | 0.00 | 0.00 | 0.00 | 94 | 1011.5 |
| 20260508074315 | 41 | 146 | 0.0 | 0.0 | 0.00 | 0.00 | 0.00 | 94 | 1011.4 |
| 20260508074205 | 41 | 146 | 0.0 | 0.0 | 0.00 | 0.00 | 0.00 | 94 | 1011.5 |
| 20260508074115 | 41 | 146 | 0.0 | 0.0 | 0.00 | 0.00 | 0.00 | 94 | 1011.5 |
| 20260508074007 | 41 | 146 | 0.0 | 0.0 | 0.00 | 0.00 | 0.00 | 94 | 1011.5 |
| 20260508073857 | 41 | 146 | 0.0 | 0.0 | 0.00 | 0.00 | 0.00 | 94 | 1011.5 |
| 20260508073806 | 41 | 146 | 0.0 | 0.0 | 0.00 | 0.00 | 0.00 | 94 | 1011.5 |
| 20260508073718 | 41 | 146 | 0.0 | 0.0 | 0.00 | 0.00 | 0.00 | 94 | 1011.5 |
| 20260508073611 | 41 | 146 | 0.0 | 0.0 | 0.00 | 0.00 | 0.00 | 94 | 1011.5 |
| 20260508073503 | 41 | 146 | 0.0 | 0.0 | 0.00 | 0.00 | 0.00 | 94 | 1011.5 |
| 20260508073414 | 41 | 146 | 0.0 | 0.0 | 0.00 | 0.00 | 0.00 | 94 | 1011.5 |
| 20260508073306 | 41 | 146 | 0.0 | 0.0 | 0.00 | 0.00 | 0.00 | 94 | 1011.4 |
| 20260508073216 | 41 | 146 | 0.0 | 0.0 | 0.00 | 0.00 | 0.00 | 94 | 1011.5 |
| 20260508073106 | 41 | 146 | 0.0 | 0.0 | 0.00 | 0.00 | 0.00 | 94 | 1011.4 |
| 20260508073027 | 41 | 146 | 0.0 | 0.0 | 0.00 | 0.00 | 0.00 | 95 | 1011.4 |
| 20260508072858 | 41 | 146 | 0.0 | 0.0 | 0.00 | 0.00 | 0.00 | 95 | 1011.3 |
| 20260508072808 | 41 | 146 | 0.0 | 0.0 | 0.00 | 0.00 | 0.00 | 94 | 1011.4 |
| 20260508072704 | 41 | 146 | 0.0 | 0.0 | 0.00 | 0.00 | 0.00 | 95 | 1011.4 |
| 20260508072615 | 41 | 146 | 0.0 | 0.0 | 0.00 | 0.00 | 0.00 | 94 | 1011.4 |
| 20260508072526 | 41 | 146 | 0.0 | 0.0 | 0.00 | 0.00 | 0.00 | 94 | 1011.4 |
| 20260508072437 | 41 | 146 | 0.0 | 0.0 | 0.00 | 0.00 | 0.00 | 94 | 1011.5 |
| 20260508072348 | 41 | 146 | 0.0 | 0.0 | 0.00 | 0.00 | 0.00 | 94 | 1011.5 |
| 20260508072239 | 41 | 146 | 0.0 | 0.0 | 0.00 | 0.00 | 0.00 | 94 | 1011.4 |
| 20260508072128 | 41 | 146 | 0.0 | 0.0 | 0.00 | 0.00 | 0.00 | 94 | 1011.5 |
| 20260508071958 | 41 | 146 | 0.0 | 0.0 | 0.00 | 0.00 | 0.00 | 94 | 1011.4 |
| 20260508071909 | 41 | 146 | 0.0 | 0.0 | 0.00 | 0.00 | 0.00 | 94 | 1011.4 |
| 20260508071759 | 41 | 146 | 0.0 | 0.0 | 0.00 | 0.00 | 0.00 | 94 | 1011.5 |
| 20260508071715 | 41 | 146 | 0.0 | 0.0 | 0.00 | 0.00 | 0.00 | 94 | 1011.5 |
| 20260508071617 | 41 | 146 | 0.0 | 0.0 | 0.00 | 0.00 | 0.00 | 94 | 1011.3 |
| 20260508071517 | 41 | 146 | 0.0 | 0.0 | 0.00 | 0.00 | 0.00 | 94 | 1011.5 |
| 20260508071407 | 41 | 146 | 0.0 | 0.0 | 0.00 | 0.00 | 0.00 | 94 | 1011.5 |
| 20260508071258 | 41 | 146 | 0.0 | 0.0 | 0.00 | 0.00 | 0.00 | 94 | 1011.6 |
| 20260508071209 | 41 | 146 | 0.0 | 0.0 | 0.00 | 0.00 | 0.00 | 94 | 1011.6 |
| 20260508071122 | 41 | 146 | 0.0 | 0.0 | 0.00 | 0.00 | 0.00 | 94 | 1011.5 |
| 20260508071032 | 41 | 146 | 0.0 | 0.0 | 0.00 | 0.00 | 0.00 | 94 | 1011.6 |
| 20260508070922 | 41 | 146 | 0.0 | 0.0 | 0.00 | 0.00 | 0.00 | 94 | 1011.6 |
| 20260508070812 | 41 | 146 | 0.0 | 0.0 | 0.00 | 0.00 | 0.00 | 93 | 1011.6 |
| 20260508070707 | 42 | 146 | 0.0 | 0.0 | 0.00 | 0.00 | 0.00 | 93 | 1011.7 |
| 20260508070616 | 42 | 146 | 0.0 | 0.0 | 0.00 | 0.00 | 0.00 | 94 | 1011.7 |
| 20260508070528 | 42 | 146 | 0.0 | 0.0 | 0.00 | 0.00 | 0.00 | 94 | 1011.6 |
| 20260508070358 | 42 | 146 | 0.0 | 0.0 | 0.00 | 0.00 | 0.00 | 94 | 1011.6 |
| 20260508070311 | 42 | 146 | 0.0 | 0.0 | 0.00 | 0.00 | 0.00 | 94 | 1011.7 |
| 20260508070220 | 42 | 146 | 0.0 | 0.0 | 0.00 | 0.00 | 0.00 | 94 | 1011.6 |
| 20260508070131 | 42 | 146 | 0.0 | 0.0 | 0.00 | 0.00 | 0.00 | 94 | 1011.7 |
| 20260508070054 | 42 | 146 | 0.0 | 0.0 | 0.00 | 0.00 | 0.00 | 94 | 1011.7 |
| 20260508065923 | 42 | 146 | 0.0 | 0.0 | 0.00 | 0.00 | 0.00 | 94 | 1011.6 |
| 20260508065833 | 42 | 146 | 0.0 | 0.0 | 0.00 | 0.00 | 0.00 | 94 | 1011.7 |
| 20260508065703 | 42 | 146 | 0.0 | 0.0 | 0.00 | 0.00 | 0.00 | 94 | 1011.7 |
| 20260508065617 | 42 | 146 | 0.0 | 0.0 | 0.00 | 0.00 | 0.00 | 94 | 1011.7 |
| 20260508065529 | 42 | 146 | 0.0 | 0.0 | 0.00 | 0.00 | 0.00 | 94 | 1011.6 |
| 20260508065439 | 42 | 146 | 0.0 | 0.0 | 0.00 | 0.00 | 0.00 | 94 | 1011.8 |
| 20260508065330 | 42 | 146 | 0.0 | 0.0 | 0.00 | 0.00 | 0.00 | 94 | 1011.7 |
| 20260508065240 | 42 | 146 | 0.0 | 0.0 | 0.00 | 0.00 | 0.00 | 94 | 1011.7 |
| 20260508065132 | 42 | 146 | 0.0 | 0.0 | 0.00 | 0.00 | 0.00 | 93 | 1011.7 |
| 20260508065022 | 42 | 146 | 0.0 | 0.0 | 0.00 | 0.00 | 0.00 | 93 | 1011.7 |
| 20260508064934 | 42 | 146 | 0.0 | 1.0 | 0.00 | 0.00 | 0.00 | 93 | 1011.7 |
| 20260508064803 | 42 | 146 | 0.0 | 2.0 | 0.00 | 0.00 | 0.00 | 93 | 1011.6 |
| 20260508064714 | 42 | 146 | 0.0 | 2.0 | 0.00 | 0.00 | 0.00 | 93 | 1011.8 |
| 20260508064605 | 42 | 146 | 0.0 | 2.0 | 0.00 | 0.00 | 0.00 | 93 | 1011.8 |
| 20260508064531 | 42 | 146 | 0.0 | 2.0 | 0.00 | 0.00 | 0.00 | 93 | 1011.7 |
| 20260508064400 | 42 | 146 | 0.0 | 2.0 | 0.00 | 0.00 | 0.00 | 93 | 1011.7 |
| 20260508064310 | 42 | 146 | 0.0 | 2.0 | 0.00 | 0.00 | 0.00 | 93 | 1011.7 |
| 20260508064222 | 42 | 146 | 0.0 | 2.0 | 0.00 | 0.00 | 0.00 | 93 | 1011.7 |
| 20260508064132 | 42 | 146 | 1.0 | 2.0 | 0.00 | 0.00 | 0.00 | 93 | 1011.7 |
| 20260508064022 | 42 | 146 | 1.0 | 2.0 | 0.00 | 0.00 | 0.00 | 94 | 1011.7 |
| 20260508063913 | 42 | 146 | 1.0 | 2.0 | 0.00 | 0.00 | 0.00 | 94 | 1011.6 |
| 20260508063824 | 42 | 146 | 0.0 | 1.0 | 0.00 | 0.00 | 0.00 | 94 | 1011.6 |
| 20260508063714 | 42 | 146 | 0.0 | 0.0 | 0.00 | 0.00 | 0.00 | 94 | 1011.6 |
| 20260508063625 | 42 | 146 | 0.0 | 0.0 | 0.00 | 0.00 | 0.00 | 93 | 1011.6 |
| 20260508063536 | 42 | 146 | 0.0 | 0.0 | 0.00 | 0.00 | 0.00 | 93 | 1011.7 |
| 20260508063409 | 42 | 146 | 0.0 | 0.0 | 0.00 | 0.00 | 0.00 | 93 | 1011.7 |
| 20260508063302 | 42 | 146 | 0.0 | 0.0 | 0.00 | 0.00 | 0.00 | 93 | 1011.7 |
| 20260508063211 | 42 | 146 | 0.0 | 0.0 | 0.00 | 0.00 | 0.00 | 93 | 1011.6 |
| 20260508063103 | 42 | 146 | 0.0 | 0.0 | 0.00 | 0.00 | 0.00 | 93 | 1011.6 |
| 20260508063025 | 42 | 146 | 0.0 | 0.0 | 0.00 | 0.00 | 0.00 | 93 | 1011.7 |
| 20260508062916 | 42 | 146 | 0.0 | 0.0 | 0.00 | 0.00 | 0.00 | 93 | 1011.6 |
| 20260508062805 | 42 | 146 | 0.0 | 0.0 | 0.00 | 0.00 | 0.00 | 93 | 1011.7 |
| 20260508062716 | 42 | 146 | 0.0 | 0.0 | 0.00 | 0.00 | 0.00 | 93 | 1011.8 |
| 20260508062606 | 42 | 146 | 0.0 | 1.0 | 0.00 | 0.00 | 0.00 | 93 | 1011.7 |
| 20260508062501 | 42 | 146 | 0.0 | 1.0 | 0.00 | 0.00 | 0.00 | 93 | 1011.7 |
| 20260508062411 | 42 | 146 | 0.0 | 1.0 | 0.00 | 0.00 | 0.00 | 93 | 1011.6 |
| 20260508062321 | 42 | 146 | 0.0 | 1.0 | 0.00 | 0.00 | 0.00 | 93 | 1011.7 |
| 20260508062233 | 42 | 146 | 0.0 | 1.0 | 0.00 | 0.00 | 0.00 | 93 | 1011.7 |
| 20260508062102 | 42 | 146 | 0.0 | 1.0 | 0.00 | 0.00 | 0.00 | 93 | 1011.7 |
| 20260508062014 | 42 | 146 | 0.0 | 1.0 | 0.00 | 0.00 | 0.00 | 93 | 1011.7 |
| 20260508061906 | 42 | 146 | 0.0 | 1.0 | 0.00 | 0.00 | 0.00 | 93 | 1011.7 |
| 20260508061817 | 42 | 146 | 0.0 | 1.0 | 0.00 | 0.00 | 0.00 | 93 | 1011.8 |
| 20260508061728 | 42 | 146 | 0.0 | 0.0 | 0.00 | 0.00 | 0.00 | 93 | 1011.7 |
| 20260508061602 | 42 | 146 | 0.0 | 0.0 | 0.00 | 0.00 | 0.00 | 93 | 1011.8 |
| 20260508061524 | 42 | 146 | 0.0 | 0.0 | 0.00 | 0.00 | 0.00 | 93 | 1011.8 |
| 20260508061413 | 43 | 146 | 0.0 | 0.0 | 0.00 | 0.00 | 0.00 | 93 | 1011.7 |
| 20260508061324 | 43 | 146 | 0.0 | 0.0 | 0.00 | 0.00 | 0.00 | 93 | 1011.8 |
| 20260508061214 | 43 | 146 | 0.0 | 0.0 | 0.00 | 0.00 | 0.00 | 92 | 1011.8 |
| 20260508061125 | 43 | 146 | 0.0 | 0.0 | 0.00 | 0.00 | 0.00 | 92 | 1011.9 |
| 20260508061036 | 43 | 146 | 0.0 | 0.0 | 0.00 | 0.00 | 0.00 | 92 | 1011.9 |
| 20260508060908 | 43 | 146 | 0.0 | 0.0 | 0.00 | 0.00 | 0.00 | 92 | 1011.8 |
| 20260508060758 | 43 | 146 | 0.0 | 0.0 | 0.00 | 0.00 | 0.00 | 92 | 1011.8 |
| 20260508060709 | 43 | 146 | 0.0 | 0.0 | 0.00 | 0.00 | 0.00 | 93 | 1011.8 |
| 20260508060603 | 43 | 146 | 0.0 | 0.0 | 0.00 | 0.00 | 0.00 | 92 | 1011.8 |
| 20260508060513 | 43 | 146 | 0.0 | 0.0 | 0.00 | 0.00 | 0.00 | 92 | 1011.8 |
| 20260508060404 | 43 | 146 | 0.0 | 0.0 | 0.00 | 0.00 | 0.00 | 92 | 1011.9 |
| 20260508060317 | 43 | 146 | 0.0 | 0.0 | 0.00 | 0.00 | 0.00 | 92 | 1011.8 |
| 20260508060208 | 43 | 146 | 0.0 | 1.0 | 0.00 | 0.00 | 0.00 | 92 | 1011.8 |
| 20260508060057 | 43 | 146 | 0.0 | 1.0 | 0.00 | 0.00 | 0.00 | 92 | 1011.8 |
| 20260508060019 | 43 | 146 | 0.0 | 1.0 | 0.00 | 0.00 | 0.00 | 92 | 1011.9 |
| 20260508055908 | 43 | 146 | 0.0 | 1.0 | 0.00 | 0.00 | 0.00 | 92 | 1011.9 |
| 20260508055800 | 43 | 146 | 0.0 | 1.0 | 0.00 | 0.00 | 0.00 | 92 | 1011.8 |
| 20260508055715 | 43 | 146 | 0.0 | 1.0 | 0.00 | 0.00 | 0.00 | 92 | 1011.9 |
| 20260508055605 | 43 | 146 | 0.0 | 1.0 | 0.00 | 0.00 | 0.00 | 92 | 1011.9 |
| 20260508055515 | 43 | 146 | 0.0 | 1.0 | 0.00 | 0.00 | 0.00 | 92 | 1011.8 |
| 20260508055407 | 43 | 146 | 1.0 | 1.0 | 0.00 | 0.00 | 0.00 | 92 | 1011.8 |
| 20260508055258 | 43 | 146 | 0.0 | 1.0 | 0.00 | 0.00 | 0.00 | 92 | 1011.8 |
| 20260508055210 | 43 | 146 | 0.0 | 0.0 | 0.00 | 0.00 | 0.00 | 92 | 1011.8 |
| 20260508055100 | 43 | 146 | 0.0 | 0.0 | 0.00 | 0.00 | 0.00 | 92 | 1011.9 |
| 20260508055012 | 43 | 146 | 0.0 | 0.0 | 0.00 | 0.00 | 0.00 | 92 | 1011.9 |
| 20260508054907 | 43 | 146 | 0.0 | 0.0 | 0.00 | 0.00 | 0.00 | 92 | 1011.8 |
| 20260508054757 | 43 | 146 | 0.0 | 0.0 | 0.00 | 0.00 | 0.00 | 92 | 1011.9 |
| 20260508054708 | 44 | 146 | 0.0 | 0.0 | 0.00 | 0.00 | 0.00 | 92 | 1011.8 |
| 20260508054559 | 44 | 146 | 0.0 | 0.0 | 0.00 | 0.00 | 0.00 | 92 | 1011.8 |
| 20260508054522 | 44 | 146 | 0.0 | 0.0 | 0.00 | 0.00 | 0.00 | 92 | 1011.9 |
| 20260508054412 | 44 | 146 | 0.0 | 0.0 | 0.00 | 0.00 | 0.00 | 92 | 1011.9 |
| 20260508054302 | 44 | 146 | 0.0 | 0.0 | 0.00 | 0.00 | 0.00 | 92 | 1011.9 |
| 20260508054212 | 44 | 146 | 0.0 | 0.0 | 0.00 | 0.00 | 0.00 | 92 | 1011.8 |
| 20260508054104 | 44 | 146 | 0.0 | 0.0 | 0.00 | 0.00 | 0.00 | 92 | 1011.9 |
| 20260508053958 | 44 | 146 | 0.0 | 0.0 | 0.00 | 0.00 | 0.00 | 92 | 1011.9 |
| 20260508053909 | 44 | 146 | 0.0 | 1.0 | 0.00 | 0.00 | 0.00 | 92 | 1011.9 |
| 20260508053801 | 44 | 146 | 0.0 | 1.0 | 0.00 | 0.00 | 0.00 | 92 | 1011.9 |
| 20260508053711 | 44 | 146 | 0.0 | 1.0 | 0.00 | 0.00 | 0.00 | 92 | 1011.9 |
| 20260508053603 | 44 | 146 | 0.0 | 1.0 | 0.00 | 0.00 | 0.00 | 92 | 1011.9 |
| 20260508053515 | 44 | 146 | 0.0 | 1.0 | 0.00 | 0.00 | 0.00 | 92 | 1011.9 |
| 20260508053425 | 44 | 146 | 0.0 | 1.0 | 0.00 | 0.00 | 0.00 | 92 | 1011.9 |
| 20260508053317 | 44 | 146 | 0.0 | 1.0 | 0.00 | 0.00 | 0.00 | 92 | 1011.9 |
| 20260508053207 | 44 | 146 | 0.0 | 2.0 | 0.00 | 0.00 | 0.00 | 92 | 1011.8 |
| 20260508053101 | 44 | 146 | 0.0 | 2.0 | 0.00 | 0.00 | 0.00 | 92 | 1011.9 |
| 20260508053025 | 44 | 146 | 0.0 | 2.0 | 0.00 | 0.00 | 0.00 | 92 | 1011.8 |
| 20260508052915 | 44 | 146 | 0.0 | 2.0 | 0.00 | 0.00 | 0.00 | 92 | 1011.9 |
| 20260508052805 | 44 | 146 | 0.0 | 2.0 | 0.00 | 0.00 | 0.00 | 92 | 1011.8 |
| 20260508052717 | 44 | 146 | 0.0 | 2.0 | 0.00 | 0.00 | 0.00 | 92 | 1011.8 |
| 20260508052627 | 44 | 146 | 0.0 | 2.0 | 0.00 | 0.00 | 0.00 | 92 | 1011.9 |
| 20260508052457 | 44 | 146 | 0.0 | 2.0 | 0.00 | 0.00 | 0.00 | 92 | 1011.8 |
| 20260508052407 | 44 | 146 | 1.0 | 2.0 | 0.00 | 0.00 | 0.00 | 92 | 1011.8 |
| 20260508052320 | 45 | 146 | 1.0 | 2.0 | 0.00 | 0.00 | 0.00 | 92 | 1011.8 |
| 20260508052231 | 45 | 146 | 0.0 | 2.0 | 0.00 | 0.00 | 0.00 | 92 | 1011.8 |
| 20260508052104 | 44 | 146 | 0.0 | 2.0 | 0.00 | 0.00 | 0.00 | 92 | 1011.8 |
| 20260508052015 | 45 | 146 | 0.0 | 2.0 | 0.00 | 0.00 | 0.00 | 92 | 1011.8 |
| 20260508051906 | 45 | 146 | 0.0 | 1.0 | 0.00 | 0.00 | 0.00 | 92 | 1011.8 |
| 20260508051757 | 45 | 146 | 0.0 | 1.0 | 0.00 | 0.00 | 0.00 | 92 | 1011.8 |
| 20260508051709 | 45 | 146 | 0.0 | 1.0 | 0.00 | 0.00 | 0.00 | 92 | 1011.8 |
| 20260508051601 | 45 | 146 | 0.0 | 1.0 | 0.00 | 0.00 | 0.00 | 92 | 1011.9 |
| 20260508051524 | 45 | 146 | 0.0 | 1.0 | 0.00 | 0.00 | 0.00 | 92 | 1011.9 |
| 20260508051413 | 45 | 146 | 0.0 | 1.0 | 0.00 | 0.00 | 0.00 | 92 | 1011.8 |
| 20260508051307 | 45 | 146 | 0.0 | 1.0 | 0.00 | 0.00 | 0.00 | 92 | 1011.8 |
| 20260508051220 | 45 | 146 | 0.0 | 1.0 | 0.00 | 0.00 | 0.00 | 92 | 1011.9 |
| 20260508051130 | 45 | 146 | 0.0 | 1.0 | 0.00 | 0.00 | 0.00 | 92 | 1011.8 |
| 20260508051001 | 45 | 146 | 0.0 | 1.0 | 0.00 | 0.00 | 0.00 | 92 | 1011.9 |
| 20260508050910 | 45 | 146 | 0.0 | 1.0 | 0.00 | 0.00 | 0.00 | 92 | 1011.8 |
| 20260508050802 | 45 | 146 | 0.0 | 0.0 | 0.00 | 0.00 | 0.00 | 92 | 1011.9 |
| 20260508050713 | 45 | 146 | 0.0 | 0.0 | 0.00 | 0.00 | 0.00 | 92 | 1011.9 |
| 20260508050606 | 45 | 146 | 0.0 | 0.0 | 0.00 | 0.00 | 0.00 | 91 | 1011.8 |
| 20260508050516 | 45 | 146 | 0.0 | 0.0 | 0.00 | 0.00 | 0.00 | 91 | 1011.9 |
| 20260508050410 | 45 | 146 | 0.0 | 0.0 | 0.00 | 0.00 | 0.00 | 91 | 1011.9 |
| 20260508050302 | 45 | 146 | 0.0 | 2.0 | 0.00 | 0.00 | 0.00 | 91 | 1011.9 |
| 20260508050213 | 45 | 146 | 0.0 | 2.0 | 0.00 | 0.00 | 0.00 | 91 | 1011.9 |
| 20260508050124 | 45 | 146 | 0.0 | 2.0 | 0.00 | 0.00 | 0.00 | 91 | 1011.9 |
| 20260508050026 | 45 | 146 | 0.0 | 2.0 | 0.00 | 0.00 | 0.00 | 91 | 1011.8 |
| 20260508045856 | 45 | 146 | 0.0 | 2.0 | 0.00 | 0.00 | 0.00 | 91 | 1011.9 |
| 20260508045808 | 45 | 146 | 0.0 | 2.0 | 0.00 | 0.00 | 0.00 | 91 | 1011.9 |
| 20260508045720 | 45 | 146 | 0.0 | 2.0 | 0.00 | 0.00 | 0.00 | 91 | 1012.0 |
| 20260508045610 | 45 | 146 | 0.0 | 2.0 | 0.00 | 0.00 | 0.00 | 91 | 1012.0 |
| 20260508045502 | 45 | 146 | 0.0 | 2.0 | 0.00 | 0.00 | 0.00 | 91 | 1011.9 |
| 20260508045356 | 45 | 146 | 0.0 | 2.0 | 0.00 | 0.00 | 0.00 | 91 | 1011.8 |
| 20260508045309 | 45 | 146 | 0.0 | 2.0 | 0.00 | 0.00 | 0.00 | 91 | 1011.8 |
| 20260508045200 | 45 | 146 | 1.0 | 2.0 | 0.00 | 0.00 | 0.00 | 91 | 1011.8 |
| 20260508045110 | 45 | 146 | 1.0 | 2.0 | 0.00 | 0.00 | 0.00 | 91 | 1011.8 |
| 20260508045001 | 45 | 146 | 1.0 | 2.0 | 0.00 | 0.00 | 0.00 | 91 | 1011.9 |
| 20260508044913 | 45 | 146 | 0.0 | 2.0 | 0.00 | 0.00 | 0.00 | 92 | 1011.9 |
| 20260508044803 | 45 | 146 | 0.0 | 2.0 | 0.00 | 0.00 | 0.00 | 92 | 1011.9 |
| 20260508044715 | 45 | 146 | 0.0 | 2.0 | 0.00 | 0.00 | 0.00 | 92 | 1011.9 |
| 20260508044609 | 45 | 146 | 0.0 | 2.0 | 0.00 | 0.00 | 0.00 | 91 | 1011.9 |
| 20260508044532 | 45 | 146 | 0.0 | 2.0 | 0.00 | 0.00 | 0.00 | 91 | 1011.8 |
| 20260508044402 | 45 | 146 | 1.0 | 2.0 | 0.00 | 0.00 | 0.00 | 91 | 1011.8 |
| 20260508044312 | 45 | 146 | 0.0 | 2.0 | 0.00 | 0.00 | 0.00 | 92 | 1011.8 |
| 20260508044203 | 45 | 146 | 0.0 | 2.0 | 0.00 | 0.00 | 0.00 | 92 | 1011.8 |
| 20260508044113 | 45 | 146 | 1.0 | 3.0 | 0.00 | 0.00 | 0.00 | 92 | 1011.8 |
| 20260508044004 | 45 | 146 | 0.0 | 3.0 | 0.00 | 0.00 | 0.00 | 92 | 1011.8 |
| 20260508043913 | 45 | 146 | 0.0 | 3.0 | 0.00 | 0.00 | 0.00 | 92 | 1011.7 |
| 20260508043803 | 45 | 146 | 0.0 | 3.0 | 0.00 | 0.00 | 0.00 | 92 | 1011.7 |
| 20260508043718 | 45 | 146 | 0.0 | 3.0 | 0.00 | 0.00 | 0.00 | 92 | 1011.8 |
| 20260508043606 | 45 | 146 | 0.0 | 3.0 | 0.00 | 0.00 | 0.00 | 92 | 1011.6 |
| 20260508043457 | 45 | 146 | 1.0 | 3.0 | 0.00 | 0.00 | 0.00 | 92 | 1011.7 |
| 20260508043408 | 45 | 146 | 1.0 | 3.0 | 0.00 | 0.00 | 0.00 | 91 | 1011.7 |
| 20260508043320 | 45 | 146 | 1.0 | 3.0 | 0.00 | 0.00 | 0.00 | 91 | 1011.8 |
| 20260508043229 | 45 | 146 | 1.0 | 4.0 | 0.00 | 0.00 | 0.00 | 91 | 1011.7 |
| 20260508043119 | 45 | 146 | 0.0 | 4.0 | 0.00 | 0.00 | 0.00 | 91 | 1011.7 |
| 20260508043042 | 45 | 146 | 0.0 | 4.0 | 0.00 | 0.00 | 0.00 | 91 | 1011.7 |
| 20260508042932 | 45 | 146 | 0.0 | 4.0 | 0.00 | 0.00 | 0.00 | 91 | 1011.7 |
| 20260508042803 | 45 | 146 | 0.0 | 4.0 | 0.00 | 0.00 | 0.00 | 91 | 1011.8 |
| 20260508042657 | 45 | 146 | 0.0 | 4.0 | 0.00 | 0.00 | 0.00 | 91 | 1011.6 |
| 20260508042609 | 45 | 146 | 1.0 | 4.0 | 0.00 | 0.00 | 0.00 | 91 | 1011.7 |
| 20260508042501 | 45 | 146 | 2.0 | 4.0 | 0.00 | 0.00 | 0.00 | 92 | 1011.6 |
| 20260508042411 | 45 | 146 | 1.0 | 4.0 | 0.00 | 0.00 | 0.00 | 92 | 1011.7 |
| 20260508042306 | 45 | 145 | 0.0 | 3.0 | 0.00 | 0.00 | 0.00 | 92 | 1011.7 |
| 20260508042213 | 45 | 145 | 1.0 | 3.0 | 0.00 | 0.00 | 0.00 | 92 | 1011.7 |
| 20260508042105 | 45 | 145 | 1.0 | 3.0 | 0.00 | 0.00 | 0.00 | 91 | 1011.7 |
| 20260508042016 | 45 | 145 | 1.0 | 3.0 | 0.00 | 0.00 | 0.00 | 91 | 1011.7 |
| 20260508041906 | 45 | 160 | 1.0 | 3.0 | 0.00 | 0.00 | 0.00 | 91 | 1011.8 |
| 20260508041800 | 45 | 160 | 1.0 | 4.0 | 0.00 | 0.00 | 0.00 | 91 | 1011.8 |
| 20260508041710 | 45 | 160 | 0.0 | 3.0 | 0.00 | 0.00 | 0.00 | 91 | 1011.7 |
| 20260508041601 | 45 | 160 | 1.0 | 3.0 | 0.00 | 0.00 | 0.00 | 91 | 1011.7 |
| 20260508041525 | 45 | 160 | 1.0 | 3.0 | 0.00 | 0.00 | 0.00 | 91 | 1011.8 |
| 20260508041415 | 45 | 160 | 1.0 | 3.0 | 0.00 | 0.00 | 0.00 | 92 | 1011.8 |
| 20260508041305 | 45 | 167 | 1.0 | 3.0 | 0.00 | 0.00 | 0.00 | 91 | 1011.7 |
| 20260508041157 | 45 | 173 | 1.0 | 3.0 | 0.00 | 0.00 | 0.00 | 91 | 1011.8 |
| 20260508041108 | 45 | 180 | 1.0 | 3.0 | 0.00 | 0.00 | 0.00 | 91 | 1011.7 |
| 20260508040958 | 45 | 183 | 1.0 | 3.0 | 0.00 | 0.00 | 0.00 | 91 | 1011.7 |
| 20260508040914 | 45 | 186 | 1.0 | 3.0 | 0.00 | 0.00 | 0.00 | 91 | 1011.8 |
| 20260508040803 | 45 | 169 | 1.0 | 3.0 | 0.00 | 0.00 | 0.00 | 91 | 1011.7 |
| 20260508040713 | 45 | 165 | 0.0 | 3.0 | 0.00 | 0.00 | 0.00 | 91 | 1011.8 |
| 20260508040605 | 45 | 165 | 1.0 | 3.0 | 0.00 | 0.00 | 0.00 | 91 | 1011.7 |
| 20260508040516 | 45 | 155 | 1.0 | 3.0 | 0.00 | 0.00 | 0.00 | 91 | 1011.8 |
| 20260508040407 | 45 | 176 | 0.0 | 3.0 | 0.00 | 0.00 | 0.00 | 91 | 1011.8 |
| 20260508040301 | 45 | 176 | 0.0 | 3.0 | 0.00 | 0.00 | 0.00 | 91 | 1011.7 |
| 20260508040210 | 45 | 176 | 0.0 | 3.0 | 0.00 | 0.00 | 0.00 | 91 | 1011.7 |
| 20260508040120 | 45 | 176 | 1.0 | 5.0 | 0.00 | 0.00 | 0.00 | 91 | 1011.7 |
| 20260508040046 | 45 | 176 | 1.0 | 5.0 | 0.00 | 0.00 | 0.00 | 91 | 1011.7 |
| 20260508035936 | 45 | 176 | 1.0 | 5.0 | 0.00 | 0.00 | 0.00 | 91 | 1011.7 |
| 20260508035759 | 45 | 153 | 1.0 | 5.0 | 0.00 | 0.00 | 0.00 | 91 | 1011.7 |
| 20260508035711 | 45 | 200 | 1.0 | 5.0 | 0.00 | 0.00 | 0.00 | 91 | 1011.7 |
| 20260508035621 | 45 | 162 | 1.0 | 5.0 | 0.00 | 0.00 | 0.00 | 91 | 1011.7 |
| 20260508035512 | 45 | 175 | 1.0 | 5.0 | 0.00 | 0.00 | 0.00 | 91 | 1011.7 |
| 20260508035402 | 45 | 159 | 1.0 | 5.0 | 0.00 | 0.00 | 0.00 | 91 | 1011.6 |
| 20260508035315 | 45 | 171 | 1.0 | 5.0 | 0.00 | 0.00 | 0.00 | 91 | 1011.7 |
| 20260508035204 | 45 | 182 | 1.0 | 3.0 | 0.00 | 0.00 | 0.00 | 91 | 1011.7 |
| 20260508035059 | 45 | 167 | 1.0 | 3.0 | 0.00 | 0.00 | 0.00 | 91 | 1011.7 |
| 20260508035011 | 45 | 188 | 1.0 | 3.0 | 0.00 | 0.00 | 0.00 | 91 | 1011.6 |
| 20260508034921 | 45 | 160 | 1.0 | 3.0 | 0.00 | 0.00 | 0.00 | 91 | 1011.6 |
| 20260508034831 | 45 | 216 | 1.0 | 3.0 | 0.00 | 0.00 | 0.00 | 91 | 1011.6 |
| 20260508034742 | 45 | 176 | 1.0 | 3.0 | 0.00 | 0.00 | 0.00 | 91 | 1011.7 |
| 20260508034633 | 45 | 176 | 1.0 | 3.0 | 0.00 | 0.00 | 0.00 | 91 | 1011.6 |
| 20260508034554 | 45 | 166 | 1.0 | 3.0 | 0.00 | 0.00 | 0.00 | 91 | 1011.6 |
| 20260508034444 | 45 | 167 | 1.0 | 4.0 | 0.00 | 0.00 | 0.00 | 91 | 1011.6 |
| 20260508034354 | 45 | 165 | 1.0 | 3.0 | 0.00 | 0.00 | 0.00 | 91 | 1011.6 |
| 20260508034244 | 45 | 165 | 1.0 | 3.0 | 0.00 | 0.00 | 0.00 | 91 | 1011.6 |
| 20260508034134 | 45 | 165 | 1.0 | 3.0 | 0.00 | 0.00 | 0.00 | 91 | 1011.7 |
| 20260508034003 | 45 | 175 | 1.0 | 3.0 | 0.00 | 0.00 | 0.00 | 91 | 1011.6 |
| 20260508033857 | 45 | 167 | 1.0 | 6.0 | 0.00 | 0.00 | 0.00 | 91 | 1011.6 |
| 20260508033808 | 45 | 188 | 1.0 | 6.0 | 0.00 | 0.00 | 0.00 | 91 | 1011.7 |
| 20260508033700 | 45 | 150 | 1.0 | 6.0 | 0.00 | 0.00 | 0.00 | 91 | 1011.6 |
| 20260508033611 | 45 | 150 | 1.0 | 6.0 | 0.00 | 0.00 | 0.00 | 91 | 1011.6 |
| 20260508033521 | 45 | 150 | 1.0 | 6.0 | 0.00 | 0.00 | 0.00 | 91 | 1011.7 |
| 20260508033431 | 45 | 149 | 1.0 | 6.0 | 0.00 | 0.00 | 0.00 | 91 | 1011.6 |
| 20260508033345 | 45 | 149 | 1.0 | 6.0 | 0.00 | 0.00 | 0.00 | 90 | 1011.7 |
| 20260508033234 | 45 | 172 | 1.0 | 6.0 | 0.00 | 0.00 | 0.00 | 91 | 1011.6 |
| 20260508033103 | 45 | 178 | 1.0 | 6.0 | 0.00 | 0.00 | 0.00 | 91 | 1011.6 |
| 20260508033024 | 45 | 155 | 1.0 | 6.0 | 0.00 | 0.00 | 0.00 | 90 | 1011.6 |
| 20260508032919 | 45 | 164 | 1.0 | 4.0 | 0.00 | 0.00 | 0.00 | 90 | 1011.6 |
| 20260508032808 | 45 | 164 | 2.0 | 4.0 | 0.00 | 0.00 | 0.00 | 90 | 1011.7 |
| 20260508032718 | 45 | 221 | 1.0 | 4.0 | 0.00 | 0.00 | 0.00 | 90 | 1011.6 |
| 20260508032628 | 45 | 146 | 1.0 | 5.0 | 0.00 | 0.00 | 0.00 | 90 | 1011.6 |
| 20260508032538 | 45 | 169 | 1.0 | 5.0 | 0.00 | 0.00 | 0.00 | 90 | 1011.7 |
| 20260508032407 | 45 | 154 | 1.0 | 5.0 | 0.00 | 0.00 | 0.00 | 90 | 1011.6 |
| 20260508032259 | 45 | 154 | 1.0 | 5.0 | 0.00 | 0.00 | 0.00 | 90 | 1011.7 |
| 20260508032210 | 45 | 154 | 1.0 | 5.0 | 0.00 | 0.00 | 0.00 | 90 | 1011.7 |
| 20260508032122 | 45 | 176 | 1.0 | 5.0 | 0.00 | 0.00 | 0.00 | 90 | 1011.6 |
| 20260508032032 | 45 | 171 | 1.0 | 5.0 | 0.00 | 0.00 | 0.00 | 90 | 1011.6 |
| 20260508031905 | 45 | 146 | 1.0 | 4.0 | 0.00 | 0.00 | 0.00 | 90 | 1011.6 |
| 20260508031817 | 45 | 144 | 2.0 | 4.0 | 0.00 | 0.00 | 0.00 | 90 | 1011.6 |
| 20260508031727 | 45 | 144 | 2.0 | 4.0 | 0.00 | 0.00 | 0.00 | 90 | 1011.4 |
| 20260508031638 | 45 | 144 | 2.0 | 4.0 | 0.00 | 0.00 | 0.00 | 90 | 1011.5 |
| 20260508031539 | 45 | 144 | 2.0 | 4.0 | 0.00 | 0.00 | 0.00 | 90 | 1011.6 |
| 20260508031405 | 45 | 143 | 3.0 | 5.0 | 0.00 | 0.00 | 0.00 | 90 | 1011.4 |
| 20260508031315 | 45 | 142 | 3.0 | 5.0 | 0.00 | 0.00 | 0.00 | 90 | 1011.5 |
| 20260508031206 | 45 | 142 | 2.0 | 5.0 | 0.00 | 0.00 | 0.00 | 90 | 1011.5 |
| 20260508031115 | 45 | 153 | 2.0 | 5.0 | 0.00 | 0.00 | 0.00 | 90 | 1011.5 |
| 20260508031027 | 45 | 142 | 1.0 | 5.0 | 0.00 | 0.00 | 0.00 | 90 | 1011.5 |
| 20260508030901 | 45 | 153 | 1.0 | 5.0 | 0.00 | 0.00 | 0.00 | 90 | 1011.6 |
| 20260508030811 | 45 | 153 | 2.0 | 5.0 | 0.00 | 0.00 | 0.00 | 90 | 1011.5 |
| 20260508030702 | 45 | 153 | 2.0 | 5.0 | 0.00 | 0.00 | 0.00 | 90 | 1011.6 |
| 20260508030614 | 45 | 155 | 2.0 | 5.0 | 0.00 | 0.00 | 0.00 | 90 | 1011.6 |
| 20260508030506 | 45 | 148 | 2.0 | 4.0 | 0.00 | 0.00 | 0.00 | 90 | 1011.5 |
| 20260508030417 | 46 | 148 | 1.0 | 4.0 | 0.00 | 0.00 | 0.00 | 90 | 1011.6 |
| 20260508030330 | 45 | 131 | 2.0 | 4.0 | 0.00 | 0.00 | 0.00 | 90 | 1011.5 |
| 20260508030217 | 46 | 131 | 1.0 | 5.0 | 0.00 | 0.00 | 0.00 | 90 | 1011.6 |
| 20260508030128 | 46 | 160 | 0.0 | 2.0 | 0.00 | 0.00 | 0.00 | 90 | 1011.6 |
| 20260508030028 | 46 | 160 | 0.0 | 2.0 | 0.00 | 0.00 | 0.00 | 90 | 1011.5 |
| 20260508025902 | 46 | 160 | 0.0 | 3.0 | 0.00 | 0.00 | 0.00 | 90 | 1011.7 |
| 20260508025812 | 46 | 160 | 1.0 | 3.0 | 0.00 | 0.00 | 0.00 | 90 | 1011.6 |
| 20260508025722 | 46 | 160 | 1.0 | 3.0 | 0.00 | 0.00 | 0.00 | 90 | 1011.6 |
| 20260508025612 | 46 | 161 | 1.0 | 3.0 | 0.00 | 0.00 | 0.00 | 90 | 1011.6 |
| 20260508025503 | 46 | 160 | 0.0 | 3.0 | 0.00 | 0.00 | 0.00 | 90 | 1011.6 |
| 20260508025414 | 46 | 160 | 1.0 | 3.0 | 0.00 | 0.00 | 0.00 | 90 | 1011.7 |
| 20260508025306 | 46 | 163 | 1.0 | 3.0 | 0.00 | 0.00 | 0.00 | 90 | 1011.7 |
| 20260508025216 | 46 | 155 | 1.0 | 3.0 | 0.00 | 0.00 | 0.00 | 90 | 1011.7 |
| 20260508025106 | 46 | 155 | 1.0 | 3.0 | 0.00 | 0.00 | 0.00 | 90 | 1011.6 |
| 20260508025001 | 46 | 155 | 0.0 | 3.0 | 0.00 | 0.00 | 0.00 | 89 | 1011.6 |
| 20260508024911 | 46 | 155 | 0.0 | 2.0 | 0.00 | 0.00 | 0.00 | 89 | 1011.6 |
| 20260508024823 | 46 | 155 | 0.0 | 2.0 | 0.00 | 0.00 | 0.00 | 89 | 1011.6 |
| 20260508024735 | 46 | 155 | 0.0 | 3.0 | 0.00 | 0.00 | 0.00 | 89 | 1011.7 |
| 20260508024617 | 46 | 155 | 0.0 | 3.0 | 0.00 | 0.00 | 0.00 | 89 | 1011.6 |
| 20260508024518 | 46 | 155 | 0.0 | 3.0 | 0.00 | 0.00 | 0.00 | 89 | 1011.6 |
| 20260508024409 | 46 | 155 | 0.0 | 3.0 | 0.00 | 0.00 | 0.00 | 89 | 1011.6 |
| 20260508024259 | 46 | 155 | 0.0 | 3.0 | 0.00 | 0.00 | 0.00 | 89 | 1011.6 |
| 20260508024212 | 46 | 155 | 0.0 | 3.0 | 0.00 | 0.00 | 0.00 | 89 | 1011.6 |
| 20260508024103 | 46 | 155 | 1.0 | 3.0 | 0.00 | 0.00 | 0.00 | 89 | 1011.7 |
| 20260508024016 | 46 | 155 | 1.0 | 3.0 | 0.00 | 0.00 | 0.00 | 89 | 1011.6 |
| 20260508023907 | 46 | 155 | 0.0 | 3.0 | 0.00 | 0.00 | 0.00 | 89 | 1011.6 |
| 20260508023817 | 46 | 155 | 1.0 | 5.0 | 0.00 | 0.00 | 0.00 | 89 | 1011.6 |
| 20260508023706 | 46 | 155 | 1.0 | 5.0 | 0.00 | 0.00 | 0.00 | 89 | 1011.6 |
| 20260508023559 | 46 | 155 | 0.0 | 5.0 | 0.00 | 0.00 | 0.00 | 89 | 1011.6 |
| 20260508023510 | 46 | 155 | 0.0 | 5.0 | 0.00 | 0.00 | 0.00 | 89 | 1011.6 |
| 20260508023401 | 46 | 155 | 1.0 | 5.0 | 0.00 | 0.00 | 0.00 | 89 | 1011.5 |
| 20260508023314 | 46 | 155 | 1.0 | 5.0 | 0.00 | 0.00 | 0.00 | 89 | 1011.6 |
| 20260508023208 | 46 | 155 | 1.0 | 5.0 | 0.00 | 0.00 | 0.00 | 89 | 1011.5 |
| 20260508023119 | 46 | 155 | 1.0 | 5.0 | 0.00 | 0.00 | 0.00 | 89 | 1011.6 |
| 20260508023041 | 46 | 155 | 1.0 | 5.0 | 0.00 | 0.00 | 0.00 | 89 | 1011.6 |
| 20260508022931 | 46 | 155 | 0.0 | 2.0 | 0.00 | 0.00 | 0.00 | 89 | 1011.6 |
| 20260508022801 | 46 | 155 | 1.0 | 2.0 | 0.00 | 0.00 | 0.00 | 89 | 1011.5 |
| 20260508022710 | 46 | 155 | 1.0 | 2.0 | 0.00 | 0.00 | 0.00 | 89 | 1011.5 |
| 20260508022620 | 46 | 155 | 0.0 | 2.0 | 0.00 | 0.00 | 0.00 | 88 | 1011.5 |
| 20260508022511 | 46 | 155 | 0.0 | 2.0 | 0.00 | 0.00 | 0.00 | 88 | 1011.6 |
| 20260508022401 | 46 | 155 | 0.0 | 2.0 | 0.00 | 0.00 | 0.00 | 88 | 1011.6 |
| 20260508022311 | 46 | 155 | 0.0 | 2.0 | 0.00 | 0.00 | 0.00 | 88 | 1011.5 |
| 20260508022221 | 46 | 155 | 0.0 | 2.0 | 0.00 | 0.00 | 0.00 | 88 | 1011.4 |
| 20260508022136 | 46 | 155 | 1.0 | 2.0 | 0.00 | 0.00 | 0.00 | 88 | 1011.4 |
| 20260508022008 | 46 | 155 | 1.0 | 3.0 | 0.00 | 0.00 | 0.00 | 88 | 1011.5 |
| 20260508021918 | 46 | 155 | 1.0 | 3.0 | 0.00 | 0.00 | 0.00 | 88 | 1011.5 |
| 20260508021808 | 46 | 155 | 1.0 | 3.0 | 0.00 | 0.00 | 0.00 | 88 | 1011.4 |
| 20260508021719 | 46 | 155 | 1.0 | 3.0 | 0.00 | 0.00 | 0.00 | 88 | 1011.4 |
| 20260508021631 | 46 | 155 | 0.0 | 5.0 | 0.00 | 0.00 | 0.00 | 88 | 1011.5 |
| 20260508021532 | 46 | 155 | 0.0 | 5.0 | 0.00 | 0.00 | 0.00 | 88 | 1011.3 |
| 20260508021423 | 46 | 155 | 0.0 | 5.0 | 0.00 | 0.00 | 0.00 | 88 | 1011.4 |
| 20260508021334 | 46 | 155 | 1.0 | 5.0 | 0.00 | 0.00 | 0.00 | 88 | 1011.4 |
| 20260508021204 | 47 | 155 | 1.0 | 5.0 | 0.00 | 0.00 | 0.00 | 88 | 1011.4 |
| 20260508021058 | 47 | 148 | 0.0 | 5.0 | 0.00 | 0.00 | 0.00 | 88 | 1011.3 |
| 20260508021008 | 47 | 148 | 0.0 | 5.0 | 0.00 | 0.00 | 0.00 | 88 | 1011.3 |
| 20260508020900 | 47 | 148 | 1.0 | 5.0 | 0.00 | 0.00 | 0.00 | 88 | 1011.3 |
| 20260508020812 | 47 | 148 | 1.0 | 5.0 | 0.00 | 0.00 | 0.00 | 88 | 1011.2 |
| 20260508020704 | 47 | 157 | 1.0 | 4.0 | 0.00 | 0.00 | 0.00 | 88 | 1011.3 |
| 20260508020614 | 47 | 157 | 2.0 | 4.0 | 0.00 | 0.00 | 0.00 | 88 | 1011.2 |
| 20260508020507 | 47 | 139 | 2.0 | 5.0 | 0.00 | 0.00 | 0.00 | 88 | 1011.4 |
| 20260508020357 | 47 | 168 | 2.0 | 4.0 | 0.00 | 0.00 | 0.00 | 88 | 1011.3 |
| 20260508020310 | 47 | 168 | 1.0 | 3.0 | 0.00 | 0.00 | 0.00 | 88 | 1011.3 |
| 20260508020223 | 47 | 168 | 1.0 | 3.0 | 0.00 | 0.00 | 0.00 | 88 | 1011.3 |
| 20260508020133 | 47 | 168 | 0.0 | 3.0 | 0.00 | 0.00 | 0.00 | 88 | 1011.3 |
| 20260508020055 | 47 | 168 | 0.0 | 3.0 | 0.00 | 0.00 | 0.00 | 88 | 1011.3 |
| 20260508015924 | 47 | 168 | 1.0 | 3.0 | 0.00 | 0.00 | 0.00 | 88 | 1011.3 |
| 20260508015835 | 47 | 168 | 1.0 | 3.0 | 0.00 | 0.00 | 0.00 | 88 | 1011.3 |
| 20260508015742 | 47 | 168 | 1.0 | 5.0 | 0.00 | 0.00 | 0.00 | 88 | 1011.4 |
| 20260508015632 | 47 | 168 | 1.0 | 5.0 | 0.00 | 0.00 | 0.00 | 88 | 1011.4 |
| 20260508015503 | 47 | 168 | 1.0 | 5.0 | 0.00 | 0.00 | 0.00 | 88 | 1011.3 |
| 20260508015413 | 47 | 168 | 1.0 | 5.0 | 0.00 | 0.00 | 0.00 | 88 | 1011.5 |
| 20260508015306 | 47 | 168 | 1.0 | 5.0 | 0.00 | 0.00 | 0.00 | 88 | 1011.4 |
| 20260508015158 | 47 | 168 | 1.0 | 5.0 | 0.00 | 0.00 | 0.00 | 88 | 1011.4 |
| 20260508015109 | 47 | 168 | 1.0 | 5.0 | 0.00 | 0.00 | 0.00 | 88 | 1011.4 |
| 20260508015021 | 47 | 168 | 2.0 | 5.0 | 0.00 | 0.00 | 0.00 | 88 | 1011.3 |
| 20260508014932 | 47 | 168 | 2.0 | 5.0 | 0.00 | 0.00 | 0.00 | 88 | 1011.4 |
| 20260508014803 | 47 | 168 | 2.0 | 5.0 | 0.00 | 0.00 | 0.00 | 88 | 1011.4 |
| 20260508014713 | 47 | 168 | 2.0 | 4.0 | 0.00 | 0.00 | 0.00 | 88 | 1011.4 |
| 20260508014605 | 47 | 168 | 1.0 | 3.0 | 0.00 | 0.00 | 0.00 | 88 | 1011.4 |
| 20260508014527 | 47 | 168 | 0.0 | 4.0 | 0.00 | 0.00 | 0.00 | 87 | 1011.3 |
| 20260508014356 | 47 | 168 | 0.0 | 3.0 | 0.00 | 0.00 | 0.00 | 87 | 1011.3 |
| 20260508014306 | 47 | 168 | 0.0 | 3.0 | 0.00 | 0.00 | 0.00 | 87 | 1011.3 |
| 20260508014221 | 47 | 168 | 0.0 | 3.0 | 0.00 | 0.00 | 0.00 | 87 | 1011.4 |
| 20260508014132 | 47 | 168 | 0.0 | 3.0 | 0.00 | 0.00 | 0.00 | 87 | 1011.4 |
| 20260508014001 | 47 | 168 | 0.0 | 3.0 | 0.00 | 0.00 | 0.00 | 87 | 1011.3 |
| 20260508013913 | 47 | 168 | 1.0 | 3.0 | 0.00 | 0.00 | 0.00 | 87 | 1011.3 |
| 20260508013823 | 47 | 168 | 1.0 | 3.0 | 0.00 | 0.00 | 0.00 | 87 | 1011.4 |
| 20260508013713 | 47 | 168 | 1.0 | 4.0 | 0.00 | 0.00 | 0.00 | 87 | 1011.4 |
| 20260508013626 | 47 | 168 | 1.0 | 3.0 | 0.00 | 0.00 | 0.00 | 87 | 1011.4 |
| 20260508013515 | 47 | 168 | 1.0 | 3.0 | 0.00 | 0.00 | 0.00 | 87 | 1011.5 |
| 20260508013405 | 47 | 168 | 1.0 | 4.0 | 0.00 | 0.00 | 0.00 | 87 | 1011.4 |
| 20260508013318 | 47 | 168 | 1.0 | 2.0 | 0.00 | 0.00 | 0.00 | 87 | 1011.4 |
| 20260508013206 | 47 | 168 | 1.0 | 2.0 | 0.00 | 0.00 | 0.00 | 87 | 1011.4 |
| 20260508013117 | 47 | 168 | 0.0 | 2.0 | 0.00 | 0.00 | 0.00 | 87 | 1011.4 |
| 20260508013039 | 47 | 168 | 1.0 | 2.0 | 0.00 | 0.00 | 0.00 | 87 | 1011.3 |
| 20260508012929 | 47 | 168 | 1.0 | 2.0 | 0.00 | 0.00 | 0.00 | 87 | 1011.3 |
| 20260508012818 | 47 | 174 | 1.0 | 2.0 | 0.00 | 0.00 | 0.00 | 87 | 1011.3 |
| 20260508012729 | 47 | 167 | 0.0 | 2.0 | 0.00 | 0.00 | 0.00 | 87 | 1011.5 |
| 20260508012620 | 47 | 254 | 0.0 | 2.0 | 0.00 | 0.00 | 0.00 | 87 | 1011.4 |
| 20260508012531 | 47 | 254 | 0.0 | 2.0 | 0.00 | 0.00 | 0.00 | 87 | 1011.3 |
| 20260508012420 | 47 | 168 | 0.0 | 2.0 | 0.00 | 0.00 | 0.00 | 87 | 1011.3 |
| 20260508012330 | 48 | 168 | 0.0 | 2.0 | 0.00 | 0.00 | 0.00 | 87 | 1011.3 |
| 20260508012219 | 48 | 183 | 0.0 | 2.0 | 0.00 | 0.00 | 0.00 | 87 | 1011.3 |
| 20260508012109 | 48 | 164 | 0.0 | 2.0 | 0.00 | 0.00 | 0.00 | 87 | 1011.3 |
| 20260508012004 | 48 | 223 | 0.0 | 2.0 | 0.00 | 0.00 | 0.00 | 86 | 1011.4 |
| 20260508011914 | 48 | 153 | 0.0 | 2.0 | 0.00 | 0.00 | 0.00 | 86 | 1011.3 |
| 20260508011825 | 48 | 153 | 0.0 | 3.0 | 0.00 | 0.00 | 0.00 | 86 | 1011.2 |
| 20260508011716 | 48 | 134 | 0.0 | 4.0 | 0.00 | 0.00 | 0.00 | 86 | 1011.3 |
| 20260508011605 | 48 | 217 | 0.0 | 4.0 | 0.00 | 0.00 | 0.00 | 86 | 1011.4 |
| 20260508011528 | 48 | 217 | 0.0 | 4.0 | 0.00 | 0.00 | 0.00 | 86 | 1011.3 |
| 20260508011357 | 48 | 204 | 0.0 | 4.0 | 0.00 | 0.00 | 0.00 | 86 | 1011.3 |
| 20260508011308 | 48 | 204 | 0.0 | 4.0 | 0.00 | 0.00 | 0.00 | 86 | 1011.3 |
| 20260508011159 | 48 | 5 | 0.0 | 4.0 | 0.00 | 0.00 | 0.00 | 86 | 1011.3 |
| 20260508011110 | 48 | 54 | 1.0 | 4.0 | 0.00 | 0.00 | 0.00 | 86 | 1011.4 |
| 20260508011005 | 48 | 12 | 2.0 | 4.0 | 0.00 | 0.00 | 0.00 | 86 | 1011.4 |
| 20260508010857 | 48 | 146 | 1.0 | 4.0 | 0.00 | 0.00 | 0.00 | 86 | 1011.3 |
| 20260508010809 | 48 | 217 | 1.0 | 3.0 | 0.00 | 0.00 | 0.00 | 85 | 1011.3 |
| 20260508010700 | 48 | 231 | 1.0 | 3.0 | 0.00 | 0.00 | 0.00 | 85 | 1011.4 |
| 20260508010611 | 48 | 231 | 1.0 | 3.0 | 0.00 | 0.00 | 0.00 | 85 | 1011.3 |
| 20260508010501 | 49 | 247 | 1.0 | 3.0 | 0.00 | 0.00 | 0.00 | 85 | 1011.3 |
| 20260508010411 | 49 | 221 | 1.0 | 3.0 | 0.00 | 0.00 | 0.00 | 84 | 1011.3 |
| 20260508010303 | 49 | 132 | 0.0 | 3.0 | 0.00 | 0.00 | 0.00 | 84 | 1011.3 |
| 20260508010156 | 49 | 180 | 0.0 | 3.0 | 0.00 | 0.00 | 0.00 | 84 | 1011.3 |
| 20260508010107 | 49 | 145 | 1.0 | 3.0 | 0.00 | 0.00 | 0.00 | 83 | 1011.3 |
| 20260508010030 | 49 | 187 | 1.0 | 3.0 | 0.00 | 0.00 | 0.00 | 83 | 1011.3 |
| 20260508005919 | 49 | 137 | 1.0 | 3.0 | 0.00 | 0.00 | 0.00 | 83 | 1011.2 |
| 20260508005829 | 49 | 187 | 0.0 | 3.0 | 0.00 | 0.00 | 0.00 | 83 | 1011.3 |
| 20260508005700 | 49 | 171 | 0.0 | 3.0 | 0.00 | 0.00 | 0.00 | 82 | 1011.3 |
| 20260508005611 | 49 | 152 | 1.0 | 3.0 | 0.00 | 0.00 | 0.00 | 82 | 1011.3 |
| 20260508005521 | 49 | 192 | 1.0 | 3.0 | 0.00 | 0.00 | 0.00 | 82 | 1011.2 |
| 20260508005411 | 50 | 179 | 1.0 | 3.0 | 0.00 | 0.00 | 0.00 | 81 | 1011.3 |
| 20260508005305 | 50 | 211 | 1.0 | 3.0 | 0.00 | 0.00 | 0.00 | 81 | 1011.3 |
| 20260508005157 | 50 | 192 | 1.0 | 3.0 | 0.00 | 0.00 | 0.00 | 81 | 1011.2 |
| 20260508005108 | 50 | 120 | 1.0 | 3.0 | 0.00 | 0.00 | 0.00 | 80 | 1011.2 |
| 20260508004929 | 50 | 133 | 1.0 | 3.0 | 0.00 | 0.00 | 0.00 | 80 | 1011.3 |
| 20260508004839 | 50 | 196 | 1.0 | 4.0 | 0.00 | 0.00 | 0.00 | 79 | 1011.2 |
| 20260508004730 | 50 | 167 | 1.0 | 4.0 | 0.00 | 0.00 | 0.00 | 79 | 1011.3 |
| 20260508004559 | 50 | 177 | 1.0 | 4.0 | 0.00 | 0.00 | 0.00 | 79 | 1011.3 |
| 20260508004521 | 50 | 198 | 1.0 | 4.0 | 0.00 | 0.00 | 0.00 | 79 | 1011.4 |
| 20260508004412 | 51 | 163 | 0.0 | 4.0 | 0.00 | 0.00 | 0.00 | 78 | 1011.4 |
| 20260508004322 | 51 | 163 | 1.0 | 4.0 | 0.00 | 0.00 | 0.00 | 78 | 1011.3 |
| 20260508004212 | 51 | 163 | 1.0 | 4.0 | 0.00 | 0.00 | 0.00 | 78 | 1011.3 |
| 20260508004107 | 51 | 182 | 1.0 | 4.0 | 0.00 | 0.00 | 0.00 | 77 | 1011.4 |
| 20260508004017 | 51 | 176 | 1.0 | 4.0 | 0.00 | 0.00 | 0.00 | 77 | 1011.3 |
| 20260508003928 | 51 | 221 | 0.0 | 2.0 | 0.00 | 0.00 | 0.00 | 76 | 1011.4 |
| 20260508003819 | 51 | 172 | 1.0 | 2.0 | 0.00 | 0.00 | 0.00 | 76 | 1011.3 |
| 20260508003710 | 51 | 172 | 1.0 | 2.0 | 0.00 | 0.00 | 0.00 | 75 | 1011.3 |
| 20260508003601 | 51 | 182 | 1.0 | 2.0 | 0.00 | 0.00 | 0.00 | 75 | 1011.4 |
| 20260508003512 | 51 | 186 | 1.0 | 2.0 | 0.00 | 0.00 | 0.00 | 75 | 1011.3 |
| 20260508003401 | 51 | 161 | 0.0 | 2.0 | 0.00 | 0.00 | 0.00 | 75 | 1011.3 |
| 20260508003314 | 52 | 161 | 0.0 | 2.0 | 0.00 | 0.00 | 0.00 | 75 | 1011.3 |
| 20260508003224 | 52 | 168 | 0.0 | 2.0 | 0.00 | 0.00 | 0.00 | 74 | 1011.3 |
| 20260508003139 | 52 | 168 | 1.0 | 2.0 | 0.00 | 0.00 | 0.00 | 74 | 1011.3 |
| 20260508003040 | 52 | 168 | 1.0 | 2.0 | 0.00 | 0.00 | 0.00 | 74 | 1011.2 |
| 20260508002930 | 52 | 243 | 0.0 | 2.0 | 0.00 | 0.00 | 0.00 | 74 | 1011.3 |
| 20260508002821 | 52 | 243 | 0.0 | 2.0 | 0.00 | 0.00 | 0.00 | 74 | 1011.3 |
| 20260508002710 | 52 | 243 | 0.0 | 2.0 | 0.00 | 0.00 | 0.00 | 74 | 1011.3 |
| 20260508002620 | 52 | 243 | 0.0 | 2.0 | 0.00 | 0.00 | 0.00 | 74 | 1011.3 |
| 20260508002530 | 52 | 243 | 0.0 | 4.0 | 0.00 | 0.00 | 0.00 | 74 | 1011.3 |
| 20260508002421 | 52 | 243 | 0.0 | 4.0 | 0.00 | 0.00 | 0.00 | 74 | 1011.3 |
| 20260508002332 | 52 | 243 | 0.0 | 4.0 | 0.00 | 0.00 | 0.00 | 74 | 1011.3 |
| 20260508002200 | 52 | 243 | 1.0 | 5.0 | 0.00 | 0.00 | 0.00 | 74 | 1011.3 |
| 20260508002113 | 52 | 243 | 1.0 | 5.0 | 0.00 | 0.00 | 0.00 | 74 | 1011.3 |
| 20260508002007 | 51 | 243 | 0.0 | 5.0 | 0.00 | 0.00 | 0.00 | 74 | 1011.3 |
| 20260508001857 | 51 | 243 | 1.0 | 5.0 | 0.00 | 0.00 | 0.00 | 74 | 1011.3 |
| 20260508001809 | 51 | 229 | 2.0 | 5.0 | 0.00 | 0.00 | 0.00 | 73 | 1011.3 |
| 20260508001719 | 51 | 242 | 2.0 | 5.0 | 0.00 | 0.00 | 0.00 | 73 | 1011.5 |
| 20260508001631 | 51 | 254 | 2.0 | 5.0 | 0.00 | 0.00 | 0.00 | 73 | 1011.5 |
| 20260508001553 | 51 | 243 | 3.0 | 5.0 | 0.00 | 0.00 | 0.00 | 73 | 1011.4 |
| 20260508001401 | 51 | 239 | 4.0 | 5.0 | 0.00 | 0.00 | 0.00 | 73 | 1011.6 |
| 20260508001312 | 51 | 254 | 3.0 | 5.0 | 0.00 | 0.00 | 0.00 | 73 | 1011.4 |
| 20260508001204 | 51 | 224 | 3.0 | 4.0 | 0.00 | 0.00 | 0.00 | 72 | 1011.5 |
| 20260508001059 | 51 | 234 | 3.0 | 4.0 | 0.00 | 0.00 | 0.00 | 73 | 1011.4 |
| 20260508001011 | 51 | 238 | 2.0 | 5.0 | 0.00 | 0.00 | 0.00 | 73 | 1011.4 |
| 20260508000921 | 51 | 234 | 1.0 | 5.0 | 0.00 | 0.00 | 0.00 | 73 | 1011.4 |
| 20260508000832 | 51 | 269 | 0.0 | 5.0 | 0.00 | 0.00 | 0.00 | 73 | 1011.5 |
| 20260508000703 | 51 | 269 | 1.0 | 5.0 | 0.00 | 0.00 | 0.00 | 72 | 1011.4 |
| 20260508000615 | 51 | 221 | 1.0 | 5.0 | 0.00 | 0.00 | 0.00 | 72 | 1011.4 |
| 20260508000525 | 51 | 221 | 2.0 | 5.0 | 0.00 | 0.00 | 0.00 | 72 | 1011.3 |
| 20260508000415 | 51 | 241 | 3.0 | 5.0 | 0.00 | 0.00 | 0.00 | 71 | 1011.4 |
| 20260508000308 | 51 | 240 | 3.0 | 5.0 | 0.00 | 0.00 | 0.00 | 71 | 1011.4 |
| 20260508000158 | 51 | 247 | 3.0 | 5.0 | 0.00 | 0.00 | 0.00 | 71 | 1011.3 |
| 20260508000114 | 51 | 238 | 3.0 | 5.0 | 0.00 | 0.00 | 0.00 | 70 | 1011.4 |
| 20260508000038 | 52 | 228 | 3.0 | 5.0 | 0.00 | 0.00 | 0.00 | 70 | 1011.4 |
| 20260507235908 | 52 | 236 | 2.0 | 4.0 | 0.00 | 0.00 | 0.00 | 71 | 1011.3 |
| 20260507235818 | 52 | 219 | 2.0 | 3.0 | 0.00 | 0.00 | 0.00 | 71 | 1011.3 |
| 20260507235729 | 52 | 217 | 2.0 | 3.0 | 0.00 | 0.00 | 0.00 | 71 | 1011.3 |
| 20260507235640 | 52 | 229 | 2.0 | 4.0 | 0.00 | 0.00 | 0.00 | 70 | 1011.3 |
| 20260507235529 | 52 | 229 | 1.0 | 4.0 | 0.00 | 0.00 | 0.00 | 70 | 1011.2 |
| 20260507235442 | 52 | 229 | 1.0 | 4.0 | 0.00 | 0.00 | 0.00 | 70 | 1011.2 |
| 20260507235332 | 52 | 229 | 1.0 | 6.0 | 0.00 | 0.00 | 0.00 | 69 | 1011.3 |
| 20260507235244 | 52 | 229 | 2.0 | 6.0 | 0.00 | 0.00 | 0.00 | 69 | 1011.2 |
| 20260507235134 | 52 | 230 | 2.0 | 8.0 | 0.00 | 0.00 | 0.00 | 69 | 1011.3 |
| 20260507235008 | 52 | 232 | 2.0 | 8.0 | 0.00 | 0.00 | 0.00 | 69 | 1011.2 |
| 20260507234900 | 52 | 252 | 2.0 | 8.0 | 0.00 | 0.00 | 0.00 | 69 | 1011.3 |
| 20260507234811 | 52 | 238 | 2.0 | 8.0 | 0.00 | 0.00 | 0.00 | 68 | 1011.3 |
| 20260507234722 | 52 | 247 | 2.0 | 8.0 | 0.00 | 0.00 | 0.00 | 68 | 1011.3 |
| 20260507234633 | 52 | 250 | 2.0 | 8.0 | 0.00 | 0.00 | 0.00 | 67 | 1011.2 |
| 20260507234535 | 52 | 250 | 3.0 | 8.0 | 0.00 | 0.00 | 0.00 | 67 | 1011.2 |
| 20260507234405 | 52 | 227 | 3.0 | 8.0 | 0.00 | 0.00 | 0.00 | 67 | 1011.3 |
| 20260507234316 | 52 | 264 | 3.0 | 9.0 | 0.00 | 0.00 | 0.00 | 68 | 1011.2 |
| 20260507234206 | 52 | 253 | 5.0 | 9.0 | 0.00 | 0.00 | 0.00 | 68 | 1011.2 |
| 20260507234101 | 53 | 257 | 5.0 | 16.0 | 0.00 | 0.00 | 0.00 | 68 | 1011.2 |
| 20260507234013 | 53 | 267 | 3.0 | 16.0 | 0.00 | 0.00 | 0.00 | 69 | 1011.2 |
| 20260507233905 | 53 | 243 | 2.0 | 16.0 | 0.00 | 0.00 | 0.00 | 69 | 1011.3 |
| 20260507233816 | 53 | 248 | 3.0 | 16.0 | 0.00 | 0.00 | 0.00 | 70 | 1011.3 |
| 20260507233708 | 53 | 325 | 3.0 | 16.0 | 0.00 | 0.00 | 0.00 | 69 | 1011.2 |
| 20260507233620 | 53 | 303 | 3.0 | 16.0 | 0.00 | 0.00 | 0.00 | 70 | 1011.3 |
| 20260507233512 | 53 | 238 | 3.0 | 16.0 | 0.00 | 0.00 | 0.00 | 70 | 1011.3 |
| 20260507233402 | 54 | 262 | 9.0 | 16.0 | 0.00 | 0.00 | 0.00 | 69 | 1011.3 |
| 20260507233316 | 54 | 283 | 9.0 | 15.0 | 0.00 | 0.00 | 0.00 | 68 | 1011.3 |
| 20260507233225 | 54 | 285 | 4.0 | 10.0 | 0.00 | 0.00 | 0.00 | 69 | 1011.3 |
| 20260507233058 | 54 | 265 | 3.0 | 8.0 | 0.00 | 0.00 | 0.00 | 69 | 1011.3 |
| 20260507233022 | 54 | 319 | 2.0 | 8.0 | 0.00 | 0.00 | 0.00 | 69 | 1011.3 |
| 20260507232913 | 54 | 289 | 2.0 | 8.0 | 0.00 | 0.00 | 0.00 | 67 | 1011.2 |
| 20260507232803 | 54 | 289 | 4.0 | 8.0 | 0.00 | 0.00 | 0.00 | 67 | 1011.2 |
| 20260507232715 | 54 | 249 | 4.0 | 8.0 | 0.00 | 0.00 | 0.00 | 67 | 1011.3 |
| 20260507232605 | 54 | 285 | 4.0 | 8.0 | 0.00 | 0.00 | 0.00 | 67 | 1011.2 |
| 20260507232458 | 54 | 297 | 4.0 | 8.0 | 0.00 | 0.00 | 0.00 | 67 | 1011.3 |
| 20260507232409 | 54 | 286 | 4.0 | 8.0 | 0.00 | 0.00 | 0.00 | 67 | 1011.2 |
| 20260507232306 | 54 | 319 | 3.0 | 8.0 | 0.00 | 0.00 | 0.00 | 66 | 1011.2 |
| 20260507232215 | 54 | 263 | 2.0 | 8.0 | 0.00 | 0.00 | 0.00 | 66 | 1011.2 |
| 20260507232106 | 54 | 289 | 3.0 | 8.0 | 0.00 | 0.00 | 0.00 | 66 | 1011.2 |
| 20260507232016 | 54 | 254 | 3.0 | 8.0 | 0.00 | 0.00 | 0.00 | 66 | 1011.2 |
| 20260507231907 | 54 | 285 | 2.0 | 8.0 | 0.00 | 0.00 | 0.00 | 66 | 1011.2 |
| 20260507231757 | 54 | 288 | 4.0 | 8.0 | 0.00 | 0.00 | 0.00 | 65 | 1011.2 |
| 20260507231709 | 54 | 288 | 4.0 | 8.0 | 0.00 | 0.00 | 0.00 | 65 | 1011.2 |
| 20260507231619 | 54 | 236 | 4.0 | 8.0 | 0.00 | 0.00 | 0.00 | 65 | 1011.2 |
| 20260507231521 | 54 | 299 | 3.0 | 8.0 | 0.00 | 0.00 | 0.00 | 66 | 1011.2 |
| 20260507231410 | 54 | 277 | 1.0 | 8.0 | 0.00 | 0.00 | 0.00 | 65 | 1011.1 |
| 20260507231324 | 54 | 262 | 1.0 | 8.0 | 0.00 | 0.00 | 0.00 | 66 | 1011.3 |
| 20260507231235 | 54 | 262 | 2.0 | 8.0 | 0.00 | 0.00 | 0.00 | 65 | 1011.2 |
| 20260507231104 | 54 | 262 | 3.0 | 8.0 | 0.00 | 0.00 | 0.00 | 65 | 1011.2 |
| 20260507231014 | 54 | 277 | 3.0 | 8.0 | 0.00 | 0.00 | 0.00 | 65 | 1011.1 |
| 20260507230904 | 54 | 262 | 4.0 | 8.0 | 0.00 | 0.00 | 0.00 | 64 | 1011.2 |
| 20260507230814 | 54 | 296 | 3.0 | 8.0 | 0.00 | 0.00 | 0.00 | 65 | 1011.2 |
| 20260507230725 | 54 | 271 | 3.0 | 8.0 | 0.00 | 0.00 | 0.00 | 65 | 1011.3 |
| 20260507230636 | 54 | 283 | 3.0 | 6.0 | 0.00 | 0.00 | 0.00 | 65 | 1011.2 |
| 20260507230502 | 54 | 256 | 2.0 | 8.0 | 0.00 | 0.00 | 0.00 | 65 | 1011.1 |
| 20260507230412 | 54 | 254 | 2.0 | 8.0 | 0.00 | 0.00 | 0.00 | 65 | 1011.2 |
| 20260507230308 | 54 | 242 | 2.0 | 8.0 | 0.00 | 0.00 | 0.00 | 65 | 1011.2 |
| 20260507230219 | 54 | 231 | 1.0 | 8.0 | 0.00 | 0.00 | 0.00 | 65 | 1011.2 |
| 20260507230130 | 54 | 296 | 2.0 | 8.0 | 0.00 | 0.00 | 0.00 | 65 | 1011.3 |
| 20260507230031 | 54 | 277 | 2.0 | 8.0 | 0.00 | 0.00 | 0.00 | 65 | 1011.2 |
| 20260507225900 | 54 | 281 | 4.0 | 8.0 | 0.00 | 0.00 | 0.00 | 64 | 1011.2 |
| 20260507225812 | 54 | 297 | 4.0 | 8.0 | 0.00 | 0.00 | 0.00 | 64 | 1011.2 |
| 20260507225702 | 55 | 309 | 3.0 | 8.0 | 0.00 | 0.00 | 0.00 | 64 | 1011.2 |
| 20260507225613 | 54 | 271 | 2.0 | 8.0 | 0.00 | 0.00 | 0.00 | 64 | 1011.3 |
| 20260507225503 | 55 | 273 | 3.0 | 8.0 | 0.00 | 0.00 | 0.00 | 63 | 1011.3 |
| 20260507225359 | 54 | 227 | 4.0 | 13.0 | 0.00 | 0.00 | 0.00 | 63 | 1011.3 |
| 20260507225308 | 55 | 244 | 4.0 | 13.0 | 0.00 | 0.00 | 0.00 | 63 | 1011.3 |
| 20260507225219 | 55 | 257 | 3.0 | 13.0 | 0.00 | 0.00 | 0.00 | 63 | 1011.4 |
| 20260507225129 | 55 | 308 | 3.0 | 13.0 | 0.00 | 0.00 | 0.00 | 63 | 1011.4 |
| 20260507224959 | 55 | 271 | 4.0 | 13.0 | 0.00 | 0.00 | 0.00 | 63 | 1011.5 |
| 20260507224910 | 55 | 254 | 4.0 | 13.0 | 0.00 | 0.00 | 0.00 | 63 | 1011.4 |
| 20260507224802 | 55 | 277 | 5.0 | 13.0 | 0.00 | 0.00 | 0.00 | 63 | 1011.5 |
| 20260507224713 | 55 | 260 | 5.0 | 13.0 | 0.00 | 0.00 | 0.00 | 62 | 1011.6 |
| 20260507224604 | 55 | 254 | 5.0 | 12.0 | 0.00 | 0.00 | 0.00 | 62 | 1011.5 |
| 20260507224531 | 55 | 267 | 5.0 | 12.0 | 0.00 | 0.00 | 0.00 | 62 | 1011.7 |
| 20260507224401 | 55 | 252 | 6.0 | 16.0 | 0.00 | 0.00 | 0.00 | 62 | 1011.6 |
| 20260507224311 | 55 | 286 | 5.0 | 16.0 | 0.00 | 0.00 | 0.00 | 62 | 1011.6 |
| 20260507224202 | 55 | 259 | 4.0 | 16.0 | 0.00 | 0.00 | 0.00 | 62 | 1011.6 |
| 20260507224112 | 55 | 276 | 5.0 | 16.0 | 0.00 | 0.00 | 0.00 | 61 | 1011.6 |
| 20260507224003 | 55 | 277 | 6.0 | 16.0 | 0.00 | 0.00 | 0.00 | 61 | 1011.6 |
| 20260507223915 | 55 | 296 | 7.0 | 16.0 | 0.00 | 0.00 | 0.00 | 61 | 1011.6 |
| 20260507223806 | 55 | 254 | 7.0 | 16.0 | 0.00 | 0.00 | 0.00 | 61 | 1011.6 |
| 20260507223701 | 55 | 304 | 7.0 | 16.0 | 0.00 | 0.00 | 0.00 | 61 | 1011.6 |
| 20260507223611 | 55 | 262 | 7.0 | 16.0 | 0.00 | 0.00 | 0.00 | 61 | 1011.4 |
| 20260507223503 | 55 | 286 | 6.0 | 14.0 | 0.00 | 0.00 | 0.00 | 61 | 1011.5 |
| 20260507223413 | 55 | 263 | 6.0 | 14.0 | 0.00 | 0.00 | 0.00 | 61 | 1011.5 |
| 20260507223307 | 55 | 267 | 7.0 | 14.0 | 0.00 | 0.00 | 0.00 | 61 | 1011.5 |
| 20260507223216 | 55 | 286 | 7.0 | 14.0 | 0.00 | 0.00 | 0.00 | 61 | 1011.6 |
| 20260507223107 | 55 | 284 | 6.0 | 14.0 | 0.00 | 0.00 | 0.00 | 61 | 1011.4 |
| 20260507223030 | 55 | 277 | 6.0 | 14.0 | 0.00 | 0.00 | 0.00 | 61 | 1011.6 |
| 20260507222920 | 55 | 256 | 5.0 | 14.0 | 0.00 | 0.00 | 0.00 | 62 | 1011.6 |
| 20260507222809 | 55 | 245 | 5.0 | 14.0 | 0.00 | 0.00 | 0.00 | 62 | 1011.5 |
| 20260507222704 | 55 | 326 | 6.0 | 14.0 | 0.00 | 0.00 | 0.00 | 61 | 1011.5 |
| 20260507222615 | 56 | 261 | 6.0 | 14.0 | 0.00 | 0.00 | 0.00 | 61 | 1011.4 |
| 20260507222506 | 56 | 239 | 4.0 | 14.0 | 0.00 | 0.00 | 0.00 | 62 | 1011.5 |
| 20260507222417 | 56 | 284 | 4.0 | 14.0 | 0.00 | 0.00 | 0.00 | 61 | 1011.4 |
| 20260507222307 | 56 | 282 | 5.0 | 16.0 | 0.00 | 0.00 | 0.00 | 60 | 1011.4 |
| 20260507222157 | 56 | 261 | 6.0 | 16.0 | 0.00 | 0.00 | 0.00 | 60 | 1011.4 |
| 20260507222108 | 56 | 237 | 6.0 | 16.0 | 0.00 | 0.00 | 0.00 | 60 | 1011.4 |
| 20260507221958 | 56 | 231 | 6.0 | 16.0 | 0.00 | 0.00 | 0.00 | 60 | 1011.3 |
| 20260507221914 | 56 | 254 | 6.0 | 16.0 | 0.00 | 0.00 | 0.00 | 60 | 1011.3 |
| 20260507221825 | 56 | 241 | 6.0 | 16.0 | 0.00 | 0.00 | 0.00 | 61 | 1011.4 |
| 20260507221715 | 56 | 236 | 6.0 | 16.0 | 0.00 | 0.00 | 0.00 | 60 | 1011.3 |
| 20260507221625 | 56 | 273 | 7.0 | 16.0 | 0.00 | 0.00 | 0.00 | 60 | 1011.3 |
| 20260507221547 | 56 | 249 | 7.0 | 16.0 | 0.00 | 0.00 | 0.00 | 61 | 1011.3 |
| 20260507221437 | 56 | 267 | 4.0 | 15.0 | 0.00 | 0.00 | 0.00 | 60 | 1011.2 |
| 20260507221307 | 56 | 246 | 4.0 | 15.0 | 0.00 | 0.00 | 0.00 | 60 | 1011.2 |
| 20260507221157 | 56 | 261 | 3.0 | 16.0 | 0.00 | 0.00 | 0.00 | 60 | 1011.2 |
| 20260507221109 | 56 | 284 | 5.0 | 16.0 | 0.00 | 0.00 | 0.00 | 60 | 1011.1 |
| 20260507221000 | 56 | 263 | 5.0 | 16.0 | 0.00 | 0.00 | 0.00 | 59 | 1011.2 |
| 20260507220913 | 56 | 244 | 5.0 | 16.0 | 0.00 | 0.00 | 0.00 | 60 | 1011.2 |
| 20260507220804 | 56 | 267 | 8.0 | 16.0 | 0.00 | 0.00 | 0.00 | 59 | 1011.2 |
| 20260507220716 | 56 | 261 | 8.0 | 16.0 | 0.00 | 0.00 | 0.00 | 59 | 1011.2 |
| 20260507220628 | 56 | 246 | 7.0 | 16.0 | 0.00 | 0.00 | 0.00 | 59 | 1011.2 |
| 20260507220457 | 56 | 263 | 8.0 | 17.0 | 0.00 | 0.00 | 0.00 | 59 | 1011.1 |
| 20260507220407 | 56 | 288 | 7.0 | 17.0 | 0.00 | 0.00 | 0.00 | 58 | 1011.1 |
| 20260507220300 | 56 | 269 | 6.0 | 17.0 | 0.00 | 0.00 | 0.00 | 59 | 1011.2 |
| 20260507220210 | 57 | 282 | 7.0 | 17.0 | 0.00 | 0.00 | 0.00 | 59 | 1011.1 |
| 20260507220028 | 57 | 256 | 6.0 | 17.0 | 0.00 | 0.00 | 0.00 | 58 | 1011.1 |
| 20260507215858 | 57 | 279 | 6.0 | 17.0 | 0.00 | 0.00 | 0.00 | 58 | 1011.2 |
| 20260507215809 | 57 | 280 | 8.0 | 17.0 | 0.00 | 0.00 | 0.00 | 57 | 1011.1 |
| 20260507215659 | 57 | 264 | 8.0 | 17.0 | 0.00 | 0.00 | 0.00 | 57 | 1011.2 |
| 20260507215610 | 57 | 258 | 8.0 | 16.0 | 0.00 | 0.00 | 0.00 | 57 | 1011.1 |
| 20260507215520 | 57 | 225 | 8.0 | 16.0 | 0.00 | 0.00 | 0.00 | 56 | 1011.1 |
| 20260507215411 | 58 | 269 | 8.0 | 16.0 | 0.00 | 0.00 | 0.00 | 57 | 1011.1 |
| 20260507215302 | 58 | 300 | 8.0 | 16.0 | 0.00 | 0.00 | 0.00 | 56 | 1011.2 |
| 20260507215215 | 58 | 261 | 8.0 | 16.0 | 0.00 | 0.00 | 0.00 | 57 | 1011.1 |
| 20260507215109 | 58 | 261 | 6.0 | 16.0 | 0.00 | 0.00 | 0.00 | 56 | 1011.1 |
| 20260507214959 | 58 | 319 | 7.0 | 16.0 | 0.00 | 0.00 | 0.00 | 57 | 1011.1 |
| 20260507214909 | 58 | 294 | 8.0 | 16.0 | 0.00 | 0.00 | 0.00 | 57 | 1011.1 |
| 20260507214800 | 58 | 238 | 7.0 | 16.0 | 0.00 | 0.00 | 0.00 | 57 | 1011.0 |
| 20260507214711 | 58 | 218 | 7.0 | 16.0 | 0.00 | 0.00 | 0.00 | 57 | 1011.1 |
| 20260507214603 | 58 | 245 | 6.0 | 16.0 | 0.00 | 0.00 | 0.00 | 57 | 1011.1 |
| 20260507214526 | 57 | 267 | 5.0 | 10.0 | 0.00 | 0.00 | 0.00 | 55 | 1011.0 |
| 20260507214416 | 57 | 276 | 6.0 | 10.0 | 0.00 | 0.00 | 0.00 | 54 | 1011.1 |
| 20260507214309 | 57 | 234 | 5.0 | 10.0 | 0.00 | 0.00 | 0.00 | 53 | 1011.1 |
| 20260507214204 | 57 | 252 | 5.0 | 9.0 | 0.00 | 0.00 | 0.00 | 52 | 1011.1 |
| 20260507214114 | 57 | 239 | 4.0 | 9.0 | 0.00 | 0.00 | 0.00 | 52 | 1011.1 |
| 20260507214005 | 57 | 273 | 5.0 | 9.0 | 0.00 | 0.00 | 0.00 | 50 | 1011.1 |
| 20260507213918 | 57 | 261 | 4.0 | 9.0 | 0.00 | 0.00 | 0.00 | 50 | 1011.1 |
| 20260507213829 | 57 | 236 | 4.0 | 9.0 | 0.00 | 0.00 | 0.00 | 52 | 1011.0 |
| 20260507213700 | 57 | 266 | 4.0 | 9.0 | 0.00 | 0.00 | 0.00 | 52 | 1011.0 |
| 20260507213610 | 57 | 246 | 4.0 | 9.0 | 0.00 | 0.00 | 0.00 | 52 | 1011.1 |
| 20260507213459 | 57 | 267 | 4.0 | 9.0 | 0.00 | 0.00 | 0.00 | 52 | 1011.0 |
| 20260507213411 | 57 | 239 | 3.0 | 9.0 | 0.00 | 0.00 | 0.00 | 52 | 1011.1 |
| 20260507213329 | 57 | 250 | 4.0 | 9.0 | 0.00 | 0.00 | 0.00 | 53 | 1011.0 |
| 20260507213237 | 57 | 229 | 4.0 | 9.0 | 0.00 | 0.00 | 0.00 | 52 | 1011.1 |
| 20260507213107 | 57 | 269 | 4.0 | 9.0 | 0.00 | 0.00 | 0.00 | 50 | 1011.0 |
| 20260507213029 | 57 | 254 | 4.0 | 9.0 | 0.00 | 0.00 | 0.00 | 51 | 1011.0 |
| 20260507212858 | 57 | 239 | 5.0 | 10.0 | 0.00 | 0.00 | 0.00 | 51 | 1011.1 |
| 20260507212811 | 57 | 246 | 4.0 | 10.0 | 0.00 | 0.00 | 0.00 | 50 | 1011.1 |
| 20260507212721 | 57 | 252 | 4.0 | 10.0 | 0.00 | 0.00 | 0.00 | 51 | 1011.1 |
| 20260507212611 | 57 | 236 | 5.0 | 10.0 | 0.00 | 0.00 | 0.00 | 50 | 1011.1 |
| 20260507212521 | 57 | 229 | 5.0 | 10.0 | 0.00 | 0.00 | 0.00 | 51 | 1011.0 |
| 20260507212432 | 57 | 250 | 4.0 | 10.0 | 0.00 | 0.00 | 0.00 | 51 | 1011.0 |
| 20260507212323 | 57 | 263 | 5.0 | 10.0 | 0.00 | 0.00 | 0.00 | 51 | 1011.0 |
| 20260507212216 | 57 | 284 | 6.0 | 10.0 | 0.00 | 0.00 | 0.00 | 50 | 1011.0 |
| 20260507212107 | 57 | 248 | 5.0 | 9.0 | 0.00 | 0.00 | 0.00 | 50 | 1011.1 |
| 20260507211958 | 57 | 221 | 6.0 | 10.0 | 0.00 | 0.00 | 0.00 | 49 | 1011.0 |
| 20260507211908 | 57 | 250 | 6.0 | 10.0 | 0.00 | 0.00 | 0.00 | 49 | 1011.0 |
| 20260507211800 | 57 | 249 | 5.0 | 10.0 | 0.00 | 0.00 | 0.00 | 49 | 1011.0 |
| 20260507211711 | 57 | 239 | 5.0 | 10.0 | 0.00 | 0.00 | 0.00 | 50 | 1011.1 |
| 20260507211623 | 57 | 254 | 6.0 | 10.0 | 0.00 | 0.00 | 0.00 | 51 | 1011.1 |
| 20260507211543 | 57 | 242 | 7.0 | 10.0 | 0.00 | 0.00 | 0.00 | 50 | 1011.1 |
| 20260507211433 | 57 | 245 | 6.0 | 10.0 | 0.00 | 0.00 | 0.00 | 50 | 1011.0 |
| 20260507211307 | 57 | 246 | 5.0 | 9.0 | 0.00 | 0.00 | 0.00 | 49 | 1011.0 |
| 20260507211217 | 57 | 219 | 5.0 | 9.0 | 0.00 | 0.00 | 0.00 | 48 | 1011.0 |
| 20260507211108 | 57 | 229 | 5.0 | 9.0 | 0.00 | 0.00 | 0.00 | 49 | 1011.1 |
| 20260507211018 | 58 | 235 | 5.0 | 9.0 | 0.00 | 0.00 | 0.00 | 48 | 1011.0 |
| 20260507210908 | 58 | 219 | 5.0 | 9.0 | 0.00 | 0.00 | 0.00 | 48 | 1011.1 |
| 20260507210818 | 58 | 249 | 3.0 | 9.0 | 0.00 | 0.00 | 0.00 | 49 | 1011.1 |
| 20260507210709 | 58 | 232 | 3.0 | 9.0 | 0.00 | 0.00 | 0.00 | 48 | 1011.1 |
| 20260507210600 | 58 | 225 | 4.0 | 10.0 | 0.00 | 0.00 | 0.00 | 48 | 1011.1 |
| 20260507210511 | 58 | 234 | 3.0 | 10.0 | 0.00 | 0.00 | 0.00 | 48 | 1011.2 |
| 20260507210402 | 58 | 276 | 3.0 | 10.0 | 0.00 | 0.00 | 0.00 | 48 | 1011.1 |
| 20260507210259 | 58 | 230 | 4.0 | 10.0 | 0.00 | 0.00 | 0.00 | 47 | 1011.1 |
| 20260507210207 | 58 | 196 | 4.0 | 10.0 | 0.00 | 0.00 | 0.00 | 46 | 1011.2 |
| 20260507210119 | 58 | 243 | 4.0 | 10.0 | 0.00 | 0.00 | 0.00 | 49 | 1011.2 |
| 20260507210041 | 58 | 334 | 5.0 | 10.0 | 0.00 | 0.00 | 0.00 | 47 | 1011.2 |
| 20260507205910 | 58 | 237 | 5.0 | 10.0 | 0.00 | 0.00 | 0.00 | 48 | 1011.3 |
| 20260507205820 | 58 | 200 | 5.0 | 10.0 | 0.00 | 0.00 | 0.00 | 48 | 1011.2 |
| 20260507205710 | 58 | 240 | 4.0 | 11.0 | 0.00 | 0.00 | 0.00 | 49 | 1011.3 |
| 20260507205559 | 58 | 193 | 3.0 | 12.0 | 0.00 | 0.00 | 0.00 | 49 | 1011.3 |
| 20260507205509 | 58 | 248 | 3.0 | 12.0 | 0.00 | 0.00 | 0.00 | 49 | 1011.3 |
| 20260507205420 | 58 | 235 | 4.0 | 12.0 | 0.00 | 0.00 | 0.00 | 49 | 1011.3 |
| 20260507205311 | 58 | 258 | 5.0 | 12.0 | 0.00 | 0.00 | 0.00 | 47 | 1011.3 |
| 20260507205205 | 58 | 251 | 5.0 | 12.0 | 0.00 | 0.00 | 0.00 | 48 | 1011.3 |
| 20260507205115 | 58 | 244 | 5.0 | 12.0 | 0.00 | 0.00 | 0.00 | 48 | 1011.3 |
| 20260507205007 | 58 | 242 | 6.0 | 12.0 | 0.00 | 0.00 | 0.00 | 47 | 1011.3 |
| 20260507204858 | 58 | 248 | 6.0 | 12.0 | 0.00 | 0.00 | 0.00 | 46 | 1011.3 |
| 20260507204809 | 58 | 279 | 6.0 | 12.0 | 0.00 | 0.00 | 0.00 | 46 | 1011.3 |
| 20260507204701 | 58 | 271 | 6.0 | 12.0 | 0.00 | 0.00 | 0.00 | 48 | 1011.3 |
| 20260507204609 | 58 | 311 | 4.0 | 12.0 | 0.00 | 0.00 | 0.00 | 49 | 1011.4 |
| 20260507204532 | 58 | 227 | 3.0 | 12.0 | 0.00 | 0.00 | 0.00 | 49 | 1011.3 |
| 20260507204406 | 58 | 243 | 4.0 | 12.0 | 0.00 | 0.00 | 0.00 | 48 | 1011.3 |
| 20260507204257 | 58 | 242 | 4.0 | 12.0 | 0.00 | 0.00 | 0.00 | 50 | 1011.3 |
| 20260507204208 | 58 | 234 | 5.0 | 12.0 | 0.00 | 0.00 | 0.00 | 49 | 1011.3 |
| 20260507204058 | 58 | 290 | 6.0 | 12.0 | 0.00 | 0.00 | 0.00 | 50 | 1011.4 |
| 20260507204010 | 58 | 238 | 4.0 | 12.0 | 0.00 | 0.00 | 0.00 | 50 | 1011.4 |
| 20260507203903 | 58 | 291 | 4.0 | 11.0 | 0.00 | 0.00 | 0.00 | 47 | 1011.3 |
| 20260507203812 | 58 | 250 | 5.0 | 12.0 | 0.00 | 0.00 | 0.00 | 46 | 1011.4 |
| 20260507203704 | 57 | 232 | 5.0 | 12.0 | 0.00 | 0.00 | 0.00 | 48 | 1011.4 |
| 20260507203558 | 57 | 251 | 4.0 | 12.0 | 0.00 | 0.00 | 0.00 | 47 | 1011.5 |
| 20260507203510 | 57 | 261 | 3.0 | 12.0 | 0.00 | 0.00 | 0.00 | 49 | 1011.4 |
| 20260507203400 | 57 | 250 | 3.0 | 12.0 | 0.00 | 0.00 | 0.00 | 50 | 1011.4 |
| 20260507203313 | 57 | 235 | 5.0 | 12.0 | 0.00 | 0.00 | 0.00 | 49 | 1011.4 |
| 20260507203223 | 57 | 281 | 6.0 | 12.0 | 0.00 | 0.00 | 0.00 | 48 | 1011.4 |
| 20260507203133 | 57 | 140 | 6.0 | 12.0 | 0.00 | 0.00 | 0.00 | 48 | 1011.5 |
| 20260507203033 | 57 | 221 | 7.0 | 12.0 | 0.00 | 0.00 | 0.00 | 48 | 1011.4 |
| 20260507202901 | 57 | 250 | 6.0 | 10.0 | 0.00 | 0.00 | 0.00 | 49 | 1011.5 |
| 20260507202812 | 57 | 257 | 5.0 | 10.0 | 0.00 | 0.00 | 0.00 | 49 | 1011.5 |
| 20260507202702 | 57 | 281 | 4.0 | 10.0 | 0.00 | 0.00 | 0.00 | 49 | 1011.5 |
| 20260507202557 | 57 | 242 | 5.0 | 10.0 | 0.00 | 0.00 | 0.00 | 48 | 1011.6 |
| 20260507202508 | 57 | 270 | 5.0 | 10.0 | 0.00 | 0.00 | 0.00 | 49 | 1011.6 |
| 20260507202419 | 57 | 155 | 5.0 | 10.0 | 0.00 | 0.00 | 0.00 | 49 | 1011.6 |
| 20260507202309 | 57 | 238 | 6.0 | 13.0 | 0.00 | 0.00 | 0.00 | 47 | 1011.7 |
| 20260507202159 | 57 | 242 | 7.0 | 15.0 | 0.00 | 0.00 | 0.00 | 46 | 1011.6 |
| 20260507202110 | 57 | 242 | 6.0 | 15.0 | 0.00 | 0.00 | 0.00 | 47 | 1011.6 |
| 20260507202002 | 57 | 228 | 5.0 | 15.0 | 0.00 | 0.00 | 0.00 | 46 | 1011.6 |
| 20260507201913 | 57 | 258 | 5.0 | 15.0 | 0.00 | 0.00 | 0.00 | 47 | 1011.7 |
| 20260507201803 | 57 | 258 | 5.0 | 15.0 | 0.00 | 0.00 | 0.00 | 46 | 1011.7 |
| 20260507201657 | 57 | 227 | 5.0 | 15.0 | 0.00 | 0.00 | 0.00 | 46 | 1011.7 |
| 20260507201608 | 57 | 246 | 6.0 | 15.0 | 0.00 | 0.00 | 0.00 | 46 | 1011.7 |
| 20260507201530 | 57 | 240 | 8.0 | 15.0 | 0.00 | 0.00 | 0.00 | 46 | 1011.8 |
| 20260507201359 | 58 | 235 | 8.0 | 15.0 | 0.00 | 0.00 | 0.00 | 45 | 1011.7 |
| 20260507201309 | 58 | 218 | 6.0 | 12.0 | 0.00 | 0.00 | 0.00 | 48 | 1011.7 |
| 20260507201200 | 58 | 219 | 4.0 | 12.0 | 0.00 | 0.00 | 0.00 | 46 | 1011.7 |
| 20260507201109 | 58 | 119 | 3.0 | 8.0 | 0.00 | 0.00 | 0.00 | 46 | 1011.7 |
| 20260507201019 | 58 | 168 | 3.0 | 8.0 | 0.00 | 0.00 | 0.00 | 46 | 1011.7 |
| 20260507200929 | 58 | 173 | 3.0 | 8.0 | 0.00 | 0.00 | 0.00 | 46 | 1011.7 |
| 20260507200803 | 58 | 244 | 3.0 | 8.0 | 0.00 | 0.00 | 0.00 | 46 | 1011.7 |
| 20260507200714 | 58 | 155 | 3.0 | 8.0 | 0.00 | 0.00 | 0.00 | 48 | 1011.7 |
| 20260507200604 | 58 | 240 | 3.0 | 8.0 | 0.00 | 0.00 | 0.00 | 47 | 1011.8 |
| 20260507200515 | 58 | 304 | 3.0 | 9.0 | 0.00 | 0.00 | 0.00 | 46 | 1011.7 |
| 20260507200425 | 58 | 262 | 2.0 | 11.0 | 0.00 | 0.00 | 0.00 | 48 | 1011.8 |
| 20260507200337 | 58 | 187 | 1.0 | 13.0 | 0.00 | 0.00 | 0.00 | 48 | 1011.8 |
| 20260507200206 | 58 | 282 | 2.0 | 13.0 | 0.00 | 0.00 | 0.00 | 49 | 1011.8 |
| 20260507200117 | 58 | 258 | 2.0 | 13.0 | 0.00 | 0.00 | 0.00 | 47 | 1011.8 |
| 20260507200040 | 58 | 258 | 3.0 | 13.0 | 0.00 | 0.00 | 0.00 | 45 | 1011.9 |
| 20260507195928 | 58 | 220 | 4.0 | 13.0 | 0.00 | 0.00 | 0.00 | 45 | 1011.9 |
| 20260507195802 | 58 | 275 | 5.0 | 13.0 | 0.00 | 0.00 | 0.00 | 45 | 1011.9 |
| 20260507195713 | 58 | 251 | 4.0 | 13.0 | 0.00 | 0.00 | 0.00 | 46 | 1011.9 |
| 20260507195624 | 58 | 228 | 6.0 | 13.0 | 0.00 | 0.00 | 0.00 | 46 | 1011.9 |
| 20260507195534 | 58 | 258 | 5.0 | 13.0 | 0.00 | 0.00 | 0.00 | 47 | 1011.9 |
| 20260507195423 | 58 | 236 | 4.0 | 11.0 | 0.00 | 0.00 | 0.00 | 47 | 1012.0 |
| 20260507195313 | 58 | 250 | 5.0 | 12.0 | 0.00 | 0.00 | 0.00 | 47 | 1012.0 |
| 20260507195204 | 58 | 227 | 6.0 | 12.0 | 0.00 | 0.00 | 0.00 | 46 | 1012.0 |
| 20260507195114 | 58 | 243 | 5.0 | 12.0 | 0.00 | 0.00 | 0.00 | 47 | 1012.1 |
| 20260507195026 | 57 | 223 | 5.0 | 12.0 | 0.00 | 0.00 | 0.00 | 48 | 1012.0 |
| 20260507194938 | 57 | 253 | 4.0 | 12.0 | 0.00 | 0.00 | 0.00 | 46 | 1012.1 |
| 20260507194828 | 57 | 227 | 2.0 | 12.0 | 0.00 | 0.00 | 0.00 | 49 | 1012.1 |
| 20260507194719 | 57 | 267 | 2.0 | 12.0 | 0.00 | 0.00 | 0.00 | 48 | 1012.0 |
| 20260507194633 | 57 | 296 | 5.0 | 12.0 | 0.00 | 0.00 | 0.00 | 44 | 1012.1 |
| 20260507194533 | 57 | 223 | 6.0 | 12.0 | 0.00 | 0.00 | 0.00 | 44 | 1012.2 |
| 20260507194402 | 57 | 229 | 4.0 | 8.0 | 0.00 | 0.00 | 0.00 | 46 | 1012.1 |
| 20260507194313 | 57 | 225 | 4.0 | 8.0 | 0.00 | 0.00 | 0.00 | 48 | 1012.2 |
| 20260507194202 | 57 | 248 | 3.0 | 8.0 | 0.00 | 0.00 | 0.00 | 47 | 1012.2 |
| 20260507194112 | 57 | 289 | 5.0 | 8.0 | 0.00 | 0.00 | 0.00 | 47 | 1012.2 |
| 20260507194003 | 57 | 146 | 5.0 | 10.0 | 0.00 | 0.00 | 0.00 | 47 | 1012.3 |
| 20260507193913 | 57 | 252 | 3.0 | 10.0 | 0.00 | 0.00 | 0.00 | 46 | 1012.2 |
| 20260507193805 | 56 | 260 | 3.0 | 10.0 | 0.00 | 0.00 | 0.00 | 48 | 1012.2 |
| 20260507193700 | 56 | 208 | 2.0 | 10.0 | 0.00 | 0.00 | 0.00 | 52 | 1012.2 |
| 20260507193610 | 56 | 244 | 2.0 | 10.0 | 0.00 | 0.00 | 0.00 | 52 | 1012.3 |
| 20260507193522 | 56 | 346 | 3.0 | 10.0 | 0.00 | 0.00 | 0.00 | 46 | 1012.3 |
| 20260507193411 | 56 | 240 | 4.0 | 10.0 | 0.00 | 0.00 | 0.00 | 45 | 1012.3 |
| 20260507193324 | 56 | 295 | 5.0 | 10.0 | 0.00 | 0.00 | 0.00 | 45 | 1012.4 |
| 20260507193232 | 56 | 249 | 3.0 | 8.0 | 0.00 | 0.00 | 0.00 | 46 | 1012.5 |
| 20260507193123 | 56 | 299 | 3.0 | 7.0 | 0.00 | 0.00 | 0.00 | 48 | 1012.4 |
| 20260507193045 | 56 | 299 | 4.0 | 7.0 | 0.00 | 0.00 | 0.00 | 46 | 1012.4 |
| 20260507192935 | 56 | 246 | 3.0 | 8.0 | 0.00 | 0.00 | 0.00 | 50 | 1012.5 |
| 20260507192845 | 56 | 242 | 2.0 | 8.0 | 0.00 | 0.00 | 0.00 | 48 | 1012.5 |
| 20260507192736 | 56 | 226 | 3.0 | 10.0 | 0.00 | 0.00 | 0.00 | 50 | 1012.5 |
| 20260507192626 | 56 | 238 | 5.0 | 10.0 | 0.00 | 0.00 | 0.00 | 48 | 1012.6 |
| 20260507192500 | 56 | 284 | 5.0 | 10.0 | 0.00 | 0.00 | 0.00 | 44 | 1012.6 |
| 20260507192411 | 56 | 271 | 4.0 | 10.0 | 0.00 | 0.00 | 0.00 | 45 | 1012.7 |
| 20260507192305 | 56 | 294 | 3.0 | 10.0 | 0.00 | 0.00 | 0.00 | 46 | 1012.6 |
| 20260507192211 | 56 | 213 | 4.0 | 10.0 | 0.00 | 0.00 | 0.00 | 48 | 1012.7 |
| 20260507192101 | 56 | 300 | 3.0 | 10.0 | 0.00 | 0.00 | 0.00 | 47 | 1012.8 |
| 20260507192012 | 56 | 264 | 5.0 | 10.0 | 0.00 | 0.00 | 0.00 | 48 | 1012.7 |
| 20260507191901 | 56 | 286 | 5.0 | 10.0 | 0.00 | 0.00 | 0.00 | 46 | 1012.8 |
| 20260507191812 | 56 | 309 | 4.0 | 8.0 | 0.00 | 0.00 | 0.00 | 48 | 1012.8 |
| 20260507191725 | 56 | 274 | 4.0 | 7.0 | 0.00 | 0.00 | 0.00 | 47 | 1012.8 |
| 20260507191639 | 56 | 248 | 4.0 | 7.0 | 0.00 | 0.00 | 0.00 | 47 | 1012.8 |
| 20260507191539 | 56 | 240 | 4.0 | 7.0 | 0.00 | 0.00 | 0.00 | 48 | 1012.7 |
| 20260507191409 | 56 | 243 | 3.0 | 7.0 | 0.00 | 0.00 | 0.00 | 47 | 1012.7 |
| 20260507191259 | 56 | 203 | 3.0 | 7.0 | 0.00 | 0.00 | 0.00 | 48 | 1012.8 |
| 20260507191209 | 56 | 263 | 4.0 | 7.0 | 0.00 | 0.00 | 0.00 | 48 | 1012.8 |
| 20260507191100 | 56 | 266 | 3.0 | 7.0 | 0.00 | 0.00 | 0.00 | 47 | 1012.8 |
| 20260507191012 | 56 | 236 | 3.0 | 7.0 | 0.00 | 0.00 | 0.00 | 47 | 1012.8 |
| 20260507190902 | 55 | 242 | 4.0 | 7.0 | 0.00 | 0.00 | 0.00 | 48 | 1012.8 |
| 20260507190813 | 55 | 237 | 4.0 | 7.0 | 0.00 | 0.00 | 0.00 | 50 | 1012.9 |
| 20260507190708 | 55 | 248 | 4.0 | 9.0 | 0.00 | 0.00 | 0.00 | 47 | 1012.8 |
| 20260507190559 | 55 | 240 | 3.0 | 9.0 | 0.00 | 0.00 | 0.00 | 46 | 1012.9 |
| 20260507190509 | 55 | 203 | 3.0 | 9.0 | 0.00 | 0.00 | 0.00 | 47 | 1012.8 |
| 20260507190359 | 55 | 347 | 3.0 | 9.0 | 0.00 | 0.00 | 0.00 | 50 | 1012.8 |
| 20260507190311 | 55 | 295 | 3.0 | 9.0 | 0.00 | 0.00 | 0.00 | 47 | 1012.9 |
| 20260507190220 | 55 | 263 | 4.0 | 9.0 | 0.00 | 0.00 | 0.00 | 48 | 1012.8 |
| 20260507190109 | 55 | 241 | 5.0 | 9.0 | 0.00 | 0.00 | 0.00 | 50 | 1012.9 |
| 20260507190034 | 55 | 246 | 5.0 | 9.0 | 0.00 | 0.00 | 0.00 | 49 | 1012.9 |
| 20260507185903 | 55 | 233 | 5.0 | 9.0 | 0.00 | 0.00 | 0.00 | 47 | 1012.9 |
| 20260507185759 | 55 | 240 | 4.0 | 9.0 | 0.00 | 0.00 | 0.00 | 49 | 1012.8 |
| 20260507185710 | 55 | 232 | 4.0 | 9.0 | 0.00 | 0.00 | 0.00 | 51 | 1012.9 |
| 20260507185601 | 55 | 248 | 4.0 | 9.0 | 0.00 | 0.00 | 0.00 | 52 | 1013.0 |
| 20260507185510 | 54 | 255 | 3.0 | 15.0 | 0.00 | 0.00 | 0.00 | 51 | 1013.0 |
| 20260507185402 | 54 | 290 | 1.0 | 15.0 | 0.00 | 0.00 | 0.00 | 49 | 1012.9 |
| 20260507185313 | 54 | 267 | 2.0 | 15.0 | 0.00 | 0.00 | 0.00 | 48 | 1013.0 |
| 20260507185205 | 54 | 167 | 3.0 | 15.0 | 0.00 | 0.00 | 0.00 | 49 | 1013.0 |
| 20260507185116 | 54 | 256 | 3.0 | 15.0 | 0.00 | 0.00 | 0.00 | 48 | 1013.0 |
| 20260507185008 | 54 | 236 | 4.0 | 15.0 | 0.00 | 0.00 | 0.00 | 48 | 1013.1 |
| 20260507184901 | 54 | 200 | 6.0 | 15.0 | 0.00 | 0.00 | 0.00 | 50 | 1013.1 |
| 20260507184813 | 54 | 202 | 7.0 | 15.0 | 0.00 | 0.00 | 0.00 | 49 | 1013.2 |
| 20260507184703 | 54 | 275 | 9.0 | 15.0 | 0.00 | 0.00 | 0.00 | 47 | 1013.0 |
| 20260507184613 | 54 | 302 | 7.0 | 14.0 | 0.00 | 0.00 | 0.00 | 48 | 1013.1 |
| 20260507184536 | 54 | 335 | 5.0 | 14.0 | 0.00 | 0.00 | 0.00 | 49 | 1013.2 |
| 20260507184405 | 54 | 233 | 4.0 | 9.0 | 0.00 | 0.00 | 0.00 | 48 | 1013.2 |
| 20260507184315 | 54 | 248 | 5.0 | 9.0 | 0.00 | 0.00 | 0.00 | 51 | 1013.2 |
| 20260507184208 | 53 | 228 | 5.0 | 9.0 | 0.00 | 0.00 | 0.00 | 51 | 1013.2 |
| 20260507184104 | 53 | 259 | 5.0 | 9.0 | 0.00 | 0.00 | 0.00 | 50 | 1013.2 |
| 20260507184015 | 53 | 261 | 5.0 | 9.0 | 0.00 | 0.00 | 0.00 | 49 | 1013.2 |
| 20260507183925 | 53 | 268 | 4.0 | 9.0 | 0.00 | 0.00 | 0.00 | 47 | 1013.2 |
| 20260507183811 | 53 | 247 | 3.0 | 9.0 | 0.00 | 0.00 | 0.00 | 47 | 1013.2 |
| 20260507183722 | 53 | 215 | 2.0 | 9.0 | 0.00 | 0.00 | 0.00 | 46 | 1013.2 |
| 20260507183633 | 53 | 252 | 3.0 | 9.0 | 0.00 | 0.00 | 0.00 | 46 | 1013.2 |
| 20260507183543 | 53 | 277 | 5.0 | 9.0 | 0.00 | 0.00 | 0.00 | 47 | 1013.3 |
| 20260507183434 | 53 | 226 | 4.0 | 9.0 | 0.00 | 0.00 | 0.00 | 49 | 1013.3 |
| 20260507183326 | 53 | 304 | 3.0 | 9.0 | 0.00 | 0.00 | 0.00 | 47 | 1013.3 |
| 20260507183215 | 53 | 304 | 4.0 | 9.0 | 0.00 | 0.00 | 0.00 | 46 | 1013.3 |
| 20260507183106 | 53 | 312 | 4.0 | 9.0 | 0.00 | 0.00 | 0.00 | 49 | 1013.3 |
| 20260507183027 | 53 | 317 | 4.0 | 9.0 | 0.00 | 0.00 | 0.00 | 49 | 1013.3 |
| 20260507182901 | 53 | 271 | 3.0 | 11.0 | 0.00 | 0.00 | 0.00 | 54 | 1013.5 |
| 20260507182811 | 53 | 262 | 3.0 | 11.0 | 0.00 | 0.00 | 0.00 | 53 | 1013.4 |
| 20260507182702 | 53 | 284 | 2.0 | 11.0 | 0.00 | 0.00 | 0.00 | 50 | 1013.3 |
| 20260507182614 | 53 | 313 | 2.0 | 11.0 | 0.00 | 0.00 | 0.00 | 48 | 1013.4 |
| 20260507182506 | 53 | 290 | 3.0 | 11.0 | 0.00 | 0.00 | 0.00 | 53 | 1013.4 |
| 20260507182416 | 53 | 279 | 4.0 | 11.0 | 0.00 | 0.00 | 0.00 | 49 | 1013.6 |
| 20260507182307 | 53 | 267 | 6.0 | 11.0 | 0.00 | 0.00 | 0.00 | 49 | 1013.5 |
| 20260507182216 | 52 | 243 | 5.0 | 11.0 | 0.00 | 0.00 | 0.00 | 49 | 1013.4 |
| 20260507182111 | 52 | 279 | 5.0 | 9.0 | 0.00 | 0.00 | 0.00 | 54 | 1013.5 |
| 20260507182002 | 52 | 267 | 4.0 | 9.0 | 0.00 | 0.00 | 0.00 | 55 | 1013.5 |
| 20260507181914 | 52 | 278 | 3.0 | 9.0 | 0.00 | 0.00 | 0.00 | 53 | 1013.6 |
| 20260507181824 | 52 | 277 | 2.0 | 11.0 | 0.00 | 0.00 | 0.00 | 51 | 1013.5 |
| 20260507181714 | 52 | 263 | 2.0 | 11.0 | 0.00 | 0.00 | 0.00 | 52 | 1013.6 |
| 20260507181605 | 51 | 319 | 4.0 | 11.0 | 0.00 | 0.00 | 0.00 | 50 | 1013.6 |
| 20260507181526 | 51 | 319 | 4.0 | 11.0 | 0.00 | 0.00 | 0.00 | 49 | 1013.5 |
| 20260507181357 | 51 | 300 | 2.0 | 11.0 | 0.00 | 0.00 | 0.00 | 49 | 1013.6 |
| 20260507181308 | 51 | 286 | 3.0 | 13.0 | 0.00 | 0.00 | 0.00 | 50 | 1013.7 |
| 20260507181202 | 51 | 292 | 5.0 | 13.0 | 0.00 | 0.00 | 0.00 | 48 | 1013.8 |
| 20260507181113 | 51 | 276 | 6.0 | 13.0 | 0.00 | 0.00 | 0.00 | 49 | 1013.7 |
| 20260507181023 | 51 | 283 | 6.0 | 13.0 | 0.00 | 0.00 | 0.00 | 50 | 1013.7 |
| 20260507180934 | 51 | 290 | 5.0 | 13.0 | 0.00 | 0.00 | 0.00 | 49 | 1013.8 |
| 20260507180846 | 51 | 323 | 5.0 | 13.0 | 0.00 | 0.00 | 0.00 | 48 | 1013.9 |
| 20260507180736 | 51 | 257 | 4.0 | 13.0 | 0.00 | 0.00 | 0.00 | 49 | 1013.9 |
| 20260507180645 | 51 | 266 | 6.0 | 13.0 | 0.00 | 0.00 | 0.00 | 49 | 1013.8 |
| 20260507180534 | 52 | 300 | 8.0 | 13.0 | 0.00 | 0.00 | 0.00 | 49 | 1013.8 |
| 20260507180403 | 52 | 324 | 6.0 | 10.0 | 0.00 | 0.00 | 0.00 | 50 | 1013.9 |
| 20260507180316 | 52 | 306 | 6.0 | 10.0 | 0.00 | 0.00 | 0.00 | 51 | 1013.9 |
| 20260507180206 | 52 | 257 | 5.0 | 10.0 | 0.00 | 0.00 | 0.00 | 51 | 1013.9 |
| 20260507180025 | 52 | 246 | 3.0 | 10.0 | 0.00 | 0.00 | 0.00 | 50 | 1014.0 |
| 20260507175914 | 52 | 267 | 5.0 | 10.0 | 0.00 | 0.00 | 0.00 | 52 | 1014.0 |
| 20260507175806 | 52 | 296 | 6.0 | 10.0 | 0.00 | 0.00 | 0.00 | 52 | 1014.1 |
| 20260507175717 | 52 | 295 | 4.0 | 10.0 | 0.00 | 0.00 | 0.00 | 51 | 1014.0 |
| 20260507175609 | 52 | 295 | 3.0 | 10.0 | 0.00 | 0.00 | 0.00 | 52 | 1014.1 |
| 20260507175519 | 52 | 347 | 4.0 | 10.0 | 0.00 | 0.00 | 0.00 | 49 | 1014.1 |
| 20260507175409 | 52 | 310 | 5.0 | 10.0 | 0.00 | 0.00 | 0.00 | 49 | 1014.2 |
| 20260507175321 | 52 | 313 | 4.0 | 10.0 | 0.00 | 0.00 | 0.00 | 51 | 1014.2 |
| 20260507175232 | 52 | 269 | 2.0 | 9.0 | 0.00 | 0.00 | 0.00 | 54 | 1014.2 |
| 20260507175106 | 52 | 259 | 3.0 | 9.0 | 0.00 | 0.00 | 0.00 | 53 | 1014.2 |
| 20260507175015 | 52 | 238 | 4.0 | 9.0 | 0.00 | 0.00 | 0.00 | 57 | 1014.2 |
| 20260507174906 | 52 | 248 | 2.0 | 9.0 | 0.00 | 0.00 | 0.00 | 54 | 1014.2 |
| 20260507174816 | 52 | 254 | 3.0 | 9.0 | 0.00 | 0.00 | 0.00 | 54 | 1014.2 |
| 20260507174727 | 52 | 260 | 2.0 | 9.0 | 0.00 | 0.00 | 0.00 | 53 | 1014.1 |
| 20260507174638 | 52 | 250 | 2.0 | 9.0 | 0.00 | 0.00 | 0.00 | 54 | 1014.2 |
| 20260507174538 | 51 | 140 | 2.0 | 9.0 | 0.00 | 0.00 | 0.00 | 55 | 1014.2 |
| 20260507174427 | 51 | 252 | 3.0 | 9.0 | 0.00 | 0.00 | 0.00 | 54 | 1014.2 |
| 20260507174337 | 51 | 282 | 4.0 | 9.0 | 0.00 | 0.00 | 0.00 | 54 | 1014.2 |
| 20260507174206 | 51 | 240 | 3.0 | 7.0 | 0.00 | 0.00 | 0.00 | 58 | 1014.2 |
| 20260507174100 | 51 | 277 | 4.0 | 7.0 | 0.00 | 0.00 | 0.00 | 56 | 1014.2 |
| 20260507174012 | 51 | 281 | 3.0 | 7.0 | 0.00 | 0.00 | 0.00 | 54 | 1014.3 |
| 20260507173923 | 51 | 292 | 2.0 | 7.0 | 0.00 | 0.00 | 0.00 | 51 | 1014.3 |
| 20260507173834 | 51 | 271 | 2.0 | 7.0 | 0.00 | 0.00 | 0.00 | 51 | 1014.3 |
| 20260507173702 | 51 | 249 | 1.0 | 9.0 | 0.00 | 0.00 | 0.00 | 55 | 1014.4 |
| 20260507173612 | 51 | 248 | 2.0 | 10.0 | 0.00 | 0.00 | 0.00 | 53 | 1014.4 |
| 20260507173504 | 51 | 249 | 4.0 | 10.0 | 0.00 | 0.00 | 0.00 | 54 | 1014.5 |
| 20260507173414 | 51 | 251 | 4.0 | 10.0 | 0.00 | 0.00 | 0.00 | 55 | 1014.5 |
| 20260507173307 | 50 | 255 | 4.0 | 10.0 | 0.00 | 0.00 | 0.00 | 52 | 1014.5 |
| 20260507173220 | 50 | 238 | 4.0 | 10.0 | 0.00 | 0.00 | 0.00 | 55 | 1014.6 |
| 20260507173131 | 50 | 229 | 4.0 | 10.0 | 0.00 | 0.00 | 0.00 | 51 | 1014.7 |
| 20260507173032 | 50 | 220 | 4.0 | 10.0 | 0.00 | 0.00 | 0.00 | 51 | 1014.7 |
| 20260507172902 | 50 | 182 | 5.0 | 11.0 | 0.00 | 0.00 | 0.00 | 54 | 1014.6 |
| 20260507172813 | 50 | 284 | 6.0 | 11.0 | 0.00 | 0.00 | 0.00 | 53 | 1014.6 |
| 20260507172702 | 50 | 327 | 6.0 | 11.0 | 0.00 | 0.00 | 0.00 | 52 | 1014.7 |
| 20260507172612 | 50 | 295 | 5.0 | 11.0 | 0.00 | 0.00 | 0.00 | 55 | 1014.6 |
| 20260507172504 | 50 | 296 | 4.0 | 11.0 | 0.00 | 0.00 | 0.00 | 52 | 1014.6 |
| 20260507172414 | 50 | 331 | 5.0 | 11.0 | 0.00 | 0.00 | 0.00 | 50 | 1014.7 |
| 20260507172308 | 50 | 332 | 7.0 | 11.0 | 0.00 | 0.00 | 0.00 | 51 | 1014.7 |
| 20260507172218 | 50 | 304 | 7.0 | 11.0 | 0.00 | 0.00 | 0.00 | 49 | 1014.7 |
| 20260507172130 | 50 | 288 | 5.0 | 10.0 | 0.00 | 0.00 | 0.00 | 51 | 1014.7 |
| 20260507172020 | 50 | 309 | 3.0 | 13.0 | 0.00 | 0.00 | 0.00 | 52 | 1014.7 |
| 20260507171908 | 50 | 269 | 4.0 | 13.0 | 0.00 | 0.00 | 0.00 | 52 | 1014.8 |
| 20260507171758 | 50 | 264 | 6.0 | 13.0 | 0.00 | 0.00 | 0.00 | 52 | 1014.8 |
| 20260507171709 | 50 | 267 | 6.0 | 13.0 | 0.00 | 0.00 | 0.00 | 53 | 1014.8 |
| 20260507171558 | 49 | 253 | 4.0 | 13.0 | 0.00 | 0.00 | 0.00 | 51 | 1014.8 |
| 20260507171522 | 49 | 265 | 4.0 | 13.0 | 0.00 | 0.00 | 0.00 | 51 | 1014.8 |
| 20260507171412 | 49 | 266 | 4.0 | 13.0 | 0.00 | 0.00 | 0.00 | 54 | 1014.9 |
| 20260507171322 | 49 | 296 | 5.0 | 13.0 | 0.00 | 0.00 | 0.00 | 51 | 1014.9 |
| 20260507171238 | 49 | 277 | 8.0 | 13.0 | 0.00 | 0.00 | 0.00 | 49 | 1015.0 |
| 20260507171127 | 49 | 282 | 8.0 | 13.0 | 0.00 | 0.00 | 0.00 | 51 | 1015.0 |
| 20260507171036 | 49 | 304 | 6.0 | 10.0 | 0.00 | 0.00 | 0.00 | 53 | 1015.0 |
| 20260507170905 | 49 | 281 | 6.0 | 10.0 | 0.00 | 0.00 | 0.00 | 51 | 1015.0 |
| 20260507170816 | 49 | 284 | 6.0 | 10.0 | 0.00 | 0.00 | 0.00 | 53 | 1015.0 |
| 20260507170727 | 49 | 306 | 5.0 | 10.0 | 0.00 | 0.00 | 0.00 | 53 | 1015.0 |
| 20260507170639 | 49 | 298 | 3.0 | 11.0 | 0.00 | 0.00 | 0.00 | 50 | 1015.0 |
| 20260507170529 | 49 | 271 | 3.0 | 11.0 | 0.00 | 0.00 | 0.00 | 52 | 1015.1 |
| 20260507170400 | 49 | 302 | 4.0 | 11.0 | 0.00 | 0.00 | 0.00 | 51 | 1015.1 |
| 20260507170312 | 49 | 279 | 5.0 | 11.0 | 0.00 | 0.00 | 0.00 | 51 | 1015.2 |
| 20260507170203 | 49 | 285 | 5.0 | 11.0 | 0.00 | 0.00 | 0.00 | 51 | 1015.2 |
| 20260507170114 | 49 | 320 | 5.0 | 11.0 | 0.00 | 0.00 | 0.00 | 50 | 1015.2 |
| 20260507170036 | 49 | 274 | 5.0 | 11.0 | 0.00 | 0.00 | 0.00 | 50 | 1015.3 |
| 20260507165906 | 49 | 285 | 4.0 | 11.0 | 0.00 | 0.00 | 0.00 | 53 | 1015.2 |
| 20260507165758 | 49 | 284 | 4.0 | 11.0 | 0.00 | 0.00 | 0.00 | 52 | 1015.2 |
| 20260507165708 | 49 | 252 | 4.0 | 11.0 | 0.00 | 0.00 | 0.00 | 51 | 1015.2 |
| 20260507165559 | 49 | 281 | 4.0 | 11.0 | 0.00 | 0.00 | 0.00 | 51 | 1015.2 |
| 20260507165510 | 49 | 283 | 5.0 | 11.0 | 0.00 | 0.00 | 0.00 | 51 | 1015.2 |
| 20260507165422 | 49 | 274 | 6.0 | 11.0 | 0.00 | 0.00 | 0.00 | 53 | 1015.2 |
| 20260507165333 | 49 | 261 | 7.0 | 11.0 | 0.00 | 0.00 | 0.00 | 52 | 1015.2 |
| 20260507165226 | 49 | 296 | 8.0 | 11.0 | 0.00 | 0.00 | 0.00 | 52 | 1015.2 |
| 20260507165136 | 49 | 313 | 6.0 | 11.0 | 0.00 | 0.00 | 0.00 | 52 | 1015.2 |
| 20260507165024 | 49 | 317 | 5.0 | 11.0 | 0.00 | 0.00 | 0.00 | 54 | 1015.2 |
| 20260507164915 | 49 | 309 | 7.0 | 11.0 | 0.00 | 0.00 | 0.00 | 51 | 1015.2 |
| 20260507164824 | 49 | 313 | 6.0 | 11.0 | 0.00 | 0.00 | 0.00 | 52 | 1015.2 |
| 20260507164736 | 49 | 315 | 4.0 | 9.0 | 0.00 | 0.00 | 0.00 | 53 | 1015.3 |
| 20260507164604 | 49 | 311 | 5.0 | 9.0 | 0.00 | 0.00 | 0.00 | 52 | 1015.3 |
| 20260507164527 | 49 | 327 | 5.0 | 9.0 | 0.00 | 0.00 | 0.00 | 52 | 1015.2 |
| 20260507164416 | 49 | 279 | 4.0 | 6.0 | 0.00 | 0.00 | 0.00 | 52 | 1015.3 |
| 20260507164307 | 49 | 304 | 4.0 | 8.0 | 0.00 | 0.00 | 0.00 | 53 | 1015.2 |
| 20260507164200 | 49 | 301 | 3.0 | 8.0 | 0.00 | 0.00 | 0.00 | 53 | 1015.3 |
| 20260507164111 | 49 | 290 | 3.0 | 12.0 | 0.00 | 0.00 | 0.00 | 54 | 1015.3 |
| 20260507164001 | 49 | 225 | 3.0 | 13.0 | 0.00 | 0.00 | 0.00 | 58 | 1015.3 |
| 20260507163913 | 49 | 254 | 2.0 | 13.0 | 0.00 | 0.00 | 0.00 | 54 | 1015.4 |
| 20260507163803 | 49 | 360 | 3.0 | 13.0 | 0.00 | 0.00 | 0.00 | 52 | 1015.3 |
| 20260507163713 | 49 | 287 | 4.0 | 13.0 | 0.00 | 0.00 | 0.00 | 52 | 1015.4 |
| 20260507163626 | 49 | 336 | 4.0 | 13.0 | 0.00 | 0.00 | 0.00 | 53 | 1015.4 |
| 20260507163536 | 49 | 241 | 5.0 | 13.0 | 0.00 | 0.00 | 0.00 | 54 | 1015.4 |
| 20260507163405 | 48 | 276 | 8.0 | 13.0 | 0.00 | 0.00 | 0.00 | 54 | 1015.4 |
| 20260507163302 | 48 | 291 | 6.0 | 13.0 | 0.00 | 0.00 | 0.00 | 56 | 1015.5 |
| 20260507163212 | 48 | 304 | 3.0 | 14.0 | 0.00 | 0.00 | 0.00 | 56 | 1015.5 |
| 20260507163122 | 48 | 304 | 3.0 | 14.0 | 0.00 | 0.00 | 0.00 | 55 | 1015.5 |
| 20260507163044 | 48 | 300 | 5.0 | 14.0 | 0.00 | 0.00 | 0.00 | 55 | 1015.5 |
| 20260507162933 | 48 | 272 | 9.0 | 14.0 | 0.00 | 0.00 | 0.00 | 53 | 1015.6 |
| 20260507162802 | 48 | 263 | 7.0 | 14.0 | 0.00 | 0.00 | 0.00 | 57 | 1015.6 |
| 20260507162712 | 48 | 276 | 5.0 | 14.0 | 0.00 | 0.00 | 0.00 | 56 | 1015.6 |
| 20260507162623 | 48 | 330 | 7.0 | 14.0 | 0.00 | 0.00 | 0.00 | 55 | 1015.7 |
| 20260507162514 | 48 | 324 | 9.0 | 14.0 | 0.00 | 0.00 | 0.00 | 54 | 1015.6 |
| 20260507162425 | 48 | 297 | 10.0 | 14.0 | 0.00 | 0.00 | 0.00 | 53 | 1015.7 |
| 20260507162314 | 48 | 285 | 9.0 | 14.0 | 0.00 | 0.00 | 0.00 | 53 | 1015.7 |
| 20260507162208 | 48 | 291 | 9.0 | 12.0 | 0.00 | 0.00 | 0.00 | 51 | 1015.6 |
| 20260507162100 | 48 | 323 | 9.0 | 12.0 | 0.00 | 0.00 | 0.00 | 53 | 1015.6 |
| 20260507162010 | 48 | 313 | 6.0 | 12.0 | 0.00 | 0.00 | 0.00 | 54 | 1015.6 |
| 20260507161900 | 48 | 333 | 3.0 | 12.0 | 0.00 | 0.00 | 0.00 | 55 | 1015.6 |
| 20260507161809 | 48 | 299 | 5.0 | 12.0 | 0.00 | 0.00 | 0.00 | 53 | 1015.6 |
| 20260507161701 | 48 | 304 | 7.0 | 12.0 | 0.00 | 0.00 | 0.00 | 54 | 1015.7 |
| 20260507161603 | 48 | 301 | 8.0 | 12.0 | 0.00 | 0.00 | 0.00 | 53 | 1015.7 |
| 20260507161452 | 48 | 292 | 7.0 | 12.0 | 0.00 | 0.00 | 0.00 | 54 | 1015.6 |
| 20260507161342 | 48 | 323 | 7.0 | 12.0 | 0.00 | 0.00 | 0.00 | 53 | 1015.6 |
| 20260507161235 | 48 | 279 | 8.0 | 12.0 | 0.00 | 0.00 | 0.00 | 55 | 1015.7 |
| 20260507161124 | 48 | 304 | 7.0 | 10.0 | 0.00 | 0.00 | 0.00 | 54 | 1015.8 |
| 20260507161035 | 48 | 306 | 4.0 | 10.0 | 0.00 | 0.00 | 0.00 | 56 | 1015.8 |
| 20260507160904 | 48 | 324 | 5.0 | 10.0 | 0.00 | 0.00 | 0.00 | 57 | 1015.8 |
| 20260507160816 | 48 | 286 | 6.0 | 10.0 | 0.00 | 0.00 | 0.00 | 56 | 1015.8 |
| 20260507160706 | 48 | 291 | 5.0 | 10.0 | 0.00 | 0.00 | 0.00 | 56 | 1015.8 |
| 20260507160558 | 48 | 292 | 4.0 | 9.0 | 0.00 | 0.00 | 0.00 | 57 | 1015.8 |
| 20260507160509 | 48 | 323 | 4.0 | 10.0 | 0.00 | 0.00 | 0.00 | 56 | 1015.9 |
| 20260507160400 | 48 | 266 | 5.0 | 10.0 | 0.00 | 0.00 | 0.00 | 55 | 1015.8 |
| 20260507160315 | 48 | 310 | 5.0 | 10.0 | 0.00 | 0.00 | 0.00 | 57 | 1015.8 |
| 20260507160204 | 48 | 272 | 4.0 | 10.0 | 0.00 | 0.00 | 0.00 | 54 | 1015.8 |
| 20260507160115 | 48 | 290 | 5.0 | 10.0 | 0.00 | 0.00 | 0.00 | 52 | 1015.8 |
| 20260507160036 | 48 | 293 | 6.0 | 10.0 | 0.00 | 0.00 | 0.00 | 54 | 1015.8 |
| 20260507155908 | 48 | 242 | 5.0 | 10.0 | 0.00 | 0.00 | 0.00 | 58 | 1015.8 |
| 20260507155758 | 48 | 267 | 5.0 | 10.0 | 0.00 | 0.00 | 0.00 | 56 | 1015.7 |
| 20260507155710 | 48 | 275 | 5.0 | 13.0 | 0.00 | 0.00 | 0.00 | 58 | 1015.8 |
| 20260507155620 | 48 | 292 | 6.0 | 13.0 | 0.00 | 0.00 | 0.00 | 55 | 1015.9 |
| 20260507155509 | 48 | 259 | 6.0 | 13.0 | 0.00 | 0.00 | 0.00 | 55 | 1015.8 |
| 20260507155405 | 48 | 227 | 4.0 | 13.0 | 0.00 | 0.00 | 0.00 | 55 | 1015.8 |
| 20260507155315 | 48 | 281 | 4.0 | 13.0 | 0.00 | 0.00 | 0.00 | 57 | 1015.8 |
| 20260507155204 | 48 | 270 | 5.0 | 13.0 | 0.00 | 0.00 | 0.00 | 55 | 1015.7 |
| 20260507155115 | 48 | 294 | 6.0 | 13.0 | 0.00 | 0.00 | 0.00 | 55 | 1015.7 |
| 20260507155006 | 48 | 284 | 6.0 | 13.0 | 0.00 | 0.00 | 0.00 | 55 | 1015.7 |
| 20260507154857 | 48 | 275 | 6.0 | 13.0 | 0.00 | 0.00 | 0.00 | 55 | 1015.7 |
| 20260507154808 | 48 | 261 | 7.0 | 13.0 | 0.00 | 0.00 | 0.00 | 56 | 1015.7 |
| 20260507154718 | 48 | 283 | 6.0 | 13.0 | 0.00 | 0.00 | 0.00 | 54 | 1015.8 |
| 20260507154629 | 48 | 258 | 5.0 | 13.0 | 0.00 | 0.00 | 0.00 | 56 | 1015.8 |
| 20260507154551 | 47 | 253 | 4.0 | 16.0 | 0.00 | 0.00 | 0.00 | 58 | 1015.9 |
| 20260507154403 | 47 | 246 | 7.0 | 16.0 | 0.00 | 0.00 | 0.00 | 57 | 1015.9 |
| 20260507154314 | 47 | 321 | 7.0 | 16.0 | 0.00 | 0.00 | 0.00 | 55 | 1015.9 |
| 20260507154204 | 47 | 271 | 7.0 | 16.0 | 0.00 | 0.00 | 0.00 | 56 | 1015.9 |
| 20260507154115 | 47 | 324 | 9.0 | 16.0 | 0.00 | 0.00 | 0.00 | 56 | 1015.9 |
| 20260507154008 | 47 | 307 | 9.0 | 16.0 | 0.00 | 0.00 | 0.00 | 54 | 1016.0 |
| 20260507153858 | 47 | 290 | 9.0 | 16.0 | 0.00 | 0.00 | 0.00 | 54 | 1015.9 |
| 20260507153810 | 47 | 294 | 10.0 | 16.0 | 0.00 | 0.00 | 0.00 | 54 | 1015.9 |
| 20260507153720 | 48 | 319 | 10.0 | 16.0 | 0.00 | 0.00 | 0.00 | 55 | 1015.9 |
| 20260507153631 | 48 | 326 | 10.0 | 16.0 | 0.00 | 0.00 | 0.00 | 55 | 1016.0 |
| 20260507153546 | 48 | 290 | 7.0 | 16.0 | 0.00 | 0.00 | 0.00 | 56 | 1015.9 |
| 20260507153436 | 48 | 360 | 5.0 | 13.0 | 0.00 | 0.00 | 0.00 | 56 | 1015.9 |
| 20260507153349 | 48 | 317 | 5.0 | 13.0 | 0.00 | 0.00 | 0.00 | 54 | 1015.8 |
| 20260507153237 | 48 | 312 | 8.0 | 13.0 | 0.00 | 0.00 | 0.00 | 54 | 1015.9 |
| 20260507153119 | 48 | 319 | 7.0 | 13.0 | 0.00 | 0.00 | 0.00 | 55 | 1015.9 |
| 20260507152947 | 48 | 322 | 6.0 | 13.0 | 0.00 | 0.00 | 0.00 | 57 | 1016.0 |
| 20260507152836 | 48 | 225 | 4.0 | 10.0 | 0.00 | 0.00 | 0.00 | 60 | 1015.9 |
| 20260507152706 | 48 | 292 | 3.0 | 10.0 | 0.00 | 0.00 | 0.00 | 60 | 1016.0 |
| 20260507152616 | 48 | 249 | 5.0 | 17.0 | 0.00 | 0.00 | 0.00 | 60 | 1015.9 |
| 20260507152507 | 48 | 312 | 5.0 | 17.0 | 0.00 | 0.00 | 0.00 | 57 | 1016.0 |
| 20260507152421 | 48 | 247 | 5.0 | 17.0 | 0.00 | 0.00 | 0.00 | 56 | 1015.9 |
| 20260507152331 | 48 | 321 | 6.0 | 17.0 | 0.00 | 0.00 | 0.00 | 57 | 1015.9 |
| 20260507152200 | 48 | 267 | 5.0 | 17.0 | 0.00 | 0.00 | 0.00 | 59 | 1016.0 |
| 20260507152113 | 47 | 294 | 5.0 | 17.0 | 0.00 | 0.00 | 0.00 | 58 | 1016.0 |
| 20260507152022 | 47 | 263 | 4.0 | 17.0 | 0.00 | 0.00 | 0.00 | 58 | 1016.0 |
| 20260507151912 | 47 | 300 | 7.0 | 17.0 | 0.00 | 0.00 | 0.00 | 58 | 1015.9 |
| 20260507151804 | 47 | 261 | 9.0 | 17.0 | 0.00 | 0.00 | 0.00 | 55 | 1016.0 |
| 20260507151715 | 47 | 317 | 7.0 | 14.0 | 0.00 | 0.00 | 0.00 | 55 | 1016.0 |
| 20260507151606 | 47 | 286 | 5.0 | 14.0 | 0.00 | 0.00 | 0.00 | 60 | 1015.9 |
| 20260507151527 | 47 | 265 | 6.0 | 14.0 | 0.00 | 0.00 | 0.00 | 58 | 1015.9 |
| 20260507151420 | 47 | 254 | 7.0 | 14.0 | 0.00 | 0.00 | 0.00 | 58 | 1015.9 |
| 20260507151311 | 47 | 271 | 7.0 | 14.0 | 0.00 | 0.00 | 0.00 | 57 | 1015.8 |
| 20260507151222 | 47 | 275 | 5.0 | 16.0 | 0.00 | 0.00 | 0.00 | 58 | 1015.9 |
| 20260507151133 | 47 | 267 | 5.0 | 16.0 | 0.00 | 0.00 | 0.00 | 58 | 1015.8 |
| 20260507151003 | 47 | 242 | 8.0 | 16.0 | 0.00 | 0.00 | 0.00 | 56 | 1015.8 |
| 20260507150913 | 47 | 286 | 9.0 | 16.0 | 0.00 | 0.00 | 0.00 | 55 | 1015.8 |
| 20260507150804 | 47 | 296 | 8.0 | 16.0 | 0.00 | 0.00 | 0.00 | 56 | 1015.8 |
| 20260507150715 | 47 | 290 | 6.0 | 16.0 | 0.00 | 0.00 | 0.00 | 58 | 1015.9 |
| 20260507150606 | 47 | 318 | 6.0 | 16.0 | 0.00 | 0.00 | 0.00 | 58 | 1015.8 |
| 20260507150502 | 47 | 301 | 7.0 | 16.0 | 0.00 | 0.00 | 0.00 | 57 | 1015.8 |
| 20260507150414 | 47 | 269 | 5.0 | 16.0 | 0.00 | 0.00 | 0.00 | 59 | 1015.8 |
| 20260507150308 | 47 | 278 | 4.0 | 15.0 | 0.00 | 0.00 | 0.00 | 59 | 1015.7 |
| 20260507150216 | 47 | 303 | 6.0 | 15.0 | 0.00 | 0.00 | 0.00 | 59 | 1015.8 |
| 20260507150107 | 47 | 317 | 6.0 | 15.0 | 0.00 | 0.00 | 0.00 | 60 | 1015.7 |
| 20260507150029 | 47 | 291 | 6.0 | 15.0 | 0.00 | 0.00 | 0.00 | 58 | 1015.6 |
| 20260507145858 | 47 | 306 | 6.0 | 15.0 | 0.00 | 0.00 | 0.00 | 56 | 1015.6 |
| 20260507145810 | 47 | 302 | 8.0 | 15.0 | 0.00 | 0.00 | 0.00 | 56 | 1015.8 |
| 20260507145700 | 47 | 288 | 9.0 | 15.0 | 0.00 | 0.00 | 0.00 | 56 | 1015.7 |
| 20260507145614 | 47 | 292 | 9.0 | 14.0 | 0.00 | 0.00 | 0.00 | 56 | 1015.6 |
| 20260507145524 | 47 | 290 | 8.0 | 14.0 | 0.00 | 0.00 | 0.00 | 58 | 1015.6 |